[[{"header":{"parameterUnit":"m.s-1","parameterCategory":1,"la1":30.6,"la2":28.766,"lo1":-90.7593,"lo2":-88.6598,"dy":0.0162,"dx":0.0183,"nx":116,"ny":114,"refTime":"2024-06-13T06:00:00:Z","depth":0,"parameterNumber":2,"parameterNumberName":"U-component_of_WINDS"},"data":[0.0,0.0,0.0,0.0,0.0,0.0,0.0,0.0,0.0,0.0,0.0,0.0,0.0,0.0,0.0,0.0,0.0,0.0,0.0,0.0,0.0,0.0,0.0,0.0,0.0,0.0,0.0,0.0,0.0,0.0,0.0,0.0,0.0,0.0,0.0,0.0,0.0,0.0,0.0,0.0,0.0,0.0,0.0,0.0,0.0,0.0,0.0,0.0,0.0,0.0,0.0,0.0,0.0,0.0,0.0,0.0,0.0,0.0,0.0,0.0,0.0,0.0,0.0,0.0,0.0,0.0,0.0,0.0,0.0,0.0,0.0,0.0,0.0,0.0,0.0,0.0,0.0,0.0,0.0,0.0,0.0,0.0,0.0,0.0,0.0,0.0,0.0,0.0,0.0,0.0,0.0,0.0,0.0,0.0,0.0,0.0,0.0,0.0,0.0,0.0,0.0,0.0,0.0,0.0,0.0,0.0,0.0,0.0,0.0,0.0,0.0,0.0,0.0,0.0,0.0,0.0,0.0,0.0,0.0,0.0,0.0,0.0,0.0,0.0,0.0,0.0,0.0,0.0,0.0,0.0,0.0,0.0,0.0,0.0,0.0,0.0,0.0,0.0,0.0,0.0,0.0,0.0,0.0,0.0,0.0,0.0,0.0,0.0,0.0,0.0,0.0,0.0,0.0,0.0,0.0,0.0,0.0,0.0,0.0,0.0,0.0,0.0,0.0,0.0,0.0,0.0,0.0,0.0,0.0,0.0,0.0,0.0,0.0,0.0,0.0,0.0,0.0,0.0,0.0,0.0,0.0,0.0,0.0,0.0,0.0,0.0,0.0,0.0,0.0,0.0,0.0,0.0,0.0,0.0,0.0,0.0,0.0,0.0,0.0,0.0,0.0,0.0,0.0,0.0,0.0,0.0,0.0,0.0,0.0,0.0,0.0,0.0,0.0,0.0,0.0,0.0,0.0,0.0,0.0,0.0,0.0,0.0,0.0,0.0,0.0,0.0,0.0,0.0,0.0,0.0,0.0,0.0,0.0,0.0,0.0,0.0,0.0,0.0,0.0,0.0,0.0,0.0,0.0,0.0,0.0,0.0,0.0,0.0,0.0,0.0,0.0,0.0,0.0,0.0,0.0,0.0,0.0,0.0,0.0,0.0,0.0,0.0,0.0,0.0,0.0,0.0,0.0,0.0,0.0,0.0,0.0,0.0,0.0,0.0,0.0,0.0,0.0,0.0,0.0,0.0,0.0,0.0,0.0,0.0,0.0,0.0,0.0,0.0,0.0,0.0,0.0,0.0,0.0,0.0,0.0,0.0,0.0,0.0,0.0,0.0,0.0,0.0,0.0,0.0,0.0,0.0,0.0,0.0,0.0,0.0,0.0,0.0,0.0,0.0,0.0,0.0,0.0,0.0,0.0,0.0,0.0,0.0,0.0,0.0,0.0,0.0,0.0,0.0,0.0,0.0,0.0,0.0,0.0,0.0,0.0,0.0,0.0,0.0,0.0,0.0,0.0,0.0,0.0,0.0,0.0,0.0,0.0,0.0,0.0,0.0,0.0,0.0,0.0,0.0,0.0,0.0,0.0,0.0,0.0,0.0,0.0,0.0,0.0,0.0,0.0,0.0,0.0,0.0,0.0,0.0,0.0,0.0,0.0,0.0,0.0,0.0,0.0,0.0,0.0,0.0,0.0,0.0,0.0,0.0,0.0,0.0,0.0,0.0,0.0,0.0,0.0,0.0,0.0,0.0,0.0,0.0,0.0,0.0,0.0,0.0,0.0,0.0,0.0,0.0,0.0,0.0,0.0,0.0,0.0,0.0,0.0,0.0,0.0,0.0,0.0,0.0,0.0,0.0,0.0,0.0,0.0,0.0,0.0,0.0,0.0,0.0,0.0,0.0,0.0,0.0,0.0,0.0,0.0,0.0,0.0,0.0,0.0,0.0,0.0,0.0,0.0,0.0,0.0,0.0,0.0,0.0,0.0,0.0,0.0,0.0,0.0,0.0,0.0,0.0,0.0,0.0,0.0,0.0,0.0,0.0,0.0,0.0,0.0,0.0,0.0,0.0,0.0,0.0,0.0,0.0,0.0,0.0,0.0,0.0,0.0,0.0,0.0,0.0,0.0,0.0,0.0,0.0,0.0,0.0,0.0,0.0,0.0,0.0,0.0,0.0,0.0,0.0,0.0,0.0,0.0,0.0,0.0,0.0,0.0,0.0,0.0,0.0,0.0,0.0,0.0,0.0,0.0,0.0,0.0,0.0,0.0,0.0,0.0,0.0,0.0,0.0,0.0,0.0,0.0,0.0,0.0,0.0,0.0,0.0,0.0,0.0,0.0,0.0,0.0,0.0,0.0,0.0,0.0,0.0,0.0,0.0,0.0,0.0,0.0,0.0,0.0,0.0,0.0,0.0,0.0,0.0,0.0,0.0,0.0,0.0,0.0,0.0,0.0,0.0,0.0,0.0,0.0,0.0,0.0,0.0,0.0,0.0,0.0,0.0,0.0,0.0,0.0,0.0,0.0,0.0,0.0,0.0,0.0,0.0,0.0,0.0,0.0,0.0,0.0,0.0,0.0,0.0,0.0,0.0,0.0,0.0,0.0,0.0,0.0,0.0,0.0,0.0,0.0,0.0,0.0,0.0,0.0,0.0,0.0,0.0,0.0,0.0,0.0,0.0,0.0,0.0,0.0,0.0,0.0,0.0,0.0,0.0,0.0,0.0,0.0,0.0,0.0,0.0,0.0,0.0,0.0,0.0,0.0,0.0,0.0,0.0,0.0,0.0,0.0,0.0,0.0,0.0,0.0,0.0,0.0,0.0,0.0,0.0,0.0,0.0,0.0,0.0,0.0,0.0,0.0,0.0,0.0,0.0,0.0,0.0,0.0,0.0,0.0,0.0,0.0,0.0,0.0,0.0,0.0,0.0,0.0,0.0,0.0,0.0,0.0,0.0,0.0,0.0,0.0,0.0,0.0,0.0,0.0,0.0,0.0,0.0,0.0,0.0,0.0,0.0,0.0,0.0,0.0,0.0,0.0,0.0,0.0,0.0,0.0,0.0,0.0,0.0,0.0,0.0,0.0,0.0,0.0,0.0,0.0,0.0,0.0,0.0,0.0,0.0,0.0,0.0,0.0,0.0,0.0,0.0,0.0,0.0,0.0,0.0,0.0,0.0,0.0,0.0,0.0,0.0,0.0,0.0,0.0,0.0,0.0,0.0,0.0,0.0,0.0,0.0,0.0,0.0,0.0,0.0,0.0,0.0,0.0,0.0,0.0,0.0,0.0,0.0,0.0,0.0,0.0,0.0,0.0,0.0,0.0,0.0,0.0,0.0,0.0,0.0,0.0,0.0,0.0,0.0,0.0,0.0,0.0,0.0,0.0,0.0,0.0,0.0,0.0,0.0,0.0,0.0,0.0,0.0,0.0,0.0,0.0,0.0,0.0,0.0,0.0,0.0,0.0,0.0,0.0,0.0,0.0,0.0,0.0,0.0,0.0,0.0,0.0,0.0,0.0,0.0,0.0,0.0,0.0,0.0,0.0,0.0,0.0,0.0,0.0,0.0,0.0,0.0,0.0,0.0,0.0,0.0,0.0,0.0,0.0,0.0,0.0,0.0,0.0,0.0,0.0,0.0,0.0,0.0,0.0,0.0,0.0,0.0,0.0,0.0,0.0,0.0,0.0,0.0,0.0,0.0,0.0,0.0,0.0,0.0,0.0,0.0,0.0,0.0,0.0,0.0,0.0,0.0,0.0,0.0,0.0,0.0,0.0,0.0,0.0,0.0,0.0,0.0,0.0,0.0,0.0,0.0,0.0,0.0,0.0,0.0,0.0,0.0,0.0,0.0,0.0,0.0,0.0,0.0,0.0,0.0,0.0,0.0,0.0,0.0,0.0,0.0,0.0,0.0,0.0,0.0,0.0,0.0,0.0,0.0,0.0,0.0,0.0,0.0,0.0,0.0,0.0,0.0,0.0,0.0,0.0,0.0,0.0,0.0,0.0,0.0,0.0,0.0,0.0,0.0,0.0,0.0,0.0,0.0,0.0,0.0,0.0,0.0,0.0,0.0,0.0,0.0,0.0,0.0,0.0,0.0,0.0,0.0,0.0,0.0,0.0,0.0,0.0,0.0,0.0,0.0,0.0,0.0,0.0,0.0,0.0,0.0,0.0,0.0,0.0,0.0,0.0,0.0,0.0,0.0,0.0,0.0,0.0,0.0,0.0,0.0,0.0,0.0,0.0,0.0,0.0,0.0,0.0,0.0,0.0,0.0,0.0,0.0,0.0,0.0,0.0,0.0,0.0,0.0,0.0,0.0,0.0,0.0,0.0,0.0,0.0,0.0,0.0,0.0,0.0,0.0,0.0,0.0,0.0,0.0,0.0,0.0,0.0,0.0,0.0,0.0,0.0,0.0,0.0,0.0,0.0,0.0,0.0,0.0,0.0,0.0,0.0,0.0,0.0,0.0,0.0,0.0,0.0,0.0,0.0,0.0,0.0,0.0,0.0,0.0,0.0,0.0,0.0,0.0,0.0,0.0,0.0,0.0,0.0,0.0,0.0,0.0,0.0,0.0,0.0,0.0,0.0,0.0,0.0,0.0,0.0,0.0,0.0,0.0,0.0,0.0,0.0,0.0,0.0,0.0,0.0,0.0,0.0,0.0,0.0,0.0,0.0,0.0,0.0,0.0,0.0,0.0,0.0,0.0,0.0,0.0,0.0,0.0,0.0,0.0,0.0,0.0,0.0,0.0,0.0,0.0,0.0,0.0,0.0,0.0,0.0,0.0,0.0,0.0,0.0,0.0,0.0,0.0,0.0,0.0,0.0,0.0,0.0,0.0,0.0,0.0,0.0,0.0,0.0,0.0,0.0,0.0,0.0,0.0,0.0,0.0,0.0,0.0,0.0,0.0,0.0,0.0,0.0,0.0,0.0,0.0,0.0,0.0,0.0,0.0,0.0,0.0,0.0,0.0,0.0,0.0,0.0,0.0,0.0,0.0,0.0,0.0,0.0,0.0,0.0,0.0,0.0,0.0,0.0,0.0,0.0,0.0,0.0,0.0,0.0,0.0,0.0,0.0,0.0,0.0,0.0,0.0,0.0,0.0,0.0,0.0,0.0,0.0,0.0,0.0,0.0,0.0,0.0,0.0,0.0,0.0,0.0,0.0,0.0,0.0,0.0,0.0,0.0,0.0,0.0,0.0,0.0,0.0,0.0,0.0,0.0,0.0,0.0,0.0,0.0,0.0,0.0,0.0,0.0,0.0,0.0,0.0,0.0,0.0,0.0,0.0,0.0,0.0,0.0,0.0,0.0,0.0,0.0,0.0,0.0,0.0,0.0,0.0,0.0,0.0,0.0,0.0,0.0,0.0,0.0,0.0,0.0,0.0,0.0,0.0,0.0,0.0,0.0,0.0,0.0,0.0,0.0,0.0,0.0,0.0,0.0,0.0,0.0,0.0,0.0,0.0,0.0,0.0,0.0,0.0,0.0,0.0,0.0,0.0,0.0,0.0,0.0,0.0,0.0,0.0,0.0,0.0,0.0,0.0,0.0,0.0,0.0,0.0,0.0,0.0,0.0,0.0,0.0,0.0,0.0,0.0,0.0,0.0,0.0,0.0,0.0,0.0,0.0,0.0,0.0,0.0,0.0,0.0,0.0,0.0,0.0,0.0,0.0,0.0,0.0,0.0,0.0,0.0,0.0,0.0,0.0,0.0,0.0,0.0,0.0,0.0,0.0,0.0,0.0,0.0,0.0,0.0,0.0,0.0,0.0,0.0,0.0,0.0,0.0,0.0,0.0,0.0,0.0,0.0,0.0,0.0,0.0,0.0,0.0,0.0,0.0,0.0,0.0,0.0,0.0,0.0,0.0,0.0,0.0,0.0,0.0,0.0,0.0,0.0,0.0,0.0,0.0,0.0,0.0,0.0,0.0,0.0,0.0,0.0,0.0,0.0,0.0,0.0,0.0,0.0,0.0,0.0,0.0,0.0,0.0,0.0,0.0,0.0,0.0,0.0,0.0,0.0,0.0,0.0,0.0,0.0,0.0,0.0,0.0,0.0,0.0,0.0,0.0,0.0,0.0,0.0,0.0,0.0,0.0,0.0,0.0,0.0,1.3099,0.0,0.0,0.0,0.0,0.0,0.0,0.0,0.0,0.0,0.0,0.0,0.0,0.0,0.0,0.0,0.0,0.0,0.0,0.0,0.0,0.0,0.0,0.0,0.0,0.5549,0.5674,0.6024,0.7167,0.788,0.788,0.0,0.0,0.0,0.0,0.0,0.7303,0.7307,0.7307,0.7303,0.7684,0.8291,0.9082,0.9532,0.9155,0.8076,0.0,0.0,0.0,0.0,0.0,0.0,0.0,0.0,0.0,0.0,0.0,0.0,0.0,0.0,0.0,0.0,0.0,0.0,0.0,0.0,0.0,0.0,0.0,0.0,0.0,0.0,0.0,0.0,0.0,0.0,0.0,0.0,0.0,0.0,0.0,0.0,0.0,0.0,0.0,0.0,0.0,0.0,0.0,0.0,0.0,0.0,0.0,0.0,0.0,0.0,0.0,0.0,0.0,0.0,0.0,0.0,0.0,0.0,0.0,0.0,0.0,0.0,0.0,0.0,0.0,0.0,0.0,0.0,0.0,0.0,0.0,1.4298,0.0,0.0,0.0,0.0,0.0,0.0,0.0,0.0,0.0,0.0,0.0,0.0,0.0,0.0,0.0,0.0,0.0,0.0,0.0,0.0,0.0,0.5464,0.6121,0.6263,0.6575,0.7247,0.8033,0.8498,0.8498,0.9257,0.0,0.0,0.0,0.8394,0.7727,0.769,0.7678,0.7678,0.8449,0.962,1.1161,1.1892,1.1154,0.9237,0.9439,0.0,0.0,0.0,0.0,0.0,0.0,0.0,0.0,0.0,0.0,0.0,0.0,0.0,0.0,0.0,0.0,0.0,0.0,0.0,0.0,0.0,0.0,0.0,0.0,0.0,0.0,0.0,0.0,0.0,0.0,0.0,0.0,0.0,0.0,0.0,0.0,0.0,0.0,0.0,0.0,0.0,0.0,0.0,0.0,0.0,0.0,0.0,0.0,0.0,0.0,0.0,0.0,0.0,0.0,0.0,0.0,0.0,0.0,0.0,0.0,0.0,0.0,0.0,1.7329,1.7693,2.0967,2.1107,2.1169,2.1015,1.8189,1.6631,1.5824,1.2401,0.0,0.0,0.0,0.0,0.0,0.0,0.0,0.0,0.0,0.0,0.0,0.0,0.0,0.0,0.0,0.0,0.0,0.0,0.0,0.608,0.6196,0.6762,0.7178,0.7284,0.8027,0.8498,0.8498,0.9257,0.0,0.0,0.9533,0.9496,0.9386,0.9265,0.9217,0.9217,0.984,1.0688,1.1696,1.187,1.1875,1.1727,1.1935,1.1963,1.1837,0.0,0.0,0.0,0.0,0.0,0.0,0.0,0.0,0.0,0.0,0.0,0.0,0.0,0.0,0.0,0.0,0.0,0.0,0.0,0.0,0.0,0.0,0.0,0.0,0.0,0.0,0.0,0.0,0.0,0.0,0.0,0.0,0.0,0.0,0.0,0.0,0.0,0.0,0.0,0.0,0.0,0.9614,1.0056,0.0,0.0,0.0,0.0,0.0,0.0,0.0,0.0,0.0,0.0,0.0,0.0,0.0,1.5969,1.8927,1.8965,1.9408,2.0285,1.9244,2.0495,2.371,2.4345,2.463,2.4611,2.4149,0.0,1.9369,1.5939,0.0,0.0,0.0,0.0,0.0,0.0,0.0,0.0,0.0,0.0,0.0,0.0,0.0,0.0,0.0,0.0,0.0,0.0,0.0,0.0,0.0,0.7786,0.815,0.8611,0.8978,0.9184,0.9184,0.9496,0.9698,0.9698,0.9698,0.9675,0.9593,0.9525,0.9672,1.0008,1.1559,1.2516,1.2948,1.4005,1.4523,1.463,1.4962,1.4118,1.2459,1.1664,0.0,0.0,0.0,0.0,0.0,0.0,0.0,0.0,0.0,0.0,0.0,0.0,0.0,0.0,0.0,0.0,0.0,0.0,0.0,0.0,0.0,0.0,0.0,0.0,0.0,0.0,0.0,0.0,0.0,0.0,0.0,0.0,0.0,0.0,0.0,0.0,0.0,0.0,0.0,0.861,1.0558,1.2352,1.2801,1.2209,0.0,0.0,0.0,0.0,0.0,0.0,0.0,0.0,0.0,1.5222,1.7093,1.8608,1.9731,2.1572,2.2497,2.2497,2.2602,2.343,2.4823,2.516,2.5072,2.4693,2.5107,2.4476,2.2842,1.9458,1.717,1.5632,0.0,0.0,0.0,0.0,1.5132,1.808,0.0,0.0,0.0,0.0,0.0,0.0,0.0,0.0,0.0,0.0,0.0,0.0,0.8359,0.8683,0.9048,0.9643,0.9698,0.9698,0.9698,0.9675,0.9641,0.9641,0.9617,0.955,0.9447,0.9591,1.0178,1.1172,1.286,1.3948,1.4476,1.5749,1.6443,1.6609,1.6835,1.5612,1.3328,1.2521,1.2112,0.0,0.0,0.0,0.0,0.0,0.0,0.0,0.0,0.0,0.0,0.0,0.0,0.0,0.0,0.0,0.0,0.0,0.0,0.0,0.0,0.0,0.0,0.0,0.0,0.0,0.0,0.0,0.0,0.0,0.0,0.0,0.0,0.0,0.0,0.0,0.0,0.0,0.0,0.9044,1.1361,1.4157,1.5536,1.4969,0.0,0.0,0.0,0.0,0.0,0.0,1.6103,1.6397,1.7358,1.9246,2.0602,2.1067,2.0572,2.3167,2.4392,2.4209,2.4752,2.5024,2.5018,2.5203,2.5012,2.4526,2.5061,2.5303,2.5111,2.2611,2.1573,2.1323,1.8785,1.7266,1.6497,1.6497,1.865,2.1573,0.0,0.0,0.0,0.0,0.0,0.0,0.0,0.0,0.0,0.0,0.0,0.8415,0.8486,0.9184,0.9661,0.9698,0.9698,0.9698,0.9698,0.9585,0.9508,0.9508,0.9385,0.9321,0.9312,0.9872,1.1174,1.3243,1.3362,1.4382,1.6162,1.6011,1.6267,1.6863,1.6624,1.6224,1.5687,1.5071,1.4365,1.353,0.0,0.0,0.0,0.0,0.0,0.0,0.0,0.0,0.0,0.0,0.0,0.0,0.0,0.0,0.0,0.0,0.0,0.0,0.0,0.0,0.0,0.0,0.0,0.0,0.0,0.0,0.0,0.0,0.0,0.0,0.0,0.0,0.0,0.0,0.0,0.0,0.0,0.0,0.0,1.4304,1.7224,0.0,0.0,0.0,0.0,1.4283,1.7114,1.8912,1.9077,1.9694,1.982,1.932,2.2353,2.3989,2.3951,2.4815,2.4891,2.419,2.4247,2.4266,2.4284,2.4968,2.5274,2.5253,2.5274,2.5303,2.5284,2.5111,2.5053,2.5034,2.4861,2.2842,2.0042,2.0042,2.2169,2.5053,0.0,0.0,0.0,0.0,0.0,0.5029,0.4998,0.5641,0.6273,0.6694,0.7688,0.8537,0.8963,0.9806,1.014,0.9613,1.0108,1.0241,0.9735,0.9567,0.9708,1.0194,1.0077,1.0192,1.0581,1.1692,1.263,1.3396,1.4836,1.5882,1.6568,1.711,1.7511,1.7736,1.8,1.7713,1.699,1.5956,1.5098,1.4348,1.3286,1.2212,0.0,0.0,0.0,0.0,0.0,0.0,0.0,0.0,0.0,0.0,0.0,0.0,0.0,0.0,0.0,0.0,0.0,0.0,0.0,0.0,0.0,0.0,0.0,0.0,0.0,0.0,0.0,0.0,0.0,0.0,0.0,0.0,0.0,0.0,0.0,0.0,0.0,1.8757,1.8503,0.0,1.7844,1.6083,1.5687,1.7463,1.8647,2.0207,2.2336,2.268,2.2915,2.3149,2.429,2.4904,2.4904,2.4693,2.4459,2.419,2.419,2.4442,2.4917,2.5182,2.5303,2.5303,2.5303,2.5303,2.5303,2.5303,2.5303,2.5303,2.5303,2.4572,2.3515,2.3515,2.4265,2.5303,0.0,0.0,0.0,0.0,0.5036,0.4993,0.5003,0.5824,0.6602,0.7039,0.8,0.8805,0.9259,1.0139,1.0358,0.9502,1.0321,1.0519,0.9613,0.9491,0.9627,1.0067,1.0446,1.1024,1.1868,1.3125,1.4005,1.4514,1.5987,1.6859,1.7236,1.7795,1.8166,1.8351,1.8604,1.8521,1.8081,1.7245,1.6379,1.5488,1.4525,1.3673,1.2901,0.0,0.0,0.0,0.0,0.0,0.0,0.0,0.0,0.0,0.0,0.0,0.0,0.0,0.0,0.0,0.0,0.0,0.0,0.0,0.0,0.0,0.0,0.0,0.0,0.0,0.0,0.0,0.0,0.0,0.0,0.0,0.0,0.0,0.0,0.0,1.6922,2.0535,1.9689,1.8952,1.9265,1.7648,1.7798,2.0735,2.0941,2.2011,2.4444,2.4572,2.4795,2.5274,2.5303,2.5303,2.5303,2.4809,2.4572,2.4572,2.4572,2.4823,2.5303,2.5303,2.5303,2.5303,2.5303,2.5303,2.5274,2.5037,2.493,2.4943,2.5192,2.5303,2.5303,2.5303,2.5303,2.5303,0.0,0.0,0.0,0.5095,0.5036,0.5005,0.4995,0.6196,0.7105,0.709,0.837,0.9303,0.9293,1.0129,1.031,0.9365,1.0277,1.0431,0.9375,0.9303,0.9263,0.9158,1.0493,1.1785,1.3013,1.4048,1.5274,1.6699,1.6733,1.7232,1.8187,1.7927,1.8078,1.8601,1.8345,1.8542,1.9038,1.9056,1.8343,1.7076,1.5677,1.5575,1.6029,0.0,0.0,0.0,0.0,0.0,0.0,0.0,0.0,0.0,0.0,0.0,0.0,0.0,0.0,0.0,0.0,0.0,0.0,0.0,0.0,0.0,0.0,0.0,0.0,0.0,0.0,0.0,0.0,0.0,0.0,0.0,0.0,0.0,1.5178,1.6487,1.8192,1.9271,2.0829,2.1178,1.9617,1.9436,2.0758,2.3951,2.419,2.4508,2.5253,2.5303,2.5303,2.5303,2.5303,2.5303,2.5303,2.5303,2.5303,2.5303,2.5303,2.5303,2.5303,2.5303,2.5303,2.5303,2.5303,2.5303,2.5243,2.4543,2.4247,2.4321,2.5024,2.5303,2.5303,2.5303,2.5303,2.5303,0.0,0.0,0.5091,0.5034,0.5005,0.4992,0.4935,0.6165,0.7064,0.6963,0.8242,0.9109,0.9033,0.9847,1.0069,0.9229,1.0059,1.0244,0.9365,0.9199,0.958,1.0514,1.2482,1.3734,1.4083,1.5423,1.6292,1.6699,1.7236,1.7652,1.7905,1.7816,1.8172,1.8824,1.8957,1.9378,2.0035,2.0487,2.0138,1.9153,1.79,1.6806,1.5827,0.0,0.0,0.0,0.0,0.0,0.0,0.0,0.0,0.0,0.0,0.0,0.0,0.0,0.0,0.0,0.0,0.0,0.0,0.0,0.0,0.0,0.0,0.0,0.0,0.0,0.0,0.0,0.0,0.0,0.0,0.0,0.0,2.0811,1.9913,1.9767,2.0209,2.1528,2.1766,2.2097,2.2776,2.285,2.3217,2.4135,2.419,2.4508,2.5253,2.5303,2.5303,2.5303,2.5303,2.5303,2.5303,2.5303,2.5303,2.5303,2.5303,2.5303,2.5303,2.5303,2.5303,2.5303,2.5303,2.5303,2.5274,2.5084,2.5012,2.5024,2.5233,2.5303,2.5303,2.5303,2.5303,2.5303,0.0,0.507,0.5038,0.5001,0.4981,0.5066,0.535,0.6314,0.7116,0.7375,0.8341,0.899,0.8902,0.9737,0.9983,0.9168,1.0249,1.0461,0.9288,0.9379,1.0199,1.1821,1.3581,1.4744,1.5235,1.6517,1.7151,1.7151,1.7591,1.7811,1.7811,1.8115,1.8488,1.8934,1.9382,1.99,2.0431,2.0758,2.0802,2.0516,1.9472,1.8388,1.7299,1.6328,1.5693,1.5184,1.4437,1.3752,1.3195,1.3199,0.0,0.0,0.0,0.0,0.0,0.0,0.0,0.0,0.0,0.0,0.0,0.0,0.0,0.0,0.0,0.0,0.0,0.0,0.0,0.0,0.0,0.0,0.0,0.0,2.0941,2.2795,2.2795,2.2079,2.1859,2.2666,2.2776,2.3162,2.4098,2.419,2.419,2.419,2.4493,2.485,2.5274,2.5303,2.5303,2.5303,2.5303,2.5303,2.5303,2.5303,2.5303,2.5303,2.5303,2.5303,2.5303,2.5303,2.5303,2.5303,2.5303,2.5303,2.5303,2.5303,2.5303,0.0,0.0,0.0,0.0,0.0,2.5303,2.5303,0.0,0.5038,0.4996,0.4993,0.494,0.5163,0.5973,0.6549,0.7176,0.7961,0.8558,0.8891,0.8869,0.9635,0.9845,0.9137,1.051,1.0831,0.0,0.9986,1.1181,1.2967,1.415,1.5261,1.6326,1.7294,1.7811,1.7811,1.7811,1.7845,1.7946,1.8589,1.8978,1.9181,1.9858,2.0305,2.0618,2.0666,2.092,2.1265,2.0583,2.0077,1.9532,1.7997,1.7488,1.7472,1.6637,1.5453,1.4301,1.4301,0.0,0.0,0.0,0.0,0.0,0.0,0.0,0.0,0.0,0.0,0.0,0.0,0.0,0.0,0.0,0.0,0.0,0.0,0.0,0.0,0.0,0.0,0.0,0.0,2.419,2.419,2.419,2.3584,2.3144,2.3144,2.3768,2.419,2.419,2.419,2.419,2.419,2.4877,2.5303,2.5303,0.0,0.0,0.0,0.0,2.5303,2.5303,2.5303,2.5303,2.5303,2.5303,2.5303,2.5303,2.5303,2.5303,2.5303,2.5303,2.5303,2.5303,2.5303,2.5303,2.5303,2.5303,2.5303,2.5303,2.5303,2.5303,2.5303,0.0,0.5038,0.501,0.5003,0.4944,0.5153,0.591,0.6524,0.7136,0.7768,0.8469,0.8846,0.8748,0.8993,0.91,0.8953,0.9776,1.0412,0.0,0.0,1.2923,1.3312,1.5204,1.639,1.6636,1.74,1.7811,1.7811,1.7811,1.8115,1.8691,1.8826,1.9553,2.0763,2.0889,2.1322,2.1963,2.2169,2.194,2.1464,2.1577,2.1108,2.016,1.8673,1.813,1.8036,1.7332,1.6971,1.6799,1.6799,1.6333,1.5632,1.4814,0.0,0.0,0.0,0.0,0.0,0.0,0.0,0.0,0.0,0.0,0.0,0.0,0.0,0.0,0.0,0.0,0.0,0.0,0.0,0.0,2.3988,2.419,2.419,2.419,2.4061,2.3969,2.3969,2.4116,2.419,2.419,2.419,2.419,2.419,2.4877,2.5303,2.5303,2.5303,2.5303,2.5303,2.5303,2.5303,2.5303,2.5303,2.5303,2.5303,0.0,0.0,2.5303,2.5303,2.5303,2.5303,2.5303,2.5303,2.5303,2.5303,2.5303,2.5303,2.5303,2.5303,2.5303,2.5303,2.5303,2.5303,0.5062,0.5015,0.5008,0.4992,0.4916,0.5225,0.6384,0.6758,0.7233,0.817,0.8583,0.8771,0.8705,0.876,0.8863,0.899,0.9552,0.0,0.0,1.2473,1.3418,1.4462,1.5741,1.6696,1.7236,1.7608,1.7811,1.7811,1.7811,1.8183,1.891,1.9283,2.0078,2.1221,2.1583,2.1955,2.231,2.2436,2.234,2.2081,2.1847,2.1556,2.1092,1.9714,1.9346,1.9452,1.8715,1.8264,1.8013,1.8013,1.752,1.6815,1.6317,1.5329,1.4175,0.0,0.0,0.0,0.0,0.0,0.0,0.0,0.0,0.0,0.0,0.0,0.0,0.0,0.0,1.6445,0.0,0.0,2.419,2.419,2.419,2.419,2.419,2.419,2.4247,2.4339,2.4247,2.419,2.419,2.4524,2.4752,2.4752,2.5084,2.5303,2.5303,2.5303,2.5303,2.5303,2.5303,2.5303,2.5303,2.5303,2.5303,2.5303,2.5303,2.5303,2.5303,2.5303,2.5303,2.5303,2.5303,2.5303,2.5303,2.5303,2.5303,2.5303,2.5303,2.5303,2.5303,2.5303,2.5303,2.5303,0.5003,0.4987,0.4981,0.4981,0.5012,0.5502,0.688,0.7116,0.7519,0.8621,0.8749,0.8717,0.8657,0.8705,0.8868,0.9206,0.0,0.0,0.0,1.263,1.3662,1.5349,1.6045,1.6812,1.7687,1.7766,1.7811,1.7811,1.7946,1.8403,1.913,1.9891,2.067,2.1431,2.204,2.231,2.231,2.231,2.2426,2.2574,2.1919,2.1861,2.1995,2.0672,2.0372,2.0563,1.9824,1.9076,1.8497,1.8655,1.8196,1.753,1.7329,1.6363,1.5189,1.4673,1.3576,0.0,0.0,0.0,0.0,0.0,0.0,0.0,0.0,0.0,1.9858,2.0189,2.2354,2.3382,2.0739,2.2409,2.419,2.419,2.419,2.419,2.419,2.419,2.4266,2.4409,2.4303,2.419,2.419,2.4864,2.5303,2.5303,2.5303,2.5303,2.5303,2.5303,2.5303,2.5303,2.5303,2.5303,2.5303,2.5303,2.5303,2.5303,2.5303,2.5303,2.5303,2.5303,2.5303,2.5303,2.5303,2.5303,2.5303,2.5303,2.5303,2.5303,2.5303,2.5303,2.5303,2.5303,2.5303,2.5303,0.0,0.4949,0.4919,0.4919,0.5437,0.615,0.6977,0.7599,0.8125,0.8558,0.8773,0.8766,0.8479,0.8696,0.9109,0.9666,0.0,0.0,1.1642,1.3416,1.4565,1.4776,1.6324,1.7238,1.7368,1.7658,1.7811,1.7811,1.8454,1.9164,1.9883,2.0686,2.1448,2.2192,2.2276,2.231,2.231,2.231,2.2338,2.2332,2.2265,2.238,2.2451,2.0934,2.0276,2.0101,1.9536,1.8948,1.8528,1.925,1.9013,1.8308,1.7472,1.7112,1.6563,1.4232,0.0,1.3355,1.3281,1.3813,1.4804,1.6542,1.6725,1.7238,0.0,0.0,2.1931,2.3364,2.3933,2.408,2.3712,2.3951,2.419,2.419,2.419,2.419,2.419,2.419,2.4209,2.4228,2.4209,2.419,2.419,2.4864,2.5303,2.5303,2.5303,2.5303,2.5303,2.5303,2.5303,2.5303,2.5303,2.5303,2.5303,2.5303,2.5303,2.5303,2.5303,2.5303,2.5303,2.5303,2.5303,2.5303,2.5303,2.5303,2.5303,2.5303,2.5303,2.5303,2.5303,2.5303,2.5303,2.5303,2.5303,2.5303,0.0,0.4916,0.4874,0.4805,0.5461,0.6215,0.6882,0.7616,0.8229,0.8608,0.8736,0.8724,0.8592,0.87,0.8893,0.9134,0.9916,1.0542,1.0929,1.2593,1.3937,1.4665,1.5813,1.6709,1.728,1.7635,1.7811,1.7811,1.8538,1.9283,2.0018,2.0822,2.1583,2.231,2.231,2.231,2.231,2.231,2.231,2.231,2.231,2.2105,2.173,2.0773,1.9804,1.8937,1.8514,1.8309,0.0,0.0,1.7837,1.7547,1.7157,1.6719,1.6142,1.5051,1.5083,0.0,1.6595,1.7072,1.7509,0.0,1.9032,1.9693,2.0794,2.1675,2.2464,2.3125,2.3768,2.419,2.419,2.419,2.419,0.0,2.419,2.419,2.419,2.4572,2.4678,2.4247,2.4572,2.4836,2.4836,2.5107,2.5303,2.5303,2.5303,2.5303,2.5303,2.5303,2.5303,2.5303,2.5303,2.5303,2.5303,2.5303,2.5303,2.5303,2.5303,2.5303,2.5303,2.5303,2.5303,2.5399,2.7399,2.8264,2.8264,2.8264,2.8264,2.8264,2.8264,2.8264,2.8033,2.6033,2.5303,2.5303,0.0,0.488,0.4842,0.4749,0.5597,0.6436,0.6819,0.7768,0.8491,0.867,0.8705,0.8705,0.8705,0.8741,0.8712,0.8616,0.9417,1.003,1.0317,1.1713,1.3023,1.4137,1.5122,1.604,1.6872,1.7402,1.7704,1.7811,1.8538,1.9164,1.9697,2.05,2.1262,2.1989,2.1769,2.1904,2.2276,2.1854,2.1803,2.1989,2.1742,2.1363,2.078,1.9976,1.9068,1.8165,1.7824,1.756,0.0,0.0,1.656,1.6523,1.6303,1.6004,1.5729,1.5967,1.6757,1.7784,1.8702,0.0,0.0,1.9874,2.1013,2.1932,2.1602,2.2318,2.3033,2.3033,2.3657,2.419,2.419,2.419,2.419,2.419,2.419,2.419,2.419,2.4836,2.5096,2.4556,2.4968,2.5303,2.5303,2.5303,2.5303,2.5303,2.5303,2.5303,2.5303,2.5303,2.5303,2.5303,2.5303,2.5303,2.5303,2.5303,2.5303,2.5303,2.5303,2.5303,2.5303,2.5303,2.5803,2.6841,2.9321,3.0398,3.0398,3.0398,3.0398,3.0398,3.0398,3.0398,3.009,2.761,2.6706,2.6706,0.0,0.0,0.4793,0.4789,0.6061,0.7005,0.6837,0.8207,0.9132,0.8748,0.8705,0.8705,0.8705,0.8818,0.8766,0.8425,0.903,0.9562,0.9899,1.1122,1.2141,1.2824,1.4427,1.5465,1.5855,1.6799,1.7479,1.7811,1.8538,1.891,1.8944,1.9681,2.0467,2.1204,2.0433,2.0897,2.2209,2.0694,2.0517,2.1187,2.0373,2.0052,1.9866,1.8437,1.8005,1.8165,1.7824,0.0,0.0,0.0,1.5729,1.56,1.4829,1.5086,0.0,1.6633,1.7986,0.0,0.0,0.0,1.969,2.1325,2.2152,2.2832,2.3859,2.4116,2.4153,2.4153,2.4171,2.419,2.419,2.419,2.419,2.419,2.419,2.419,2.419,2.4836,2.5284,2.5264,2.5293,2.5303,0.0,2.5303,2.5303,2.5303,2.5303,2.5303,2.5303,2.5303,2.5303,2.5303,2.5303,2.5303,2.5303,2.5303,2.5303,2.5303,2.5303,2.5303,2.5303,2.5303,2.711,3.0244,3.034,3.0398,3.0398,3.0398,3.0398,3.0398,3.0398,3.0398,3.0379,3.0283,3.0244,3.0244,0.0,0.0,0.0,0.5543,0.6839,0.7841,0.7631,0.8484,0.9078,0.8858,0.884,0.0,0.0,0.0,0.0,0.0,0.8901,0.9219,0.9235,1.0602,1.1703,1.2372,1.359,1.4708,1.5727,1.6112,1.6684,1.7479,1.8211,1.8684,1.891,1.9647,2.0137,2.0399,2.012,2.0289,2.0728,2.0221,2.0154,2.0382,2.0103,1.9697,1.9215,1.8724,1.7386,1.5735,0.0,0.0,0.0,1.4114,1.4032,1.4162,1.4426,0.0,0.0,1.716,1.8463,1.9473,2.0317,0.0,2.1896,2.2464,2.3125,2.3749,2.4116,2.419,2.419,2.419,2.419,2.419,2.419,2.419,2.419,2.419,2.419,2.419,2.419,2.4836,2.5303,2.5303,2.5303,0.0,0.0,0.0,0.0,2.5303,2.5303,2.5303,2.5303,2.5303,2.5303,2.5303,2.5303,2.5303,2.5303,2.5303,2.5303,2.5303,2.5303,2.5303,2.5303,2.5303,2.5918,2.7129,2.9398,3.0398,3.0398,3.0398,3.0398,3.0398,3.0398,3.0398,3.0398,3.0398,3.0398,3.0398,0.0,0.0,0.0,0.0,0.0,0.0,0.0,0.0,0.0,0.0,0.0,0.0,0.0,0.0,0.0,0.0,0.0,0.0,0.8971,0.9861,1.0718,1.1508,1.2273,1.3162,1.4201,1.4435,1.5034,1.6059,1.6627,1.713,1.7574,1.8171,1.8566,1.8826,1.8532,1.8718,1.9174,1.8633,1.8589,1.8809,1.8515,1.7997,1.7304,1.7033,1.5595,0.0,0.0,0.0,0.0,1.269,1.2917,0.0,0.0,0.0,1.6518,1.8078,1.9308,2.0499,2.1859,2.2538,2.296,2.3327,2.3823,2.419,2.419,2.419,2.419,2.419,2.419,2.419,2.419,2.4426,2.4588,2.4588,2.4356,2.4303,2.4556,2.4993,2.5303,2.5303,2.5303,2.5303,0.0,0.0,0.0,2.5303,2.5303,2.5303,2.5303,2.5303,2.5303,2.5303,2.5303,2.5303,2.5303,2.5303,2.5303,2.5303,2.5303,2.5303,2.5303,2.5303,2.5303,2.5495,2.8917,3.0398,3.0398,3.0398,3.0398,3.0398,3.0398,3.0398,3.0398,3.0398,3.0398,3.0398,0.0,0.0,0.0,0.0,0.0,0.0,0.0,0.0,0.0,0.0,0.0,0.0,0.0,0.0,0.0,0.0,0.0,0.0,0.0,0.0,0.0,1.0335,1.0657,1.1047,1.1588,1.204,1.276,1.3747,1.4005,1.4483,1.5118,1.5378,1.5849,1.6495,1.5832,1.6323,1.7557,1.6187,1.5967,1.6529,1.5815,1.5105,1.4377,1.3684,0.0,0.0,0.0,0.0,0.0,0.0,0.0,0.0,0.0,0.0,0.0,1.9344,2.0554,2.2024,2.2795,2.285,2.2923,2.3951,2.419,2.419,2.419,2.4171,2.4153,2.419,2.4135,2.4098,0.0,0.0,2.5303,2.5303,2.4708,2.4493,2.5171,2.5293,2.5303,0.0,0.0,0.0,0.0,0.0,0.0,2.5303,0.0,2.5303,2.5303,2.5303,2.5303,2.5303,2.5303,2.5303,2.5303,2.5303,2.5303,2.5303,2.5303,2.5303,2.5303,2.5476,2.5553,2.5745,2.8994,3.0398,3.0398,3.0398,3.0398,3.0398,3.0398,3.0398,3.0398,3.0398,3.0398,3.0398,0.0,0.0,0.0,0.0,0.0,0.0,0.0,0.0,0.0,0.0,0.0,0.0,0.0,0.0,0.0,0.0,0.0,0.0,0.0,0.0,0.0,0.0,0.0,1.1058,1.1675,1.1637,1.2116,1.3143,1.32,1.3448,1.3867,1.392,1.4057,1.426,1.4614,1.5003,1.5339,1.5528,1.5392,1.5054,0.0,1.4344,1.3667,0.0,0.0,0.0,0.0,0.0,0.0,0.0,0.0,0.0,0.0,0.0,2.0189,0.0,0.0,2.274,2.2942,2.34,2.3859,2.4135,2.419,2.419,2.419,2.3749,2.3492,2.408,2.3235,2.2776,0.0,0.0,0.0,2.5303,2.5149,0.0,2.4942,2.5138,0.0,2.5303,0.0,2.5303,2.5303,2.5303,0.0,0.0,2.5303,2.5303,2.5303,2.5303,2.5303,2.5303,2.5303,2.5303,2.5303,2.5303,2.5303,2.5303,2.5303,2.5303,2.538,2.7937,2.9091,2.9148,3.0013,3.0398,3.0398,3.0398,3.0398,3.0398,3.0398,3.0398,3.0398,3.0398,3.0398,3.0398,0.0,0.0,0.0,0.0,0.0,0.0,0.0,0.0,0.0,0.0,0.0,0.0,0.0,0.0,0.0,0.0,0.0,0.0,0.0,0.0,0.0,0.0,0.9656,1.0018,1.0425,1.0326,1.0684,1.1547,0.0,0.0,1.2394,1.238,1.2428,1.2489,1.2853,1.3007,1.3058,1.3701,0.0,0.0,0.0,0.0,0.0,0.0,0.0,0.0,0.0,0.0,0.0,0.0,0.0,1.8128,1.8591,1.9721,2.0951,2.1457,0.0,2.3088,2.3437,2.3859,2.419,2.419,2.4284,2.4137,2.3327,2.2899,2.2558,2.2251,2.1089,0.0,2.0233,2.12,0.0,0.0,0.0,0.0,2.4967,2.5096,2.5203,0.0,2.5303,0.0,2.5303,2.5303,2.5303,0.0,2.5303,2.5303,2.5303,2.5303,2.5303,2.5303,2.5303,2.5303,2.5303,2.5303,2.5303,2.5303,2.5303,2.6091,2.7591,2.9533,3.0398,3.0398,3.0398,3.0398,3.0398,3.0398,3.0398,3.0398,3.0398,3.0398,3.0398,3.0398,3.0398,3.0398,0.0,0.0,0.0,0.0,0.0,0.0,0.0,0.0,0.0,0.0,0.0,0.0,0.0,0.0,0.0,0.0,0.0,0.0,0.0,0.0,0.0,0.0,0.8691,0.8716,0.8835,0.8857,0.914,0.0,0.0,0.0,0.0,0.0,0.0,0.0,0.0,0.0,0.0,0.0,0.0,0.0,0.0,0.0,0.0,0.0,0.0,0.0,0.0,0.0,0.0,0.0,1.687,1.8949,1.9984,2.0908,2.1799,2.2793,2.3125,2.3309,2.4006,2.419,2.419,2.419,2.4339,2.3999,2.2177,2.1589,2.0996,1.95,0.0,1.7286,1.553,1.6638,1.8734,2.1543,0.0,2.3713,2.511,2.5152,2.5099,2.5274,2.5303,2.5303,2.5303,2.5303,2.5303,2.5303,2.5303,2.5303,2.5303,2.5303,2.5303,2.5303,2.5303,2.5303,2.5303,2.5303,2.5303,2.5303,2.5303,2.6841,2.9744,3.0186,3.0398,3.0398,3.0398,3.0398,3.0398,3.0398,3.0398,3.0398,3.0398,3.0398,3.0398,3.0398,3.0398,3.0398,0.0,0.0,0.0,0.0,0.0,0.0,0.0,0.0,0.0,0.0,0.8891,0.8891,0.0,0.0,0.0,0.0,0.0,0.0,0.0,0.0,0.0,0.0,0.8951,0.9026,0.9057,0.0,0.0,0.0,0.0,0.0,0.0,0.0,0.0,0.0,0.0,0.0,0.0,0.0,0.0,0.0,0.0,0.0,0.0,0.0,0.0,0.0,0.0,0.0,0.0,0.0,1.7912,2.0291,2.1086,2.2225,2.3313,2.3521,2.3757,2.4025,2.4153,2.419,2.419,2.419,2.4228,2.3785,2.2031,1.9401,0.0,0.0,1.6923,1.6514,1.5395,1.6984,1.9215,2.162,0.0,0.0,0.0,0.0,2.5264,0.0,0.0,0.0,0.0,0.0,0.0,0.0,2.5303,2.5303,2.5303,2.5303,2.5303,2.5303,2.5303,2.5303,2.5303,2.5303,2.5303,2.5303,2.5303,2.561,2.6283,2.911,3.0398,3.0398,3.0398,0.0,3.0398,3.0398,3.0398,3.0398,3.0398,3.0398,3.0398,3.0398,3.0398,3.0398,0.0,0.0,0.0,0.0,0.0,0.0,0.0,0.0,0.8891,0.8891,0.8891,0.8891,0.8891,0.8852,0.0,0.0,0.0,0.0,0.0,0.0,0.0,0.0,0.0,0.9228,0.0,0.0,0.0,0.0,0.0,0.0,0.0,0.0,0.0,0.0,0.0,0.0,0.0,0.0,0.0,0.0,0.0,0.0,0.0,0.0,0.0,0.0,0.0,0.0,0.0,0.0,1.5837,1.9396,2.1077,2.2334,2.3236,2.3588,2.3816,2.3976,2.4151,2.419,2.419,2.419,2.386,2.318,2.1884,0.0,0.0,0.0,1.4813,1.4558,1.4524,0.0,0.0,0.0,0.0,0.0,0.0,0.0,0.0,0.0,0.0,0.0,0.0,0.0,2.5303,2.5303,2.5303,2.5303,2.5303,2.5303,2.5303,2.5303,2.5303,2.5303,2.5303,2.5303,2.5303,2.5303,2.5303,2.5303,2.5418,2.8841,3.0398,3.0398,3.0398,3.0398,3.0398,3.0398,3.0398,3.0398,3.0398,3.0398,3.0398,3.0398,2.9264,2.7764,0.0,0.0,0.0,0.0,0.0,0.0,0.0,0.8375,0.8835,0.8801,0.8824,0.8846,0.8846,0.888,0.8863,0.0,0.0,0.0,0.0,0.0,0.0,0.0,0.0,0.0,0.0,0.0,0.0,0.0,0.0,0.0,0.0,0.0,0.0,0.0,0.0,0.0,0.0,0.0,0.0,0.0,0.0,0.0,0.0,0.0,0.0,0.0,0.0,0.0,0.0,0.0,1.3041,1.6686,1.9441,2.1198,2.237,2.3151,2.3419,2.3578,2.4077,2.419,2.419,2.419,2.3533,2.2542,2.1183,1.8752,0.0,0.0,1.2961,1.2661,1.3483,0.0,1.5541,0.0,0.0,0.0,0.0,0.0,0.0,0.0,0.0,0.0,0.0,2.5303,0.0,2.5303,2.5303,2.5303,2.5303,2.5303,2.5303,2.5303,2.5303,2.5303,2.5303,2.5303,2.5303,2.5303,2.5303,2.5668,2.6476,2.9167,3.0398,3.0398,3.0398,2.9975,2.936,3.009,3.0398,3.0398,3.0398,3.0398,3.0398,3.0398,2.8687,2.6428,0.0,0.0,0.0,0.0,0.0,0.0,0.0,0.8243,0.8652,0.8463,0.8604,0.8717,0.8717,0.8829,0.8891,0.0,0.0,0.0,0.0,0.0,0.0,0.0,0.0,0.0,0.0,0.0,0.0,0.0,0.0,0.0,0.0,0.0,0.0,0.0,0.0,0.0,0.0,0.0,0.0,0.0,0.0,0.0,0.0,0.0,0.0,0.0,0.0,0.0,0.0,0.0,0.0,1.1671,1.5075,1.8246,2.09,2.1927,0.0,0.0,2.393,2.419,2.419,2.419,2.3507,2.2048,1.9161,0.0,0.0,1.2952,1.2123,1.1776,1.2656,1.2882,0.0,0.0,0.0,1.9004,0.0,0.0,0.0,0.0,0.0,0.0,0.0,2.5303,2.5303,2.5303,2.5303,2.5303,2.5303,2.5303,2.5303,2.5303,2.5303,2.5303,2.5303,2.5303,2.5303,2.5303,2.5303,2.6918,2.9936,3.0263,3.0398,3.0398,3.0398,2.8629,0.0,2.911,3.0398,3.0398,3.0398,3.0398,3.0398,3.0398,3.0186,2.9976,0.0,0.0,0.0,0.0,0.0,0.0,0.0,0.795,0.8632,0.8428,0.8479,0.8567,0.8693,0.8736,0.8818,0.0,0.0,0.0,0.0,0.0,0.0,0.0,0.0,0.0,0.0,0.0,0.0,0.0,0.0,0.0,0.0,0.0,0.0,0.0,0.0,0.0,0.0,0.0,0.0,0.0,0.0,0.0,0.0,0.0,0.0,0.0,0.0,0.0,0.0,0.0,0.0,0.0,1.294,1.4995,0.0,0.0,2.1198,2.2322,2.3797,2.419,2.419,2.419,2.3124,2.1414,1.8789,0.0,1.419,1.2958,1.1585,1.0872,1.1759,1.1924,1.2854,1.5734,1.5753,1.6612,2.0042,0.0,0.0,0.0,0.0,0.0,0.0,0.0,2.5303,2.5303,2.5303,2.5303,2.5303,2.5303,2.5303,2.5303,2.5303,2.5303,2.5303,2.5303,2.5303,2.5303,2.5303,2.6014,2.7399,2.9456,3.0398,3.0398,3.0398,2.9629,0.0,2.984,3.0398,3.0398,3.0398,2.9129,2.7572,2.9629,3.0537,3.0427,0.0,0.0,0.0,0.0,0.0,0.682,0.6572,0.7762,0.8632,0.8428,0.8454,0.8542,0.8681,0.8741,0.8794,0.8891,0.0,0.0,0.0,0.0,0.0,0.0,0.0,0.0,0.0,0.0,0.0,0.0,0.0,0.0,0.0,0.0,0.0,0.0,0.0,0.0,0.0,0.0,0.0,0.0,0.0,0.0,0.0,0.0,0.0,0.0,0.0,0.0,0.0,0.0,0.0,0.0,0.0,0.0,0.0,0.0,1.9708,2.1185,2.3186,2.3765,2.3859,2.3859,2.2765,2.113,0.0,1.6662,1.4673,1.304,1.132,1.0371,1.1262,1.1404,1.2156,1.444,1.4516,1.5401,1.8554,1.9215,0.0,0.0,0.0,2.4322,0.0,2.5149,2.5303,2.5303,2.5303,2.5303,2.5303,2.5303,2.5303,2.5303,2.5303,2.5303,2.5303,2.5303,2.5303,2.5303,2.5303,2.5303,2.538,2.7783,2.8879,2.8937,2.9956,2.9821,0.0,2.9975,2.9802,2.8879,2.8879,2.747,2.5834,2.9284,3.0701,3.0391,0.0,0.0,0.0,0.0,0.0,0.0,0.0,0.7794,0.8632,0.8428,0.8567,0.8693,0.8705,0.8818,0.8891,0.8891,0.0,0.0,0.0,0.0,0.0,0.0,0.0,0.0,0.0,0.0,0.0,0.0,0.0,0.0,0.0,0.0,0.0,0.0,0.0,0.0,0.0,0.0,0.0,0.0,0.0,0.0,0.0,0.0,0.0,0.0,0.0,0.0,0.0,0.0,0.0,0.0,0.0,0.0,0.0,0.0,1.7946,1.9287,2.1906,2.281,2.2997,2.2997,2.2493,2.1369,0.0,1.6687,1.4561,1.3026,1.131,1.0391,1.1324,1.1442,1.1945,1.3651,1.4632,1.6074,1.865,1.9746,0.0,0.0,0.0,2.411,2.411,2.4832,2.5303,2.5303,2.5303,0.0,2.5303,2.5303,2.5303,2.5303,2.5303,2.5303,2.5303,2.5303,2.5303,2.5303,2.5303,2.5303,2.5303,2.5341,2.5341,2.5534,2.8917,2.8475,0.0,2.8994,2.8398,2.5341,2.5341,2.5485,2.6113,2.9609,3.0898,3.0391,0.0,0.0,0.0,0.0,0.0,0.0,0.0,0.7324,0.8008,0.8364,0.8454,0.8542,0.8681,0.8784,0.8846,0.8891,0.0,0.0,0.0,0.0,0.0,0.0,0.0,0.0,0.0,0.0,0.0,0.0,0.0,0.0,0.0,0.0,0.0,0.0,0.0,0.0,0.0,0.0,0.0,0.0,0.0,0.0,0.0,0.0,0.0,0.0,0.0,0.0,0.0,0.0,0.0,0.0,0.0,0.0,0.0,0.0,0.0,0.0,1.8842,1.9722,2.0245,2.0415,1.9993,1.905,1.7142,1.5404,1.3717,1.207,1.0859,1.0194,1.0552,1.0564,1.144,1.4324,1.5016,0.0,0.0,0.0,0.0,0.0,0.0,2.4928,0.0,0.0,2.5303,2.5303,2.5303,2.5303,2.5303,2.5303,2.5303,2.5303,2.5303,2.5303,2.5303,2.5303,2.5303,2.5303,2.5303,2.5303,2.5303,2.5303,2.5303,2.536,2.6437,2.6303,2.538,2.6476,2.6283,2.5303,2.5303,2.5465,2.582,2.6934,2.7344,2.7187,0.0,0.0,0.0,0.0,0.0,0.0,0.0,0.6815,0.733,0.7704,0.8038,0.8293,0.842,0.8763,0.8998,0.8979,0.0,0.0,0.0,0.0,0.0,0.0,0.0,0.0,0.0,0.0,0.0,0.0,0.0,0.0,0.0,0.0,0.0,0.0,0.0,0.0,0.0,0.0,0.0,0.0,0.0,0.0,0.0,0.0,0.0,0.0,0.0,0.0,0.0,0.0,0.0,0.0,0.0,0.0,0.0,0.0,1.2733,0.0,0.0,1.7731,1.8268,1.873,1.8342,1.7411,1.5811,1.4269,1.2837,1.1556,1.063,1.0093,1.0171,1.0675,1.1772,1.3907,1.5061,0.0,0.0,0.0,0.0,0.0,0.0,0.0,0.0,2.5303,2.5303,2.5303,2.5303,2.5303,2.5303,2.5303,2.5303,2.5303,2.5303,2.5303,2.5303,2.5303,2.5303,2.5303,2.5303,2.5303,2.5303,2.5303,2.5303,2.5303,2.5303,2.5322,0.0,2.5322,2.5354,2.5453,2.5453,2.5551,2.5703,2.5703,2.5703,2.5703,0.0,0.0,0.0,0.0,0.0,0.0,0.0,0.0,0.0,0.669,0.7458,0.797,0.7918,0.8743,0.922,0.9039,0.0,0.0,0.0,0.0,0.0,0.0,0.0,0.0,0.0,0.0,0.0,0.9293,0.9337,0.9286,0.9165,0.0,0.0,0.0,0.0,0.0,0.0,0.0,0.0,0.0,0.0,0.0,0.0,0.0,0.0,0.0,0.0,0.0,0.0,0.0,0.0,0.0,0.0,0.0,0.0,0.0,0.0,0.0,0.0,0.0,0.0,0.0,1.7119,1.6189,1.4759,1.3226,0.0,1.1329,1.0555,1.0068,1.0313,1.1598,1.27,1.3007,1.5047,0.0,0.0,0.0,0.0,0.0,2.4187,0.0,2.5226,2.5303,2.5303,2.5303,2.5303,2.5303,2.5303,2.5303,2.5303,2.5303,2.5303,2.5303,2.5303,2.5303,2.5303,2.5303,2.5303,2.5303,2.5303,2.5303,2.5303,0.0,2.5303,2.539,2.5486,2.537,2.5471,2.5703,2.5703,2.5703,2.5703,2.5703,2.5703,2.5703,0.0,0.0,0.0,0.0,0.0,0.0,0.0,0.0,0.0,0.0,0.7405,0.7653,0.714,0.8409,0.9036,0.0,0.0,0.0,0.0,0.0,0.0,0.0,0.0,0.0,0.0,0.0,0.0,0.9139,0.9618,0.9828,0.9808,1.0369,0.0,0.0,0.0,0.0,0.0,0.0,0.0,0.0,0.0,0.0,0.0,0.0,0.0,0.0,0.0,0.899,0.0,0.0,0.0,0.0,0.0,0.0,0.0,0.0,1.0266,1.0586,1.2094,0.0,1.3439,1.3616,1.3486,1.3048,0.0,1.156,1.1072,0.0,0.0,0.0,1.1716,1.182,1.2757,0.0,0.0,0.0,0.0,0.0,0.0,2.487,2.5024,2.5101,2.5284,2.5303,2.5303,2.5303,2.5303,2.5303,2.5303,2.5303,2.5303,2.5303,2.5303,2.5303,2.5303,2.5303,2.5303,2.5303,2.5303,2.5303,2.5303,2.5303,2.5303,2.5303,2.5303,2.539,2.5505,2.5459,2.5551,2.5703,2.5703,2.5703,2.5703,2.5703,2.5703,2.5703,0.0,0.0,0.0,0.0,0.0,0.0,0.0,0.0,0.0,0.0,0.0,0.0,0.0,0.0,0.0,0.0,0.0,0.0,0.0,0.0,0.0,0.0,0.0,0.0,0.0,0.0,0.0,0.0,0.0,0.9675,0.0,0.0,0.0,0.0,0.0,0.0,0.0,0.0,0.0,0.0,0.0,0.0,0.0,0.0,0.0,0.0,0.8968,0.9068,0.0,0.9394,0.9568,0.9761,0.0,0.0,0.0,0.0,1.0052,1.0144,1.0584,1.1491,1.2422,1.2801,1.2582,1.2175,1.1703,0.0,0.0,0.0,0.0,0.0,0.0,0.0,0.0,0.0,1.7715,0.0,0.0,0.0,0.0,2.5116,2.5234,2.5303,0.0,2.5303,2.5303,2.5303,2.5303,2.5303,2.5303,2.5303,2.5303,2.5303,2.5303,2.5303,2.5303,2.5303,2.5303,2.5303,2.5303,2.5303,2.5303,2.5303,2.5303,2.5303,2.5303,2.539,2.5505,2.5505,2.557,2.5703,2.5703,2.5703,2.5703,2.5703,2.5703,2.5703,0.0,0.0,0.0,0.0,0.0,0.0,0.0,0.0,0.0,0.0,0.0,0.0,0.0,0.0,0.0,0.0,0.0,0.0,0.0,0.0,0.0,0.0,0.0,0.0,0.0,0.0,0.0,0.0,0.0,0.0,0.0,0.0,0.9641,0.0,0.0,0.0,0.0,0.0,0.0,0.0,0.0,0.0,0.0,0.0,0.0,0.0,0.0,0.0,0.0,0.9536,0.9729,0.9927,0.9977,0.0,0.0,0.0,0.0,0.0,1.0232,1.1416,1.2721,1.3165,1.2844,1.2402,1.2327,0.0,0.0,0.0,0.0,0.0,0.0,0.0,0.0,0.0,0.0,0.0,0.0,0.0,2.5203,2.5022,2.5173,0.0,2.5303,2.5303,2.5303,2.5303,2.5303,2.5303,2.5303,2.5303,2.5303,2.5303,2.5303,2.5303,2.5303,2.5303,2.5303,2.5303,2.5303,2.5303,2.5303,2.5303,2.5303,2.5303,2.5303,0.0,2.5505,2.5479,2.5558,2.5703,2.5703,2.5703,2.5703,2.5703,2.5703,2.5703,0.0,0.0,0.0,0.0,0.0,0.0,0.0,0.0,0.0,0.0,0.0,0.0,0.0,0.0,0.0,0.0,0.0,0.0,0.0,0.0,0.0,0.0,0.0,0.0,0.0,0.0,0.0,0.0,0.0,0.0,1.0944,1.1502,1.1265,0.0,0.0,0.0,0.0,0.0,0.0,0.0,0.0,0.0,0.0,0.0,0.0,0.0,0.0,0.0,0.0,0.9583,0.9775,0.9982,0.9992,0.0,0.0,0.0,0.0,0.0,1.0864,1.2328,1.3369,1.2059,1.2099,1.2465,1.2409,0.0,0.0,0.0,0.0,0.0,0.0,0.0,0.0,0.0,0.0,2.2248,0.0,0.0,2.5034,2.4991,0.0,2.5303,2.5303,2.5303,2.5303,2.5303,2.5303,2.5303,2.5303,2.5303,2.5303,2.5303,2.5303,2.5303,2.5303,2.5303,2.5303,2.5303,2.5303,2.5303,2.5303,2.5303,2.5303,2.5303,0.0,2.539,2.5486,2.5389,2.5482,2.5703,2.5703,2.5703,2.5703,2.5703,2.5703,2.5703,0.0,0.0,0.0,0.0,0.0,0.0,0.0,0.0,0.0,0.0,0.0,0.0,0.0,0.0,0.0,0.0,0.0,0.0,0.0,0.0,0.0,0.0,0.0,0.0,0.0,0.0,0.0,0.0,0.0,1.047,1.1536,1.1603,1.091,0.9569,0.0,0.0,0.0,0.0,0.0,0.0,0.0,0.0,0.0,0.0,0.0,0.0,0.0,0.0,0.0,0.0,0.9895,1.0001,1.0033,0.0,0.0,0.0,0.0,0.0,1.0507,1.1527,1.2528,1.2615,1.3577,1.4346,1.3779,0.0,0.0,0.0,0.0,0.0,0.0,0.0,0.0,0.0,0.0,2.321,2.4091,2.4764,2.5111,0.0,0.0,2.5303,2.5303,2.5303,2.5303,2.5303,2.5303,2.5303,2.5303,2.5303,2.5303,2.5303,2.5303,2.5303,2.5303,2.5303,2.5303,2.5303,2.5303,2.5303,2.5303,2.5303,2.5303,2.5303,0.0,2.5322,2.539,2.5322,2.5459,2.5703,2.5703,2.5703,2.5703,2.5703,2.5703,2.5683,0.0,0.0,0.0,0.0,0.0,0.0,0.0,0.0,0.0,0.0,0.0,0.0,0.0,0.0,0.0,0.0,0.0,0.0,0.0,0.0,0.0,0.0,0.0,0.0,0.0,0.0,0.9429,0.9893,0.9701,1.0318,1.1707,1.1654,1.067,0.0,0.0,0.0,0.0,0.0,0.0,0.0,0.0,0.0,0.0,0.0,0.0,0.0,0.0,0.0,0.0,0.0,0.0,0.0,0.0,0.0,0.0,1.0094,1.0094,1.0125,1.0287,1.0938,1.1912,1.3267,0.0,1.5588,1.555,0.0,0.0,0.0,0.0,0.0,0.0,0.0,0.0,2.3175,2.3682,2.3988,2.4695,2.5049,2.5163,2.5022,2.5173,2.5303,2.5303,2.5303,2.5303,2.5303,2.5303,2.5303,2.5303,2.5303,2.5303,2.5303,2.5303,2.5303,2.5303,2.5303,2.5303,2.5303,2.5303,2.5303,2.5303,2.5303,2.5303,2.5303,2.5303,2.5303,2.5293,2.5371,2.5503,2.5703,2.5703,2.5703,2.5703,2.5703,2.5703,2.566,0.0,0.0,0.0,0.0,0.0,0.0,0.0,0.0,0.0,0.0,0.0,0.0,0.0,0.0,0.0,0.0,0.0,0.0,0.0,0.0,0.0,0.0,0.0,0.0,0.0,0.9777,0.9749,0.8998,1.0791,1.1502,1.118,1.2583,1.1686,0.8925,0.0,0.0,0.0,0.0,0.0,0.0,0.0,0.0,0.0,0.0,0.0,0.0,0.0,0.0,0.0,0.0,0.0,0.0,0.0,0.0,1.0094,1.0094,1.0094,1.0242,1.086,1.1712,1.2553,1.3188,0.0,0.0,1.7391,1.7455,0.0,0.0,0.0,0.0,0.0,0.0,2.2221,2.4107,2.4418,2.4519,2.4756,0.0,2.5022,2.501,2.5173,2.5303,2.5303,2.5303,2.5303,2.5303,2.5303,2.5303,2.5303,2.5303,2.5303,2.5303,2.5303,2.5303,2.5303,2.5303,2.5303,2.5303,2.5303,2.5303,2.5303,2.5303,2.5303,2.5303,2.5303,2.5303,2.5322,2.5564,2.5683,2.5703,2.5703,2.5703,2.5703,2.5703,2.5703,2.566,0.0,0.0,0.0,0.0,0.0,0.0,0.0,0.0,0.0,0.0,0.0,0.0,0.0,0.0,0.0,0.0,0.0,0.0,0.0,0.0,0.0,0.0,0.0,0.9189,0.899,0.9242,0.9446,0.9591,1.0808,1.0825,0.975,1.0679,0.0,0.0,0.0,0.0,0.0,0.0,0.0,0.0,0.0,0.0,0.0,0.0,0.0,0.0,0.0,0.0,0.0,0.0,1.0078,1.0094,1.0094,1.0094,1.0094,1.0094,1.0094,1.0159,1.0412,1.1414,1.2538,1.3243,0.0,0.0,0.0,0.0,0.0,0.0,0.0,0.0,0.0,0.0,2.3128,2.4309,2.4663,2.4831,2.4898,2.5084,2.5192,2.5192,2.5253,2.5303,2.5303,2.5303,2.5303,2.5303,2.5303,2.5303,2.5303,2.5303,2.5303,2.5303,2.5303,2.5303,2.5303,2.5303,2.5303,2.5303,2.5303,2.5303,2.5303,2.5303,2.5322,2.537,2.5409,2.5428,2.5447,2.5615,2.5703,2.5703,2.5703,2.5703,2.5703,2.5703,2.5703,2.566,0.0,0.0,0.0,0.0,0.0,0.0,0.0,0.0,0.0,0.0,0.0,0.0,0.0,0.0,0.0,0.0,0.0,0.0,0.0,0.0,0.0,0.0,0.0,0.9266,0.8968,0.8968,0.9191,0.9658,1.0149,0.9988,0.9159,0.0,0.0,0.0,0.0,0.0,0.0,0.0,0.0,0.0,0.0,0.0,0.0,0.0,0.0,0.0,0.0,0.0,0.0,0.0,1.0094,1.0094,1.0094,1.0094,1.0094,1.0094,1.0286,1.0517,1.0481,1.1382,1.2576,0.0,0.0,0.0,0.0,0.0,0.0,0.0,0.0,0.0,0.0,0.0,0.0,0.0,2.4858,2.5022,2.5088,2.5214,2.5303,2.5303,2.5303,2.5303,2.5303,2.5303,2.5303,2.5303,2.5303,2.5303,2.5303,2.5303,2.5303,2.5303,2.5303,2.5303,2.5303,2.5303,2.5303,2.5303,2.5303,2.5303,2.5303,2.5303,2.5341,2.539,2.5473,2.5502,2.5505,2.5634,2.5703,2.5703,2.5703,2.5703,2.5703,2.5703,2.5703,2.566,0.0,0.0,0.0,0.0,0.0,0.0,0.0,0.0,0.0,0.0,0.0,0.0,0.0,0.0,0.0,0.0,0.0,0.0,0.0,0.0,0.0,0.0,0.0,0.9454,0.9099,0.9099,0.9043,0.8902,0.8902,0.9169,0.9698,0.9698,0.0,0.0,0.0,0.0,0.0,0.0,0.0,0.0,0.0,0.0,0.0,0.0,0.0,0.0,0.0,0.0,0.0,0.0,1.0094,1.0094,1.0094,1.0094,1.0094,1.0094,1.0714,1.1378,1.1325,1.1832,0.0,0.0,0.0,0.0,0.0,0.0,0.0,0.0,0.0,2.3327,2.4312,0.0,0.0,2.4828,2.501,2.5077,2.5274,2.5303,2.5303,2.5303,2.5303,2.5303,2.5303,2.5303,2.5303,2.5303,2.5303,2.5303,2.5303,2.5303,2.5303,2.5303,2.5303,2.5303,2.5303,2.5303,2.5303,2.5303,2.5303,2.5303,2.5303,2.5303,2.5341,2.5399,2.546,2.5499,2.5514,2.5654,2.5703,2.5703,2.5703,2.5703,2.5703,2.5703,2.5703,2.566,0.0,0.0,0.0,0.0,0.0,0.0,0.0,0.0,0.0,0.0,0.0,0.0,0.0,0.0,0.0,0.0,0.0,0.0,0.0,0.0,0.0,0.0,0.0,0.0,0.0,0.0,0.9169,0.9054,0.9179,0.9284,0.0,0.0,0.0,0.9698,0.0,0.0,0.0,0.0,0.0,0.0,0.0,0.0,0.0,0.0,0.0,0.0,0.0,0.0,0.0,0.0,0.0,0.0,1.0094,1.0094,1.0094,1.0094,1.0286,1.0613,1.1215,0.0,0.0,0.0,0.0,0.0,0.0,0.0,0.0,0.0,0.0,2.3971,2.4424,0.0,0.0,2.4936,2.5111,2.5224,2.5284,2.5303,2.5303,2.5303,2.5303,2.5303,2.5303,2.5303,2.5303,2.5303,2.5303,2.5303,2.5303,2.5303,2.5303,2.5303,2.5303,2.5303,2.5303,2.5303,2.5303,2.5303,2.5341,2.537,2.537,2.537,2.5428,2.5543,2.5569,2.5602,2.5632,2.5681,2.5703,2.5703,2.5703,2.5703,2.5703,2.5703,2.5703,2.566,0.0,0.0,0.0,0.0,0.0,0.0,0.0,0.0,0.0,0.0,0.0,0.0,0.0,0.0,0.0,0.0,0.0,0.0,0.0,0.0,0.0,0.0,0.0,0.0,0.0,0.9376,0.934,0.0,0.0,0.0,0.0,0.0,0.0,0.9698,0.0,0.9698,0.0,0.0,0.0,0.0,0.0,0.985,0.9949,0.0,0.0,0.0,0.0,0.0,0.0,0.0,0.0,0.0,1.0094,0.0,1.009,1.007,1.0536,1.1158,1.1654,0.0,0.0,0.0,0.0,0.0,0.0,0.0,0.0,0.0,0.0,2.4284,2.4578,2.4716,0.0,2.5077,2.5214,2.5303,2.5303,2.5303,2.5303,2.5303,2.5303,2.5303,2.5303,2.5303,2.5303,2.5303,2.5303,2.5303,2.5303,2.5303,2.5303,2.5303,2.5303,2.5303,2.5303,2.5303,2.5303,2.5341,2.539,2.5428,2.5486,2.5451,2.55,2.5592,2.5633,2.5668,2.5703,2.5703,2.5703,2.5703,2.5703,2.5703,2.5703,2.5703,2.5703,2.566,0.0,0.0,0.0,0.0,0.0,0.0,0.0,0.0,0.0,0.0,0.0,0.0,0.0,0.0,0.0,0.0,0.0,0.0,0.0,0.0,0.0,0.0,0.0,0.0,0.0,0.0,0.0,0.0,0.0,0.0,0.0,0.0,0.9698,0.9698,0.0,0.9706,0.0,0.0,0.0,0.0,0.9818,0.9893,1.003,1.0091,0.0,0.0,0.0,0.0,0.0,0.0,0.0,0.0,1.0094,1.0094,1.0086,1.0011,1.1087,1.23,1.2385,0.0,0.0,0.0,0.0,0.0,0.0,0.0,0.0,0.0,0.0,2.4339,2.4731,2.4818,2.4923,2.5243,2.5303,2.5303,2.5303,2.5303,2.5303,2.5303,2.5303,2.5303,2.5303,2.5303,2.5303,2.5303,2.5303,2.5303,2.5303,2.5303,2.5303,2.5303,2.5303,2.5303,2.5303,2.5303,2.5341,2.5409,2.5409,2.5486,2.5592,2.5544,2.5544,2.5616,2.5676,2.5703,2.5703,2.5703,2.5703,2.5703,2.5703,2.5703,2.5703,2.5703,2.5703,2.566,0.0,0.0,0.0,0.0,0.0,0.0,0.0,0.0,0.0,0.0,0.0,0.0,0.0,0.0,0.0,0.0,0.0,0.0,0.0,0.0,0.0,0.0,0.0,0.0,0.0,0.0,0.0,0.0,0.0,0.0,0.0,0.0,0.0,0.9698,0.0,0.9725,0.0,0.0,0.0,0.9875,0.9944,1.0014,1.0086,1.0148,1.0175,0.0,0.0,0.0,0.0,0.0,0.0,0.0,1.0094,1.0094,1.0086,1.0011,1.0259,1.0809,0.0,1.3138,0.0,0.0,0.0,0.0,0.0,0.0,0.0,2.419,2.4339,2.4512,2.476,2.4877,2.503,2.5264,2.5303,2.5303,2.5303,2.5303,2.5303,2.5303,2.5303,2.5303,2.5303,2.5303,2.5303,2.5303,2.5303,2.5303,2.5303,2.5303,2.5303,2.5303,2.5303,2.5303,2.5303,2.5341,2.539,2.5409,2.5505,2.5563,2.5601,2.5581,2.5615,2.5685,2.5682,2.5703,2.5703,2.5703,2.5703,2.5703,2.5703,2.5703,2.5703,2.5703,2.5703,2.566,0.0,0.0,0.0,0.0,0.0,0.0,0.0,0.0,0.0,0.0,0.0,0.0,0.0,0.0,0.0,0.0,0.0,0.0,0.0,0.0,0.786,0.8572,0.0,0.0,0.0,0.0,0.0,0.0,0.0,0.0,0.0,0.0,0.0,0.9698,0.0,0.9732,0.0,0.0,0.0,0.9995,1.0038,1.0092,1.0158,1.0197,1.0196,1.0197,1.0198,0.0,0.0,0.0,0.0,0.0,0.0,0.0,1.0078,0.9991,1.022,1.0772,0.0,0.0,0.0,0.0,0.0,0.0,0.0,0.0,0.0,2.4303,2.4428,2.4559,2.476,2.4917,2.5077,2.5264,2.5303,2.5303,2.5303,2.5303,2.5303,2.5303,2.5303,2.5303,2.5303,2.5303,2.5303,2.5303,2.5303,2.5303,2.5303,2.5303,2.5303,2.5303,2.5303,2.5322,2.5341,2.539,2.5428,2.5505,2.5563,2.563,2.5654,2.5654,2.5678,2.5703,2.5703,2.5703,2.5703,2.5703,2.5703,2.5703,2.5703,2.5703,2.5703,2.5703,2.5629,2.5493,0.0,0.0,0.0,0.0,0.0,0.0,0.0,0.0,0.0,0.0,0.0,0.0,0.0,0.0,0.0,0.0,0.0,0.0,0.0,0.665,0.8211,0.961,0.0,0.0,0.0,0.0,0.0,0.0,0.0,0.0,0.0,0.0,0.0,0.9698,0.0,0.0,0.0,0.0,0.0,1.0115,1.0115,1.0158,1.0194,1.0194,1.0208,1.0205,1.0194,1.0156,1.0094,1.0094,0.0,0.0,0.0,0.0,1.0074,0.9955,1.0389,1.1044,0.0,0.0,0.0,0.0,0.0,0.0,0.0,0.0,2.4137,2.4442,2.4528,2.4607,2.4799,2.4956,2.5099,2.5274,2.5303,2.5303,2.5303,2.5303,2.5303,2.5303,2.5303,2.5303,2.5303,2.5303,2.5303,2.5303,2.5303,2.5303,2.5303,2.5303,2.5303,2.5322,2.5322,2.5341,2.5428,2.5428,2.5486,2.5601,2.5608,2.5648,2.5703,2.5703,2.5703,2.5703,2.5703,2.5703,2.5703,2.5703,2.5703,2.5703,2.5703,2.5703,2.5703,2.5703,2.5535,2.5303,0.0,0.0,0.0,0.0,0.0,0.0,0.0,0.0,0.0,0.0,0.0,0.5097,0.5097,0.5097,0.0,0.0,0.0,0.0,0.5097,0.0,0.0,0.0,0.0,0.0,0.0,0.0,0.0,0.0,0.0,0.0,0.0,0.0,0.0,0.9706,0.0,0.0,0.0,0.0,0.0,1.0197,1.0197,1.0186,1.0194,1.0194,1.0198,1.0206,1.0198,1.0156,1.0094,1.0094,1.0094,0.0,0.0,0.0,1.0082,1.0001,1.0025,1.0226,0.0,0.0,0.0,0.0,0.0,0.0,0.0,0.0,2.3624,0.0,2.4639,2.4799,2.4949,2.513,2.5264,2.5303,2.5303,2.5303,2.5303,2.5303,2.5303,2.5303,2.5303,2.5303,2.5303,2.5303,2.5303,2.5303,2.5303,2.5303,2.5303,2.5303,2.5322,2.539,2.539,2.5428,2.5486,2.5543,2.5582,2.5611,2.5656,2.5681,2.5703,2.5703,2.5703,2.5703,2.5703,2.5703,2.5703,2.5703,2.5703,2.5703,2.5703,2.5703,2.5703,2.5703,2.5535,2.5303,0.0,0.0,0.0,0.0,0.0,0.0,0.0,0.0,0.0,0.0,0.0,0.5097,0.5097,0.5097,0.0,0.0,0.0,0.0,0.5751,0.6439,0.0,0.0,0.0,0.0,0.0,0.0,0.0,0.0,0.0,0.0,0.0,1.1544,1.1746,0.0,0.0,0.0,0.0,0.0,0.0,1.0198,1.0193,1.0215,1.0263,1.0263,1.0263,1.0256,1.0173,1.0133,1.0094,1.0094,1.0094,1.0094,1.0094,0.0,0.0,0.0,0.0,0.0,1.1997,0.0,0.0,0.0,0.0,0.0,0.0,0.0,2.2816,2.3285,2.3833,2.4398,2.4922,2.5163,2.5303,2.5303,2.5303,2.5303,2.5303,2.5303,2.5303,2.5303,2.5303,2.5303,2.5303,2.5303,2.5303,2.5303,2.5303,2.5303,2.5303,2.5341,2.537,2.5409,2.5437,2.5484,2.5563,2.5582,2.5619,2.5667,2.5696,2.5703,2.5703,2.5703,2.5703,2.5703,2.5703,2.5703,2.5703,2.5703,2.5703,2.5703,2.5703,2.5703,2.5703,2.5703,2.5535,2.5303,0.0,0.0,0.0,0.0,0.0,0.0,0.0,0.0,0.0,0.0,0.0,0.0,0.5405,0.0,0.0,0.0,0.0,0.0,0.5965,0.0,0.0,0.0,0.0,0.0,0.0,0.0,0.0,0.0,0.0,0.0,0.9753,1.2572,1.3104,0.0,1.1404,0.0,0.0,0.0,0.0,0.0,0.0,0.0,1.0293,1.0293,1.0293,1.0292,1.0183,0.0,0.0,0.0,0.0,0.0,0.0,0.0,0.0,0.0,0.0,0.0,0.0,0.0,0.0,0.0,0.0,0.0,0.0,0.0,2.1802,0.0,2.3056,2.3739,2.4331,2.4915,2.5303,2.5303,2.5303,2.5303,2.5303,2.5303,2.5303,2.5303,2.5303,2.5303,2.5303,2.5303,2.5303,2.5303,2.5303,2.5303,2.5322,2.537,2.5428,2.5447,2.5503,2.5551,2.5619,2.5619,2.5644,2.5703,2.5703,2.5703,2.5703,2.5703,2.5703,2.5703,2.5703,2.5703,2.5703,2.5703,2.5703,2.5703,2.5703,2.566,2.5601,2.5601,2.5477,2.5303,0.0,0.0,0.0,0.0,0.0,0.0,0.0,0.0,0.0,0.0,0.0,0.0,0.0,0.0,0.0,0.0,0.0,0.0,0.0,0.0,0.0,0.0,0.0,0.0,0.0,0.0,0.0,0.0,0.0,0.0,0.9735,1.1434,1.2444,1.2802,1.2464,1.1904,1.12,0.0,0.0,0.0,0.0,0.0,1.0293,1.0293,1.0293,1.0293,0.0,0.0,0.0,0.0,0.0,0.0,0.0,1.0194,1.0194,0.0,0.0,0.0,0.0,0.0,0.0,0.0,0.0,0.0,0.0,0.0,0.0,2.2174,2.269,2.2861,2.2899,2.4226,2.5303,2.5303,2.5303,2.5303,2.5303,2.5303,2.5303,2.5303,2.5303,2.5303,2.5303,2.5303,2.5303,2.5303,2.5303,2.5322,2.539,2.5409,2.5466,2.5582,2.5601,2.5622,2.5682,2.5683,2.5703,2.5703,2.5703,2.5703,2.5703,2.5703,2.5703,2.5703,2.5703,2.5703,2.5703,2.5703,2.5703,2.5703,2.5703,2.5547,2.5322,2.5322,2.5313,2.5303,0.0,0.0,0.0,0.0,0.0,0.0,0.0,0.0,0.0,0.0,0.0,0.0,0.0,0.0,0.0,0.0,0.0,0.0,0.0,0.0,0.0,0.0,0.0,0.0,0.0,0.0,0.0,0.0,0.0,0.9698,0.9735,1.1002,1.1324,1.0855,1.1272,1.161,1.1845,1.0859,0.0,0.0,0.0,0.0,0.0,1.1973,1.2637,1.3477,0.0,0.0,0.0,0.0,0.0,0.0,1.02,1.02,1.0191,1.0194,0.0,0.0,0.0,0.0,0.0,0.0,0.0,0.0,0.0,1.8518,1.9526,2.0131,2.1163,2.1966,2.1966,2.2908,2.387,2.4428,2.4524,2.4716,2.5226,2.5303,2.5303,2.5303,2.5303,2.5303,2.5303,2.5303,2.5303,2.5303,2.5341,2.537,2.5409,2.5486,2.5543,2.5601,2.5646,2.5681,2.5703,2.5703,2.5703,2.5703,2.5703,2.5703,2.5703,2.5663,2.5641,2.5628,2.5631,2.5664,2.5703,2.5703,2.5703,2.5683,2.5517,2.5376,2.5303,2.5303,2.5303,2.5303,0.0,0.0,0.0,0.0,0.0,0.0,0.0,0.0,0.0,0.0,0.0,0.0,0.0,0.0,0.0,0.0,0.0,0.0,0.0,0.0,0.0,0.0,0.0,0.0,0.0,0.0,0.0,0.0,0.0,0.0,0.0,0.9824,1.0037,0.9721,1.0268,1.1037,0.0,0.0,0.0,1.0742,0.0,0.0,1.2148,0.0,1.4434,1.5293,0.0,0.0,0.0,0.0,0.0,0.0,0.0,1.0217,1.0193,1.0198,1.0206,0.0,1.0829,0.0,0.0,0.0,0.0,1.434,1.6042,0.0,1.7972,1.8819,1.9888,2.0754,2.1043,2.1562,2.2331,2.3475,2.3918,2.4302,2.4812,2.5139,2.5303,2.5303,2.5303,2.5303,2.5303,2.5303,2.5303,2.5303,2.537,0.0,2.5429,2.5533,2.5599,2.5622,2.5681,2.5703,2.5703,2.5703,2.5703,2.5703,2.5703,2.5703,2.5703,2.5647,2.562,2.5621,2.5634,2.5666,2.5703,2.5703,2.5703,2.5662,2.5406,2.5303,2.5303,2.5303,2.5303,2.5303,0.0,0.0,0.0,0.0,0.0,0.0,0.0,0.0,0.0,0.0,0.0,0.0,0.0,0.0,0.0,0.0,0.0,0.0,0.0,0.0,0.0,0.0,0.0,0.0,0.0,0.0,0.0,0.0,0.0,0.0,0.0,0.0,0.863,0.9636,0.9647,1.0201,1.1125,0.0,1.1479,1.1752,0.0,1.0293,1.0664,0.0,0.0,0.0,1.5366,1.5349,0.0,1.2773,0.0,0.0,0.0,1.0273,1.0195,1.0195,1.0201,0.0,0.0,0.0,0.0,0.0,0.0,0.0,1.5415,0.0,1.5868,1.8376,1.8907,1.9208,2.01,2.0254,2.0792,2.2466,2.3456,2.4033,2.4052,2.4736,2.5226,2.5226,2.5245,2.5264,2.5264,2.5284,2.5303,2.5303,2.537,2.5432,2.5498,2.5569,2.5622,2.5703,2.5703,2.5703,2.5703,2.5703,2.5703,2.5703,2.5703,2.5703,2.5703,2.5699,2.5698,2.5707,2.5688,2.5686,2.5683,2.5703,2.5703,2.566,2.5406,2.5303,2.5303,2.5303,2.5303,2.5303,0.0,0.0,0.0,0.0,0.0,0.0,0.9502,0.8466,0.7918,0.0,0.0,0.0,0.0,0.0,0.0,0.0,0.0,0.0,0.6292,0.554,0.5097,0.5097,0.5869,0.0,0.0,0.0,0.0,0.0,0.0,0.0,0.0,0.0,0.0,0.0,0.839,0.8747,0.9157,0.9903,0.0,0.0,1.0286,1.0212,0.0,0.0,0.0,0.0,0.0,1.5303,1.5229,0.0,1.3649,1.2578,0.0,0.0,0.0,1.0215,1.0192,1.0196,1.0183,0.0,0.0,0.0,0.0,0.0,0.0,0.0,1.4632,1.5984,1.6753,1.7638,1.9088,1.9357,1.9715,2.0812,2.1677,2.2447,2.3062,2.3351,2.3495,2.3486,2.4053,2.4428,2.4428,2.4966,2.5322,0.0,2.5428,2.5495,2.5567,2.5649,2.5689,2.5703,2.5703,2.5703,2.5703,2.5703,2.5703,2.5703,2.5703,2.5703,2.5703,2.565,2.5629,2.562,2.5466,2.5406,2.5441,2.5629,2.5593,2.5406,2.5321,2.5303,2.5303,2.5303,2.5303,2.5303,0.0,0.0,0.0,0.0,0.0,1.0017,1.0133,0.9353,0.8854,0.0,0.0,0.0,0.0,0.0,0.0,0.0,0.0,0.0,0.6869,0.6061,0.5621,0.5631,0.6094,0.6395,0.0,0.0,0.0,0.0,0.0,0.0,0.0,0.0,0.0,0.0,0.7392,0.8232,0.9004,0.0,0.0,0.0,1.0113,0.0,0.0,1.3937,1.6439,0.0,0.0,0.0,1.7176,1.5734,1.4886,0.0,0.0,1.1504,1.123,1.0469,1.0482,0.0,0.0,0.0,0.0,0.0,0.0,0.0,1.1853,1.2425,0.0,0.0,1.5599,1.6465,1.8145,1.8453,1.8742,1.9619,2.0158,2.0889,2.2081,2.2562,2.2793,2.2794,2.3254,2.3571,2.3592,2.4024,2.4322,2.4399,2.4457,2.4664,2.5071,2.5471,2.5703,2.5703,2.5703,2.5703,2.5703,2.5703,2.5703,2.5703,2.5703,2.5694,2.5656,2.5658,2.5613,2.5543,2.5486,2.5409,2.5313,2.5471,2.5441,2.5303,2.5303,2.5303,2.5303,2.5303,2.5303,2.5303,0.0,0.0,1.0094,1.0094,1.0094,1.0094,1.0094,1.0156,1.0194,0.0,0.0,0.0,0.0,0.0,0.0,0.0,0.0,0.0,0.7796,0.6932,0.6482,0.6539,0.6603,0.6748,0.6987,0.7119,0.0,0.0,0.0,0.0,0.0,0.0,0.0,0.0,0.6539,0.7975,0.939,0.0,0.0,1.0094,1.0094,1.0325,0.0,0.0,1.5766,1.6151,1.9215,2.0312,1.9858,1.6681,1.5607,0.0,0.0,1.248,1.2715,1.1074,1.1097,0.0,1.1644,1.1606,0.0,0.0,1.2103,0.0,1.2315,1.1968,1.2156,0.0,1.4791,1.5285,1.6965,1.735,1.7722,1.8588,1.8888,1.9554,2.1139,2.2023,2.2524,2.2524,2.2609,2.2686,2.2747,2.2849,2.2936,2.3007,2.3083,2.3443,2.4218,2.5078,2.5566,2.5566,2.5644,2.5703,2.5703,2.5703,2.5703,2.5703,2.5703,2.5655,2.5601,2.5644,2.5609,2.5505,2.5601,2.5524,2.5303,2.5303,2.5303,2.5303,2.5303,2.5303,2.5303,2.5303,2.5303,2.5303,0.0,0.0,1.0094,1.0094,1.0094,1.0094,1.0094,1.0113,1.0113,0.0,0.0,0.0,0.0,0.0,0.0,0.0,0.0,0.0,0.0,0.7889,0.7442,0.7446,0.7865,0.8109,0.8164,0.9063,0.0,0.0,0.0,0.0,0.0,0.0,0.0,0.0,0.5421,0.5737,0.6215,0.0,0.0,1.0094,1.0094,0.0,1.4574,1.7997,1.9311,1.9388,2.0062,2.0408,2.0299,1.871,1.7556,1.6523,0.0,1.4297,1.3672,1.2676,1.2462,1.2558,1.2555,1.2507,1.2329,1.1791,0.0,0.0,1.1098,1.1603,1.2396,0.0,1.2142,1.2646,1.4324,1.5209,1.5965,1.6849,1.8126,1.935,2.0389,2.0677,2.0792,2.0792,2.14,2.1842,2.1853,2.2539,2.3017,2.3084,2.3091,2.3176,2.334,2.418,2.4648,2.4648,2.5332,2.5703,2.5703,2.5703,2.5703,2.5703,2.5703,2.5655,2.5611,2.5567,2.552,2.5505,2.5409,2.5341,2.5303,2.5303,2.5303,2.5303,2.5303,2.5303,2.5303,2.5303,2.5303,2.5303,0.0,1.0094,1.0094,1.0094,1.0094,1.0094,1.0094,1.0094,1.0094,0.0,0.0,0.0,0.0,0.0,0.0,0.0,0.0,0.0,0.0,0.852,0.8312,0.835,0.8444,0.8774,0.9392,0.9954,1.0195,0.0,0.0,0.0,0.0,0.0,0.0,0.0,0.0,0.0,0.0,0.0,1.0094,1.0094,1.0094,0.0,1.792,1.9658,2.0312,2.0315,2.0405,2.0508,2.0328,1.8589,1.8008,0.0,1.5957,1.5703,1.5703,0.0,1.3755,1.3951,1.3527,1.3352,1.3295,1.3305,0.0,0.0,0.0,1.2092,1.2338,1.3164,1.2339,1.2091,1.4209,1.4599,1.4885,1.5753,1.6978,1.7972,1.8394,1.9177,1.9854,2.0312,2.0353,2.0537,2.1015,2.148,2.1784,2.1852,2.2268,2.25,2.25,2.332,2.3984,2.4394,2.4824,2.5254,2.5703,2.5703,2.5703,2.5703,2.5703,2.5657,2.5561,2.5523,2.5466,2.5409,2.5322,2.5303,2.5303,2.5303,2.5303,2.5303,2.5303,2.5303,2.5303,2.5303,2.5303,2.5303,0.0,0.0,1.0094,1.0094,1.0094,1.0094,1.0094,1.0094,0.0,0.0,0.0,0.0,0.0,0.0,0.0,0.0,0.0,0.0,0.0,0.0,0.9171,0.9249,0.8994,0.9303,1.0273,1.0293,1.0243,1.0132,0.0,0.0,0.0,0.5097,0.5097,0.5251,0.0,0.0,0.0,0.0,0.0,1.0094,0.0,1.419,2.0312,2.0312,2.0312,2.0325,2.0529,2.0605,2.0312,1.8418,1.8418,1.8867,1.6797,1.7129,0.0,0.0,0.0,0.0,0.0,1.4697,1.4734,0.0,0.0,1.4566,0.0,0.0,0.0,1.4464,1.3179,0.0,0.0,0.0,0.0,0.0,0.0,0.0,0.0,1.7436,0.0,1.9572,1.92,1.9235,2.0169,2.0101,2.0182,2.0566,2.0937,2.1309,2.1621,2.248,2.332,2.4141,2.4316,2.4824,2.5684,2.5703,2.5703,2.5703,2.5703,2.5637,2.5539,2.5522,2.5428,2.5303,2.5303,2.5303,2.5303,2.5303,2.5303,2.5303,2.5303,2.5303,2.5303,2.5303,2.5303,2.5303,1.0175,1.0133,0.0,1.0094,1.0094,1.0094,1.0094,1.0094,0.0,0.0,0.0,0.0,0.0,0.0,0.0,0.0,0.0,0.0,1.004,0.0,0.0,1.0156,1.0117,1.0156,1.0293,1.0293,1.0293,1.0271,0.0,0.0,0.0,0.5097,0.5097,0.5251,0.8594,0.0,0.0,0.0,1.0094,0.0,1.0094,1.419,0.0,2.0312,2.0312,2.0325,2.0529,2.0605,2.0566,0.0,2.0293,2.0234,0.0,1.8984,1.8945,1.7871,0.0,0.0,0.0,0.0,0.0,0.0,1.6337,0.0,0.0,0.0,1.4523,1.3334,0.0,0.0,0.0,0.0,0.0,0.0,0.0,0.0,1.448,1.52,1.611,1.6938,1.7626,1.8378,1.9254,1.8694,1.8924,2.0488,1.9258,1.9121,2.0664,2.1562,2.2441,2.3301,2.4023,2.4824,2.5684,2.5703,2.5703,2.5703,2.5703,2.5683,2.5662,2.5543,2.5428,2.5303,2.5303,2.5303,2.5303,2.5303,2.5303,2.5303,2.5303,2.5303,2.5303,2.5303,2.5303,2.5303,1.0194,1.018,0.0,0.0,1.0094,1.0094,1.0094,1.0094,1.0613,0.0,0.0,0.0,0.0,0.0,0.0,0.0,0.0,1.2231,0.0,0.0,0.0,1.0293,1.0293,1.0293,1.0293,1.0293,1.0293,1.0293,0.6812,0.0,0.0,0.0,0.6136,0.8056,0.9479,0.0,1.2151,0.0,1.0094,0.0,0.0,0.0,0.0,1.5882,1.6919,2.048,2.0563,2.0605,2.0508,0.0,2.0059,0.0,0.0,0.0,0.0,1.9004,0.0,0.0,0.0,0.0,0.0,0.0,0.0,0.0,1.5319,0.0,1.4694,0.0,0.0,0.0,0.0,0.0,0.0,0.0,1.3446,0.0,0.0,0.0,1.4437,0.0,0.0,0.0,1.7612,1.7431,1.7754,1.9004,1.8418,1.8535,1.9785,2.0664,2.1758,2.3105,2.3477,2.4316,2.5684,2.5703,2.5703,2.5703,2.566,2.5648,2.5644,2.5531,2.5428,2.5303,2.5303,2.5303,2.5303,2.5303,2.5303,2.5303,2.5303,2.5303,2.5303,2.5303,2.5303,2.5303,1.0194,0.0,0.0,0.0,1.0113,1.0094,1.0094,1.0094,1.0767,1.2651,0.0,0.0,1.5189,1.6035,0.0,0.0,1.6601,1.5149,0.0,0.0,1.0287,1.0293,1.0293,1.0293,1.0293,1.0293,1.0293,1.0293,0.7773,0.6035,0.0,0.0,0.6891,1.0094,1.0094,1.0613,1.144,0.0,1.0633,1.1844,1.5882,1.8657,1.9838,1.4861,1.6153,2.0605,2.0605,2.0605,2.0469,1.9648,1.9922,0.0,1.9629,1.9922,2.0488,0.0,0.0,0.0,1.8789,0.0,0.0,0.0,0.0,0.0,0.0,0.0,0.0,0.0,0.0,0.0,0.0,0.0,0.0,0.0,0.0,1.2496,0.0,1.1944,0.0,0.0,0.0,0.0,0.0,1.5777,1.6189,1.7516,1.7187,1.7617,1.9199,1.9883,2.1016,2.2715,2.2988,2.3828,2.5332,2.5586,2.5703,2.5703,2.5641,2.5561,2.5515,2.5461,2.539,2.5303,2.5303,2.5303,2.5303,2.5303,2.5303,2.5303,2.5303,2.5303,2.5303,2.5303,2.5303,2.5303,1.0194,1.0198,0.0,0.0,0.0,1.0094,1.0094,1.0094,1.2478,1.9119,0.0,0.0,0.0,0.0,0.0,0.0,0.0,1.8696,1.5266,0.0,1.0222,1.0293,1.0293,1.0293,0.0,1.0293,1.0293,1.0293,1.0195,0.8398,0.0,0.0,0.0,1.0094,1.0094,1.194,1.4824,1.1498,1.2017,1.4766,1.1671,1.4503,2.0569,0.0,2.0391,2.0605,2.0605,0.0,0.0,2.0566,2.0566,0.0,0.0,0.0,0.0,0.0,0.0,0.0,0.0,0.0,0.0,1.8313,0.0,0.0,0.0,0.0,1.6387,0.0,0.0,0.0,0.0,0.0,0.0,0.0,0.0,0.0,0.0,0.0,0.0,0.0,0.0,0.0,0.0,1.3423,1.397,0.0,1.5149,1.5684,1.9023,1.9297,2.0137,2.1875,2.2695,2.3535,2.4434,2.5273,2.5703,2.5703,2.5641,2.5495,2.5313,2.5313,2.5303,2.5303,2.5303,2.5303,2.5303,2.5303,2.5303,2.5303,2.5303,2.5303,2.5303,2.5303,2.5303,2.5303,0.0,0.0,0.0,0.0,0.0,1.0094,1.0094,1.2017,1.4305,0.0,0.0,0.0,0.0,1.8246,2.0312,0.0,0.0,1.9812,1.8657,1.5407,0.0,1.028,1.2414,1.2617,0.0,1.0293,1.0293,1.0293,1.0293,0.9687,0.0,0.0,0.0,0.0,1.0094,1.1998,0.0,0.0,0.0,0.0,0.0,1.8474,2.0594,0.0,2.0605,2.0605,2.0605,2.0605,0.0,2.0605,2.0605,2.0605,2.0605,2.0605,2.0583,2.0554,2.0526,2.0527,0.0,0.0,2.015,1.8984,0.0,0.0,0.0,0.0,0.0,0.0,0.0,0.0,0.0,0.0,0.0,0.0,0.0,0.0,0.0,0.0,0.0,0.0,0.0,0.0,0.0,0.0,0.0,1.4725,1.4357,0.0,1.7422,1.8613,1.9785,2.0996,2.2383,2.3516,2.4394,2.5254,2.5703,2.5703,2.5585,2.5499,2.5428,2.5341,2.5303,2.5303,2.5303,2.5303,2.5303,2.5303,2.5303,2.5303,2.5303,2.5303,2.5303,2.5303,2.5303,2.5303,1.0233,0.0,0.0,0.0,0.0,1.0576,1.1742,1.3786,0.0,0.0,1.6266,0.0,1.7016,0.0,2.0312,0.0,2.0312,2.0312,2.0312,1.8234,0.0,1.2055,1.5332,0.0,0.0,1.0918,1.0293,1.0293,1.0293,1.0293,1.0293,0.0,0.0,0.0,0.0,1.321,1.5445,1.8255,1.9825,0.0,0.0,2.0597,0.0,0.0,2.0605,2.0605,0.0,2.0579,2.0533,2.0584,2.0605,2.0605,2.0605,2.0605,2.058,2.0463,2.0738,2.1054,2.1024,2.1158,0.0,2.0247,1.9627,0.0,1.7372,0.0,1.7266,0.0,0.0,0.0,0.0,0.0,0.0,0.0,0.0,0.0,0.0,1.0517,0.0,0.0,0.0,0.0,0.0,0.0,1.1832,1.3817,1.3704,0.0,0.0,1.7985,1.918,2.0117,2.2051,2.3379,2.3965,2.5117,2.5697,2.5652,2.5546,2.5506,2.5505,2.537,2.5303,2.5303,2.5303,2.5303,2.5303,2.5303,2.5303,2.5303,2.5303,2.5303,2.5303,2.5303,2.5303,2.5303,1.0113,0.0,0.0,0.0,1.0293,0.0,0.0,0.0,1.5266,0.0,1.8427,2.0485,2.0331,2.0446,2.0485,2.0312,2.0312,2.0312,2.0312,2.0139,0.0,0.0,1.8767,1.9043,1.5723,0.0,0.0,1.0547,1.0371,1.0293,1.0293,0.0,0.0,0.0,1.3698,0.0,1.5513,1.7269,1.9036,2.0605,2.0605,2.0605,2.0605,2.0585,2.0585,2.0585,2.0585,2.0519,2.0429,2.0545,2.0585,2.0585,2.0585,2.0585,2.0557,2.036,2.1222,2.2249,2.2192,2.2594,2.2812,2.1959,2.172,0.0,0.0,0.0,1.8847,0.0,0.0,0.0,0.0,0.0,0.0,0.0,0.0,0.0,0.0,0.0,0.0,0.0,0.0,0.0,0.0,0.0,1.119,1.367,1.3136,0.0,0.0,1.7353,1.8262,1.9219,2.1719,2.3086,2.3184,2.4824,2.5623,2.5601,2.5531,2.5499,2.5505,2.537,2.5303,2.5303,2.5303,2.5303,2.5303,2.5303,2.5303,2.5303,2.5303,2.5303,2.5303,2.5303,2.5303,2.5303,1.0252,1.0252,1.0254,0.0,1.0293,1.141,0.0,0.0,0.0,0.0,2.1919,2.3072,2.0581,2.2515,2.3015,2.0523,2.0312,0.0,0.0,0.0,0.0,1.9126,2.0096,2.0176,1.9277,1.5879,1.4082,1.4082,1.1543,0.0,1.0293,0.0,0.0,0.0,0.0,0.0,1.561,1.862,2.0171,2.0605,2.0605,2.0605,2.0585,0.0,2.0468,2.0532,2.0468,2.0437,2.0404,2.0386,2.0371,2.0371,2.0371,2.0371,2.0372,2.0323,2.2275,2.4303,2.3458,2.3332,2.3312,2.2669,2.2066,2.1442,0.0,0.0,0.0,0.0,0.0,0.0,0.0,0.0,0.0,0.0,0.0,0.0,0.0,0.0,0.0,1.2026,0.0,0.0,0.0,1.0829,1.1618,1.2911,1.2829,0.0,0.0,0.0,1.735,1.8301,2.0859,2.25,2.3125,2.4199,2.5036,2.5598,2.5525,2.5513,2.5505,2.537,2.5303,2.5303,2.5303,2.5303,2.5303,2.5303,2.5303,2.5303,2.5303,2.5303,2.5303,2.5303,2.5303,2.5303,1.0596,0.0,0.0,1.2539,0.0,0.0,1.2921,1.4247,0.0,2.1842,2.413,0.0,2.2688,2.4168,2.3938,2.06,2.163,0.0,2.0517,0.0,0.0,2.0508,2.0605,2.0605,2.0605,1.8672,0.0,1.3164,0.0,0.0,1.0293,0.0,0.0,0.0,0.0,1.1797,1.4531,1.7952,1.9879,2.0586,2.0539,2.0536,0.0,2.0432,2.0443,2.0542,2.0823,2.0669,2.0427,2.0919,2.0746,2.0312,2.0312,2.0312,2.0312,2.0312,2.2669,2.5149,2.4514,2.4341,2.4265,2.3966,2.3544,2.3026,2.2296,2.2171,2.1848,0.0,2.0003,1.9621,0.0,0.0,0.0,0.0,0.0,0.0,0.0,0.0,0.0,0.0,1.2405,0.0,0.0,1.0874,1.1757,1.2623,1.27,0.0,0.0,0.0,1.7417,1.7988,2.0547,2.2285,2.3086,2.3965,2.4785,2.5566,2.5518,2.5466,2.5409,2.5322,2.5303,2.5303,2.5303,2.5303,2.5303,2.5303,2.5303,2.5303,2.5303,2.5303,2.5303,2.5303,2.5303,2.5303,1.1465,0.0,0.0,0.0,0.0,0.0,0.0,1.4613,0.0,2.3322,0.0,2.4303,2.5187,2.5303,2.413,2.1207,0.0,2.4193,2.1444,2.0859,2.0605,2.0605,2.0605,2.0605,2.0605,2.0605,1.7441,0.0,0.0,0.0,0.0,0.0,0.0,0.0,0.0,0.0,0.0,1.6659,1.9012,2.0559,2.0458,2.0432,2.0489,2.0535,2.0584,2.0735,2.1496,2.1207,2.0669,2.1814,2.1496,2.0639,2.0716,2.0831,2.0938,2.0938,2.3015,2.5303,2.5303,2.5303,2.5303,2.5303,2.5303,2.4918,2.3466,2.316,2.2959,2.2122,2.0768,2.0107,2.1218,0.0,0.0,0.0,0.0,0.0,0.0,0.0,0.0,0.0,0.0,0.0,0.0,0.0,0.0,0.0,0.0,0.0,0.0,0.0,1.7595,1.7988,2.043,2.2168,2.3086,2.3965,2.4765,2.55,2.5498,2.5428,2.5303,2.5303,2.5303,2.5303,2.5303,2.5303,2.5303,2.5303,2.5303,2.5303,2.5303,2.5303,2.5303,2.5303,2.5303,2.5303,1.4062,0.0,0.0,0.0,0.0,1.6881,2.188,2.3149,2.1938,1.7554,1.6958,1.9092,2.4688,2.5303,2.5053,2.4476,2.5162,0.0,0.0,0.0,0.0,2.0605,2.0605,2.0605,2.0605,2.0605,1.8594,0.0,0.0,0.0,0.0,0.0,0.0,0.0,0.0,0.0,1.5116,1.7603,0.0,2.0437,2.0419,2.0413,2.0485,2.1151,2.1405,2.1515,2.2312,2.2111,2.1575,2.2399,2.2543,2.2436,2.2887,2.3667,2.4418,2.4418,2.4841,2.5303,2.5303,2.5303,2.5303,2.5303,2.5303,2.5226,2.4918,2.488,2.4639,2.3832,2.3428,2.2677,2.0861,0.0,0.0,0.0,0.0,0.0,0.0,0.0,0.0,0.0,0.0,1.4303,0.0,0.0,0.0,0.0,0.0,0.0,0.0,0.0,1.5766,0.0,1.9844,2.1562,0.0,0.0,2.4773,2.5495,2.5505,2.5428,2.5303,2.5303,2.5303,2.5303,2.5303,2.5303,2.5303,2.5303,2.5303,2.5303,2.5303,2.5303,2.5303,2.5303,2.5303,2.5303,0.0,0.0,0.0,0.0,0.0,0.0,0.0,2.5303,2.413,2.0861,2.0438,2.1669,2.4937,2.5303,2.5354,2.5503,2.5631,2.5703,2.5703,2.416,2.3242,2.3242,2.1543,2.0605,2.0605,2.0605,1.8887,1.5391,0.0,0.0,1.0191,0.0,0.0,0.0,0.0,1.2207,0.0,0.0,0.0,2.1289,2.1241,2.1427,2.1737,2.2092,2.2246,2.2391,2.3197,2.3245,2.2987,2.3351,2.3351,2.337,2.4206,2.4851,2.5303,2.5303,2.5303,2.5303,2.5303,2.5303,2.5303,2.5303,2.5303,2.5303,2.5303,2.5303,2.5187,2.4793,2.4399,2.3321,2.0773,1.8888,0.0,0.0,0.0,0.0,0.0,0.0,0.0,0.0,0.0,0.0,0.0,0.0,0.0,0.0,0.0,1.1964,1.3267,0.0,1.5705,0.0,0.0,0.0,2.3125,0.0,2.4329,2.5505,2.5543,2.5466,2.5303,2.5303,2.5303,2.5303,2.5303,2.5303,2.5303,2.5303,2.5303,2.5303,2.5303,2.5303,2.5253,2.4864,2.4723,2.478,0.0,1.8398,0.0,0.0,2.0408,2.2274,2.4966,2.539,2.537,2.5303,2.5303,2.5303,2.5303,2.5346,2.5477,2.5683,2.5703,2.5703,2.5703,2.5703,2.5703,2.5703,2.3125,2.168,2.168,2.0977,1.9237,0.0,0.0,0.0,0.0,0.0,0.0,0.0,0.0,0.0,0.0,0.0,1.9643,2.1751,2.2171,2.263,2.3044,2.3081,2.3111,2.3256,2.4062,2.4361,2.4361,2.437,2.4178,2.4111,2.5014,2.5303,2.5303,2.5303,2.5303,2.5303,2.5303,2.5303,2.5303,2.5303,2.5303,2.5303,2.5303,2.5303,2.5303,2.5303,2.4505,2.3109,2.0735,1.9177,0.0,0.0,0.0,0.0,0.0,0.0,0.0,0.0,0.0,0.0,1.1477,0.0,0.0,0.0,0.0,1.1588,1.2641,1.4016,1.565,1.7578,0.0,2.0469,2.2891,0.0,2.4077,2.5502,2.5534,2.5466,2.5303,2.5303,2.5303,2.5303,2.5303,2.5303,2.5303,2.5303,2.5303,2.5303,2.5303,2.5192,2.5,2.4409,2.4303,2.4493,0.0,0.0,0.0,0.0,0.0,2.5024,2.5582,2.5659,2.5582,2.5322,2.5303,2.5303,2.5303,2.5522,2.5662,2.5703,2.5703,2.5703,2.5703,2.5703,2.5703,2.5703,2.5391,2.5215,2.5215,2.2187,2.0343,0.0,0.0,1.3132,1.0094,1.0094,0.0,0.0,0.0,0.0,0.0,2.0012,2.0227,2.0642,2.2649,2.3476,2.3572,2.3851,2.3975,2.4082,2.4909,2.5187,2.5187,2.5187,2.5168,2.5149,2.5264,2.5303,2.5303,2.5303,2.5303,2.5303,2.5303,2.5303,2.5303,2.5303,2.5303,2.5303,2.5303,2.5303,2.5303,2.5303,2.4024,2.237,2.0619,2.0177,1.9542,0.0,0.0,0.0,0.0,0.0,1.6814,1.5729,0.0,0.0,0.0,1.1566,0.0,0.0,1.055,1.0949,1.2603,1.2916,1.4202,1.6738,1.8437,2.0176,2.1992,2.3456,2.4633,2.5507,2.5432,2.539,2.5303,2.5303,2.5303,2.5303,2.5303,2.5303,2.5303,2.5303,2.5303,2.5303,2.5303,2.4891,2.4284,2.4228,2.4636,2.5107,0.0,0.0,0.0,0.0,0.0,0.0,0.0,2.5699,2.566,2.5543,2.5543,2.5543,2.5543,2.5634,2.5703,2.5703,2.5703,2.5703,2.5703,2.5703,2.5703,2.5703,2.5703,2.5703,2.5703,2.4355,2.2567,0.0,0.0,1.6372,1.2747,1.3036,1.3151,0.0,0.0,1.9023,2.0427,2.2438,2.3303,2.338,2.4265,2.4611,2.463,2.4774,2.4812,2.487,2.5168,2.5303,2.5303,2.5303,2.5303,2.5303,2.5303,2.5303,2.5303,2.5303,2.5303,2.5303,2.5303,2.5303,2.5303,2.5303,2.5303,2.5303,2.5303,2.5303,2.5303,2.5303,2.3966,2.2447,2.1246,2.0192,1.9462,1.9292,0.0,0.0,0.0,0.0,0.0,1.6502,0.0,1.407,0.0,0.0,0.0,0.0,0.0,1.0637,1.1857,1.295,1.4248,1.582,0.0,2.0581,2.1894,2.3466,2.4671,2.5492,2.5475,2.5409,2.5303,2.5303,2.5303,2.5303,2.5303,2.5303,2.5303,2.5303,2.5303,2.5303,2.5303,2.485,2.419,2.419,2.4392,2.4604,2.2109,0.0,2.5703,0.0,2.5703,2.5701,2.5701,2.5703,2.5703,2.5703,2.5703,2.5703,2.5703,2.5703,2.5703,2.5703,2.5703,2.5703,2.5703,2.5703,2.5703,2.5703,2.5703,0.0,2.5703,2.5609,2.4336,2.1765,2.0595,1.8591,1.5925,1.6251,1.64,0.0,2.0178,2.1765,2.1919,2.4303,2.5303,2.5303,2.5303,2.5303,2.5303,2.5303,2.5303,2.5303,2.5303,2.5303,2.5303,2.5303,2.5303,2.5303,2.5303,2.5303,2.5303,2.5224,2.5214,2.5214,2.5154,2.5154,2.5143,2.516,2.5146,2.5168,2.5207,2.5207,2.5091,2.4591,2.3525,2.2317,2.121,2.0076,1.94,1.972,0.0,0.0,0.0,1.8192,0.0,0.0,1.5258,1.4022,1.3702,1.2817,0.0,0.0,0.0,0.0,1.2464,1.3465,0.0,0.0,0.0,0.0,2.1834,2.3394,2.4602,2.5466,2.5447,2.539,2.5303,2.5303,2.5303,2.5303,2.5303,2.5303,2.5303,2.5303,2.5171,2.4987,2.4987,2.4666,2.419,2.419,2.419,2.419,2.5644,2.5664,2.5703,2.5703,2.5703,2.5703,2.5703,2.5703,2.5703,2.5703,2.5703,2.5703,2.5703,2.5703,2.5703,2.5703,2.5703,2.5703,2.5703,2.5703,2.5703,0.0,0.0,2.5703,2.5703,2.5441,2.5274,2.5245,0.0,1.9286,1.925,1.925,1.925,1.9424,2.3454,2.5245,2.5245,2.5284,2.5303,2.5303,2.5303,2.5303,2.5303,2.5303,2.5303,2.5303,2.5303,2.5303,2.5303,2.5303,2.5303,2.5303,2.5303,2.5303,2.5264,2.5057,2.4991,2.4979,2.4841,2.4797,2.4809,2.4814,2.4796,2.4851,2.4966,2.5005,2.4553,2.2959,2.2459,2.1795,2.012,1.9911,1.9671,1.8687,0.0,0.0,0.0,1.7671,0.0,1.6917,1.4774,1.3629,1.4407,1.3093,0.0,0.0,0.0,0.0,0.0,0.0,0.0,1.7683,1.948,0.0,2.1685,2.3293,2.4544,2.5409,2.5322,2.5303,2.5303,2.5303,2.5303,2.5303,2.5303,2.5303,2.5303,2.5303,2.4864,2.4209,2.4209,2.4209,2.419,2.419,2.419,2.419,2.5703,2.5703,2.5703,2.5703,2.5703,2.5703,2.5703,2.5703,2.5703,2.5703,2.5703,2.5703,2.5703,2.5703,2.5703,0.0,2.5703,2.5703,0.0,2.5703,2.5703,2.5703,2.5703,2.5607,2.5428,2.5348,2.5061,2.454,0.0,0.0,2.263,2.263,2.263,2.2703,2.3977,2.454,2.4588,2.5084,2.5303,2.5303,2.5303,2.5303,2.5303,2.5303,2.5192,2.5041,2.5041,2.5065,2.5077,2.4987,2.5024,2.5077,2.4987,2.5024,2.5065,2.4904,2.485,2.485,2.4804,2.4804,2.4799,2.4813,2.4802,2.4808,2.4848,2.4865,2.4553,2.3444,2.2731,2.1952,2.0841,2.0198,1.9768,1.9435,1.9658,0.0,1.8516,0.0,1.6915,1.6176,1.4921,1.4224,1.4469,1.409,0.0,0.0,0.0,0.0,0.0,0.0,0.0,0.0,2.0559,0.0,2.2585,2.4134,2.5085,2.5409,2.5322,2.5303,2.5303,2.5303,2.5303,2.5303,2.5303,2.5005,2.454,2.454,2.4409,2.419,2.419,2.419,2.419,2.419,2.419,2.419,2.5703,2.5703,2.5662,2.5561,2.5551,2.5551,2.5551,2.5551,2.5551,2.5551,2.5551,2.5551,2.5551,2.5551,0.0,2.5551,2.5551,2.5551,2.5551,2.5551,2.5551,2.5551,2.5551,2.5477,2.5293,2.5303,0.0,2.462,2.4339,2.419,2.419,2.419,2.419,2.419,2.419,2.419,2.4228,2.4678,2.4891,2.4904,2.5182,2.5303,2.5303,2.5303,2.5203,2.503,2.4845,2.4804,2.4831,2.4799,2.4855,2.4904,2.4727,2.4737,2.4809,2.4712,2.4685,2.467,2.461,2.4559,2.4561,2.4572,2.4574,2.4577,2.4671,2.4688,2.4439,2.3602,2.272,2.1837,2.0968,2.022,1.9694,1.9606,1.9676,1.9382,1.8427,0.0,1.6849,0.0,0.0,0.0,0.0,1.5428,1.5616,0.0,0.0,0.0,0.0,0.0,1.8159,1.9155,2.1856,2.3322,2.3419,2.4668,2.5322,2.537,2.5322,2.5303,2.5303,2.5303,2.5303,2.5274,2.5012,2.4636,2.419,2.419,2.419,2.419,2.419,2.419,2.419,2.419,2.419,2.419,2.5662,2.5662,2.5598,2.5348,2.5303,2.5303,2.5303,2.5303,2.5303,2.5303,2.5303,2.5303,2.5303,2.5303,2.5303,2.5303,0.0,0.0,2.5303,2.5303,2.5303,2.5303,2.5303,2.5303,2.5303,2.5303,2.5274,2.5214,2.4543,2.419,2.419,2.419,2.419,2.419,2.419,2.419,2.419,2.419,2.419,2.4247,2.4943,2.5214,2.5214,2.5214,2.5214,2.516,2.4731,2.4561,2.4594,2.4716,2.4775,2.4746,2.4526,2.4478,2.4478,2.4478,2.4478,2.4426,2.4266,2.419,2.419,2.419,2.419,2.4245,2.4448,2.4485,2.4282,2.3527,2.2575,2.1622,2.076,2.0075,1.9582,1.9335,1.9471,1.9235,1.8254,1.7458,1.6963,0.0,0.0,0.0,1.6835,1.6945,1.7275,0.0,0.0,0.0,0.0,0.0,1.9066,2.1507,2.3214,2.4138,2.4178,2.4928,2.5303,2.5303,2.5303,2.5293,2.5264,2.5293,2.5264,2.5182,2.451,2.419,2.419,2.419,2.419,2.419,2.419,2.419,2.419,2.419,2.419,2.419,0.0,0.0,2.536,2.5313,2.5303,2.5303,2.5303,2.5303,2.5303,2.5303,2.5303,2.5303,2.5303,2.5303,2.5303,2.5303,2.5303,2.5303,2.5303,2.5303,2.5303,2.5303,2.5303,2.5303,2.5303,2.5303,2.5005,2.4459,2.4284,2.419,2.419,2.419,2.419,2.419,2.419,2.419,2.419,2.419,2.419,2.4209,2.4392,2.4459,2.4459,2.4459,2.4459,2.4461,2.4321,2.4284,2.4303,2.4339,2.4444,2.4545,2.4321,2.4266,2.4266,2.4266,2.4266,2.4247,2.4209,2.419,2.419,2.419,2.419,2.4208,2.4245,2.4282,2.4208,2.4024,2.3309,2.2465,2.1636,2.0823,2.0068,1.9415,1.9335,1.9074,1.8225,1.795,1.7587,0.0,1.6725,1.6688,1.689,1.7458,1.7642,0.0,0.0,1.8814,1.9824,2.024,2.1081,2.2459,2.3543,2.4399,2.5005,2.5207,2.5303,2.5303,2.5303,2.5198,2.4999,2.5209,2.4981,2.4442,2.4284,2.419,2.419,2.419,2.419,2.419,2.419,2.419,2.419,2.419,2.419,2.419,2.5303,2.5303,2.5303,2.5303,2.5303,2.5303,2.5303,2.5303,2.5303,2.5303,2.5303,2.5303,2.5303,2.5303,2.5303,2.5303,2.5303,2.5303,2.5303,2.5303,2.5303,2.5303,2.5303,2.5303,2.5303,2.5303,2.493,2.419,2.419,2.419,2.419,2.419,2.419,2.419,2.419,2.419,2.419,2.419,2.419,2.419,2.419,2.419,2.419,2.419,2.419,2.419,2.419,2.419,2.419,2.419,2.4266,2.4339,2.4228,2.419,2.419,2.419,2.419,2.419,2.419,2.419,2.419,2.419,2.419,2.419,2.419,2.419,2.419,2.419,2.3566,2.2868,2.2429,2.1329,2.0356,1.9916,1.9546,1.9014,1.8207,1.8096,1.795,1.7495,1.744,1.7587,1.7968,1.839,1.8463,1.8041,1.8897,0.0,2.0277,2.1677,2.2736,2.3371,2.4216,2.487,2.5303,2.5303,2.5303,2.5303,2.5201,2.5094,2.4945,2.5019,2.4855,2.4461,2.4284,2.419,2.419,2.419,2.419,2.419,2.419,2.419,2.419,2.419,2.419,2.419,2.5303,2.5303,2.5303,2.5303,2.5303,2.5303,2.5303,2.5303,2.5303,2.5303,2.5303,2.5303,2.5303,2.5303,2.5303,2.5303,2.5303,2.5303,2.5303,2.5303,2.5303,2.5303,2.5303,2.5303,2.5303,2.5182,2.4823,2.419,2.419,2.419,2.419,2.419,2.419,2.419,2.419,2.419,2.419,2.419,2.419,2.419,2.419,2.419,2.419,2.419,2.419,2.419,2.419,2.419,2.419,2.419,2.419,2.419,2.419,2.419,2.419,2.419,2.419,2.419,2.419,2.419,2.419,2.419,2.419,2.419,2.419,2.419,2.419,2.419,2.3657,2.3125,2.3013,2.1698,2.0616,2.0506,1.9792,1.9039,1.8372,0.0,1.8335,1.8463,1.8463,1.8775,1.9601,1.969,1.969,1.969,2.0455,2.1023,2.1165,2.2797,2.3873,2.4197,2.4928,2.5303,2.5303,2.5303,2.5283,2.5241,2.5091,2.4968,2.4931,2.4818,2.4741,2.4685,2.4339,2.419,2.419,2.419,2.419,2.419,2.419,2.419,2.419,2.419,2.419,2.419,2.5303,2.5303,2.5303,2.5303,2.5303,2.5303,2.5303,2.5303,2.5303,2.5303,2.5303,2.5303,2.5303,2.5303,2.5303,2.5303,2.5303,2.5303,2.5303,2.5303,2.5303,2.5303,2.5303,2.5303,2.5303,2.4678,2.4303,2.419,2.419,2.419,2.419,2.419,2.419,2.419,2.419,2.419,2.419,2.419,2.419,2.419,2.419,2.419,2.419,2.419,2.419,2.419,2.419,2.419,2.419,2.419,2.419,2.419,2.419,2.419,2.419,2.419,2.419,2.419,2.419,2.419,2.419,2.419,2.419,2.419,2.419,2.419,2.419,2.419,2.4098,2.3823,2.3143,2.2063,2.108,2.058,1.9678,1.9064,1.9109,0.0,1.9363,2.0044,2.0118,2.0482,2.1343,2.1417,2.1417,2.1417,2.1562,2.2029,2.2874,2.3213,2.3783,2.4647,2.5091,2.5303,2.5303,2.5303,2.5217,2.5053,2.5011,2.486,2.4579,2.4617,2.4514,2.4284,2.4228,2.419,2.419,2.419,2.419,2.419,2.419,2.419,2.419,2.419,2.419,2.419,2.5303,2.5303,2.5303,2.5303,2.5303,2.5303,2.5303,2.5303,2.5303,2.5303,2.5303,2.5303,2.5303,2.5303,2.5303,2.5303,2.5303,2.5303,2.5303,2.5303,2.5303,2.5303,2.5303,2.5107,2.4708,2.4374,2.419,2.419,2.419,2.419,2.419,2.419,2.419,2.419,2.419,2.419,2.419,2.419,2.419,2.419,2.419,2.419,2.419,2.419,2.419,2.419,2.419,2.419,2.419,2.419,2.419,2.419,2.419,2.419,2.419,2.419,2.419,2.419,2.419,2.419,2.419,2.419,2.419,2.419,2.419,2.419,2.419,2.419,2.419,2.4041,2.3464,2.2618,2.1852,2.1377,2.0335,1.9777,2.0299,2.0126,2.0262,2.1106,2.1198,2.1363,2.1766,2.1803,2.1803,2.1803,2.2189,2.2646,2.3101,2.3663,2.4153,2.462,2.4965,2.5187,2.5303,2.519,2.5076,2.5007,2.4823,2.4654,2.4485,2.4411,2.4319,2.419,2.419,2.419,2.419,2.419,2.419,2.419,2.419,2.419,2.419,2.419,2.419,2.419,2.5303,2.5303,2.5303,2.5303,2.5303,2.5303,2.5303,2.5303,2.5303,2.5303,2.5303,2.5303,2.5303,2.5303,2.5303,2.5303,2.5303,2.5303,2.5303,2.5303,2.5303,2.5303,2.5149,2.478,2.4209,2.419,2.419,2.419,2.419,2.419,2.419,2.419,2.419,2.419,2.419,2.419,2.419,2.419,2.419,2.419,2.419,2.419,2.419,2.419,2.419,2.419,2.419,2.419,2.419,2.419,2.419,2.419,2.419,2.419,2.419,2.419,2.419,2.419,2.419,2.419,2.417,2.4074,2.4113,2.417,2.4094,2.4151,2.419,2.419,2.419,2.4094,2.3774,2.298,2.2314,2.2033,0.0,2.0414,2.1102,2.0898,2.0986,2.1862,2.2025,2.2134,2.2354,2.2372,2.2372,2.2372,2.2923,2.329,2.329,2.4006,2.4444,2.4495,2.4784,2.5037,2.5171,2.5019,2.4931,2.4877,2.4613,2.4483,2.443,2.4282,2.419,2.419,2.419,2.419,2.419,2.419,2.419,2.419,2.419,2.419,2.419,2.419,2.419,2.419,2.5303,2.5303,2.5303,2.5303,2.5303,2.5303,2.5303,2.5303,2.5303,2.5303,2.5303,2.5303,2.5303,2.5303,2.5303,2.5303,2.5303,2.5303,2.5303,2.5303,2.5303,2.5303,2.4651,2.4266,2.419,2.419,2.419,2.419,2.419,2.419,2.419,2.419,2.419,2.419,2.419,2.419,2.419,2.419,2.419,2.419,2.419,2.419,2.419,2.419,2.419,2.419,2.419,2.419,2.419,2.419,2.419,2.419,2.419,2.419,2.419,2.419,2.419,2.419,2.419,2.419,2.4094,2.3671,2.3876,2.4113,2.3816,2.3976,2.419,2.419,2.419,2.4094,2.3774,2.2833,2.21,2.2011,0.0,0.0,2.0784,2.1079,2.1545,2.2339,2.272,2.3199,2.3951,2.4025,2.4025,2.4025,2.408,2.4116,2.4116,2.4172,2.4303,2.4495,2.4697,2.4828,2.4847,2.4818,2.4716,2.4547,2.4505,2.4389,2.4208,2.4208,2.419,2.419,2.419,2.419,2.419,2.419,2.419,2.419,2.419,2.419,2.419,2.419,2.419,2.419,2.5303,2.5303,2.5303,2.5303,2.5303,2.5303,2.5303,2.5303,2.5303,2.5303,2.5303,2.5303,2.5303,2.5303,2.5303,2.5303,2.5303,2.5303,2.5303,2.5303,2.5096,2.4651,2.4357,2.419,2.419,2.419,2.419,2.419,2.419,2.419,2.419,2.419,2.419,2.419,2.419,2.419,2.419,2.419,2.419,2.419,2.419,2.419,2.419,2.419,2.419,2.419,2.419,2.419,2.419,2.419,2.419,2.419,2.419,2.419,2.4054,2.3242,2.358,2.419,2.419,2.419,2.4034,2.3318,2.3271,2.3387,2.3392,2.3649,2.3896,2.3896,2.4054,2.4036,2.35,2.3051,2.2647,2.2229,0.0,2.1285,2.1882,2.1847,2.2028,2.2834,2.322,2.3549,2.386,2.4074,2.419,2.419,2.419,2.419,2.419,2.419,2.4247,2.4321,2.4393,2.4561,2.4804,2.467,2.4594,2.4495,2.4374,2.4266,2.419,2.419,2.419,2.419,2.419,2.419,2.419,2.419,2.419,2.419,2.419,2.419,2.419,2.419,2.419,2.419,2.5303,2.5303,2.5303,2.5303,2.5303,2.5303,2.5303,2.5303,2.5303,2.5303,2.5303,2.5303,2.5303,2.5303,2.5303,2.5303,2.5303,2.5192,2.4968,2.4943,2.4723,2.4228,2.419,2.419,2.419,2.419,2.419,2.419,2.419,2.419,2.419,2.419,2.419,2.419,2.419,2.419,2.419,2.419,2.419,2.417,2.3771,2.3602,2.3602,2.3602,2.3602,2.3664,2.4054,2.3935,2.3602,2.3602,2.3602,2.3602,2.3602,2.3602,2.3445,2.2552,2.2917,2.3602,2.3602,2.3602,2.3468,2.2849,2.2798,2.2933,2.3021,2.33,2.3544,2.3544,2.3714,2.3714,2.3141,2.3045,2.2865,2.2377,2.2,2.1953,2.2521,2.2362,2.2417,2.2975,2.3346,2.3588,2.3692,2.3917,2.4094,2.419,2.419,2.419,2.419,2.419,2.419,2.419,2.419,2.4321,2.4607,2.4478,2.441,2.441,2.4284,2.419,2.419,2.419,2.419,2.419,2.419,2.419,2.419,2.419,2.419,2.419,2.419,2.419,2.419,2.419,2.419,2.419,2.5303,2.5303,2.5303,2.5303,2.5303,2.5303,2.5303,2.5303,2.5284,2.5284,2.5303,2.5303,2.5284,2.5303,2.5303,2.5284,2.5284,2.4968,2.4266,2.419,2.419,2.419,2.419,2.419,2.419,2.419,2.419,2.419,2.419,2.419,2.419,2.419,2.419,2.419,2.419,2.419,2.419,2.419,2.419,2.4074,2.2825,2.2344,2.2344,2.2344,2.2344,2.2504,2.3765,2.3412,2.2344,2.2344,2.2344,2.2344,2.231,2.231,2.231,2.231,2.231,2.231,2.231,2.231,2.231,2.231,2.2598,2.2857,2.2721,2.2972,2.3189,2.3189,2.3189,2.3093,2.2772,2.2695,2.2625,2.2349,2.231,2.231,2.231,2.2527,2.2695,2.2695,2.2996,2.3346,2.3671,2.3692,2.3837,2.417,2.419,2.419,2.419,2.419,2.419,2.419,2.419,2.419,2.419,2.419,2.419,2.419,2.419,2.419,2.419,2.419,2.419,2.419,2.419,2.419,2.419,2.419,2.419,2.419,2.419,2.419,2.419,2.419,2.419,2.419,2.5303,2.5303,2.5303,2.5303,2.5303,2.5303,2.5303,2.4864,2.4543,2.4543,2.4968,2.5096,2.4588,2.4981,2.5084,2.4572,2.4543,2.4425,2.4209,2.419,2.419,2.419,2.419,2.419,2.419,2.419,2.419,2.419,2.419,2.419,2.419,2.419,2.419,2.4151,2.3283,2.3376,2.419,2.419,2.3667,2.3007,2.4709,2.5389,2.5389,2.5389,2.5389,2.5452,2.5816,2.5712,2.5389,2.5389,2.5389,2.5033,2.2953,2.231,2.231,2.231,2.231,2.231,2.231,2.231,2.231,2.231,2.2405,2.2453,2.2426,2.2625,2.2848,2.2848,2.3045,2.3093,2.2772,2.2695,2.2625,2.2349,2.231,2.231,2.231,2.236,2.2426,2.2426,2.2678,2.2972,2.3323,2.3566,2.3837,2.417,2.419,2.419,2.419,2.419,2.419,2.419,2.419,2.419,2.419,2.419,2.419,2.419,2.419,2.419,2.419,2.419,2.419,2.419,2.419,2.419,2.419,2.419,2.419,2.419,2.419,2.419,2.419,2.419,2.419,2.419,2.5303,2.5303,2.5303,2.5303,2.5061,2.4864,2.4864,2.4493,2.419,2.419,2.4588,2.4712,2.4266,2.4604,2.4697,2.4247,2.419,2.474,2.6025,2.6098,2.6098,2.6098,2.6098,2.5511,2.4226,2.419,2.419,2.419,2.419,2.419,2.419,2.3667,2.3445,2.3405,2.2642,2.2747,2.3517,2.4699,2.4723,2.4205,2.5981,2.6691,2.6691,2.6691,2.6691,2.6691,2.6691,2.6691,2.6691,2.6691,2.6691,2.6387,2.4611,2.3241,2.231,2.231,2.231,2.231,2.231,2.231,2.231,2.231,2.231,2.231,2.231,2.2426,2.2537,2.2537,2.2704,2.2781,2.259,2.2537,2.2473,2.2338,2.231,2.231,2.231,2.231,2.231,2.231,2.2537,2.2822,2.3165,2.3482,2.3837,2.417,2.419,2.419,2.419,2.419,2.419,2.419,2.419,2.419,2.419,2.419,2.419,2.419,2.419,2.419,2.419,2.419,2.419,2.419,2.419,2.419,2.419,2.419,2.419,2.419,2.419,2.419,2.419,2.419,2.419,2.419,2.5303,2.5303,2.5274,2.5203,2.4651,2.419,2.419,2.419,2.419,2.419,2.419,2.419,2.419,2.4465,2.463,2.463,2.463,2.5878,2.881,2.8994,2.8994,2.8994,2.8994,2.764,2.4685,2.463,2.463,2.463,2.463,2.4553,2.4413,2.3232,2.2699,2.2699,2.2699,2.2699,2.2868,2.5558,2.6691,2.6691,2.6691,2.6691,2.6691,2.6691,2.6691,2.6691,2.6691,2.6691,2.6691,2.6691,2.6691,2.6691,2.6691,2.4864,2.2699,2.2699,2.2513,2.231,2.231,2.231,2.231,2.231,2.231,2.231,2.231,2.231,2.231,2.231,2.231,2.231,2.231,2.231,2.231,2.231,2.231,2.231,2.231,2.231,2.231,2.231,2.2527,2.2797,2.3165,2.3522,2.3876,2.417,2.419,2.419,2.419,2.419,2.419,2.419,2.419,2.419,2.419,2.419,2.419,2.419,2.419,2.419,2.419,2.419,2.4151,2.4034,2.4034,2.4034,2.4034,2.4034,2.4034,2.4034,2.4034,2.4034,2.4034,2.4034,2.4034,2.4034,2.5303,2.5303,2.5126,2.4524,2.4321,2.419,2.419,2.419,2.419,2.419,2.419,2.419,2.419,2.6447,2.797,2.797,2.797,2.8264,2.8938,2.8994,2.8994,2.8994,2.8994,2.8663,2.7967,2.797,2.797,2.797,2.797,2.7335,2.6148,2.5887,2.5744,2.5744,2.5744,2.5744,2.5778,2.642,2.6691,2.6691,2.6691,2.6691,2.6691,2.6691,2.6691,2.6691,2.6691,2.6691,2.6691,2.6691,2.6691,2.6691,2.6691,2.6251,2.5744,2.5744,2.412,2.231,2.231,2.231,2.231,2.231,2.231,2.231,2.231,2.231,2.231,2.231,2.231,2.231,2.231,2.231,2.231,2.231,2.231,2.231,2.231,2.231,2.231,2.231,2.2349,2.2607,2.3159,2.3735,2.4113,2.419,2.419,2.419,2.419,2.419,2.419,2.419,2.419,2.419,2.419,2.419,2.419,2.419,2.419,2.419,2.419,2.419,2.3664,2.2703,2.2703,2.2703,2.2703,2.2703,2.2703,2.2703,2.2703,2.2703,2.2703,2.2703,2.2703,2.2703,2.4836,2.478,2.4648,2.4266,2.419,2.419,2.419,2.419,2.419,2.419,2.5548,2.6502,2.6502,2.8007,2.8994,2.8994,2.8994,2.8994,2.8994,2.8994,2.8994,2.8994,2.8994,2.8994,2.8994,2.8994,2.8633,2.7918,2.7918,2.7482,2.6691,2.6691,2.6691,2.6691,2.6691,2.6691,2.6691,2.6691,2.6691,2.6691,2.6691,2.6691,2.6691,2.6691,2.6691,2.6691,2.6691,2.6691,2.6691,2.6691,2.6691,2.6691,2.6691,2.6691,2.6691,2.6691,2.5609,2.4103,2.2699,2.231,2.231,2.231,2.231,2.231,2.231,2.231,2.231,2.231,2.231,2.231,2.231,2.231,2.231,2.231,2.231,2.231,2.231,2.231,2.231,2.231,2.2398,2.273,2.3369,2.3896,2.419,2.419,2.419,2.419,2.419,2.419,2.419,2.419,2.419,2.419,2.419,2.419,2.3894,2.3307,2.3307,2.3307,2.3307,2.3307,2.2917,2.231,2.231,2.231,2.231,2.231,2.231,2.231,2.231,2.231,2.231,2.231,2.231,2.231,2.4321,2.419,2.419,2.419,2.419,2.419,2.419,2.4667,2.5016,2.5016,2.7346,2.8994,2.8994,2.8994,2.8994,2.8994,2.8994,2.8994,2.8994,2.8994,2.8994,2.8994,2.8994,2.8994,2.8994,2.8749,2.7974,2.6691,2.6691,2.6691,2.6691,2.6691,2.6691,2.6691,2.6691,2.6691,2.6691,2.6691,2.6691,2.6691,2.6691,2.6691,2.6691,2.6691,2.6691,2.6691,2.6691,2.6691,2.6691,2.6691,2.6691,2.6691,2.6691,2.6691,2.6691,2.6691,2.6691,2.6167,2.3714,2.3054,2.3004,2.275,2.2496,2.2344,2.2462,2.2395,2.231,2.231,2.231,2.231,2.231,2.231,2.231,2.231,2.231,2.231,2.231,2.231,2.231,2.231,2.2537,2.2947,2.3566,2.3876,2.4036,2.4113,2.4074,2.4036,2.4074,2.4074,2.4132,2.4208,2.419,2.419,2.419,2.3976,2.3353,2.231,2.231,2.231,2.231,2.231,2.231,2.231,2.231,2.231,2.231,2.231,2.231,2.231,2.231,2.231,2.231,2.231,2.231,2.231,2.4228,2.419,2.419,2.419,2.419,2.419,2.419,2.6557,2.8333,2.8333,2.8718,2.8994,2.8994,2.8994,2.8994,2.8994,2.8994,2.8994,2.8994,2.8994,2.8994,2.8994,2.8994,2.8994,2.8994,2.7672,2.6889,2.6691,2.6691,2.6691,2.6691,2.6691,2.6691,2.6691,2.6691,2.6691,2.6691,2.6691,2.6691,2.6691,2.6691,2.6691,2.6691,2.6691,2.6691,2.6691,2.6691,2.6691,2.6691,2.6691,2.6691,2.6691,2.6691,2.6691,2.6691,2.6691,2.6691,2.6607,2.6201,2.6099,2.5795,2.4509,2.3241,2.2479,2.3105,2.2767,2.231,2.231,2.231,2.231,2.231,2.231,2.231,2.231,2.231,2.231,2.231,2.231,2.231,2.231,2.2537,2.2848,2.3212,2.3323,2.3477,2.3753,2.35,2.3414,2.3588,2.3588,2.3774,2.419,2.419,2.419,2.419,2.3116,2.247,2.231,2.231,2.231,2.231,2.231,2.231,2.231,2.231,2.231,2.231,2.231,2.231,2.231,2.231,2.231,2.231,2.231,2.231,2.231,2.419,2.419,2.419,2.419,2.5695,2.6888,2.6888,2.8077,2.8994,2.8994,2.8994,2.8994,2.8994,2.8994,2.8994,2.8994,2.8994,2.8994,2.8994,2.8994,2.8994,2.8994,2.8166,2.7718,2.7718,2.7051,2.6691,2.6691,2.6691,2.6691,2.6691,2.6691,2.6691,2.6691,2.6691,2.6691,2.6691,2.6691,2.6691,2.6691,2.6691,2.6691,2.6691,2.6691,2.6691,2.6691,2.6691,2.6691,2.6691,2.6691,2.6691,2.6691,2.6691,2.6691,2.6691,2.6691,2.6691,2.6691,2.6691,2.6691,2.6539,2.5879,2.4814,2.3701,2.297,2.2852,2.2801,2.2395,2.231,2.231,2.231,2.231,2.231,2.231,2.231,2.231,2.231,2.231,2.231,2.231,2.2537,2.2772,2.2923,2.3093,2.3259,2.3414,2.3183,2.3063,2.3159,2.2933,2.2925,2.314,2.314,2.314,2.314,2.2588,2.231,2.231,2.231,2.231,2.231,2.231,2.231,2.231,2.231,2.231,2.231,2.231,2.231,2.231,2.231,2.231,2.231,2.231,2.231,2.231]},{"header":{"parameterUnit":"m.s-1","parameterCategory":1,"la1":30.6,"la2":28.766,"lo1":-90.7593,"lo2":-88.6598,"dy":0.0162,"dx":0.0183,"nx":116,"ny":114,"refTime":"2024-06-13T06:00:00:Z","depth":0,"parameterNumber":3,"parameterNumberName":"V-component_of_WINDS"},"data":[0.0,0.0,0.0,0.0,0.0,0.0,0.0,0.0,0.0,0.0,0.0,0.0,0.0,0.0,0.0,0.0,0.0,0.0,0.0,0.0,0.0,0.0,0.0,0.0,0.0,0.0,0.0,0.0,0.0,0.0,0.0,0.0,0.0,0.0,0.0,0.0,0.0,0.0,0.0,0.0,0.0,0.0,0.0,0.0,0.0,0.0,0.0,0.0,0.0,0.0,0.0,0.0,0.0,0.0,0.0,0.0,0.0,0.0,0.0,0.0,0.0,0.0,0.0,0.0,0.0,0.0,0.0,0.0,0.0,0.0,0.0,0.0,0.0,0.0,0.0,0.0,0.0,0.0,0.0,0.0,0.0,0.0,0.0,0.0,0.0,0.0,0.0,0.0,0.0,0.0,0.0,0.0,0.0,0.0,0.0,0.0,0.0,0.0,0.0,0.0,0.0,0.0,0.0,0.0,0.0,0.0,0.0,0.0,0.0,0.0,0.0,0.0,0.0,0.0,0.0,0.0,0.0,0.0,0.0,0.0,0.0,0.0,0.0,0.0,0.0,0.0,0.0,0.0,0.0,0.0,0.0,0.0,0.0,0.0,0.0,0.0,0.0,0.0,0.0,0.0,0.0,0.0,0.0,0.0,0.0,0.0,0.0,0.0,0.0,0.0,0.0,0.0,0.0,0.0,0.0,0.0,0.0,0.0,0.0,0.0,0.0,0.0,0.0,0.0,0.0,0.0,0.0,0.0,0.0,0.0,0.0,0.0,0.0,0.0,0.0,0.0,0.0,0.0,0.0,0.0,0.0,0.0,0.0,0.0,0.0,0.0,0.0,0.0,0.0,0.0,0.0,0.0,0.0,0.0,0.0,0.0,0.0,0.0,0.0,0.0,0.0,0.0,0.0,0.0,0.0,0.0,0.0,0.0,0.0,0.0,0.0,0.0,0.0,0.0,0.0,0.0,0.0,0.0,0.0,0.0,0.0,0.0,0.0,0.0,0.0,0.0,0.0,0.0,0.0,0.0,0.0,0.0,0.0,0.0,0.0,0.0,0.0,0.0,0.0,0.0,0.0,0.0,0.0,0.0,0.0,0.0,0.0,0.0,0.0,0.0,0.0,0.0,0.0,0.0,0.0,0.0,0.0,0.0,0.0,0.0,0.0,0.0,0.0,0.0,0.0,0.0,0.0,0.0,0.0,0.0,0.0,0.0,0.0,0.0,0.0,0.0,0.0,0.0,0.0,0.0,0.0,0.0,0.0,0.0,0.0,0.0,0.0,0.0,0.0,0.0,0.0,0.0,0.0,0.0,0.0,0.0,0.0,0.0,0.0,0.0,0.0,0.0,0.0,0.0,0.0,0.0,0.0,0.0,0.0,0.0,0.0,0.0,0.0,0.0,0.0,0.0,0.0,0.0,0.0,0.0,0.0,0.0,0.0,0.0,0.0,0.0,0.0,0.0,0.0,0.0,0.0,0.0,0.0,0.0,0.0,0.0,0.0,0.0,0.0,0.0,0.0,0.0,0.0,0.0,0.0,0.0,0.0,0.0,0.0,0.0,0.0,0.0,0.0,0.0,0.0,0.0,0.0,0.0,0.0,0.0,0.0,0.0,0.0,0.0,0.0,0.0,0.0,0.0,0.0,0.0,0.0,0.0,0.0,0.0,0.0,0.0,0.0,0.0,0.0,0.0,0.0,0.0,0.0,0.0,0.0,0.0,0.0,0.0,0.0,0.0,0.0,0.0,0.0,0.0,0.0,0.0,0.0,0.0,0.0,0.0,0.0,0.0,0.0,0.0,0.0,0.0,0.0,0.0,0.0,0.0,0.0,0.0,0.0,0.0,0.0,0.0,0.0,0.0,0.0,0.0,0.0,0.0,0.0,0.0,0.0,0.0,0.0,0.0,0.0,0.0,0.0,0.0,0.0,0.0,0.0,0.0,0.0,0.0,0.0,0.0,0.0,0.0,0.0,0.0,0.0,0.0,0.0,0.0,0.0,0.0,0.0,0.0,0.0,0.0,0.0,0.0,0.0,0.0,0.0,0.0,0.0,0.0,0.0,0.0,0.0,0.0,0.0,0.0,0.0,0.0,0.0,0.0,0.0,0.0,0.0,0.0,0.0,0.0,0.0,0.0,0.0,0.0,0.0,0.0,0.0,0.0,0.0,0.0,0.0,0.0,0.0,0.0,0.0,0.0,0.0,0.0,0.0,0.0,0.0,0.0,0.0,0.0,0.0,0.0,0.0,0.0,0.0,0.0,0.0,0.0,0.0,0.0,0.0,0.0,0.0,0.0,0.0,0.0,0.0,0.0,0.0,0.0,0.0,0.0,0.0,0.0,0.0,0.0,0.0,0.0,0.0,0.0,0.0,0.0,0.0,0.0,0.0,0.0,0.0,0.0,0.0,0.0,0.0,0.0,0.0,0.0,0.0,0.0,0.0,0.0,0.0,0.0,0.0,0.0,0.0,0.0,0.0,0.0,0.0,0.0,0.0,0.0,0.0,0.0,0.0,0.0,0.0,0.0,0.0,0.0,0.0,0.0,0.0,0.0,0.0,0.0,0.0,0.0,0.0,0.0,0.0,0.0,0.0,0.0,0.0,0.0,0.0,0.0,0.0,0.0,0.0,0.0,0.0,0.0,0.0,0.0,0.0,0.0,0.0,0.0,0.0,0.0,0.0,0.0,0.0,0.0,0.0,0.0,0.0,0.0,0.0,0.0,0.0,0.0,0.0,0.0,0.0,0.0,0.0,0.0,0.0,0.0,0.0,0.0,0.0,0.0,0.0,0.0,0.0,0.0,0.0,0.0,0.0,0.0,0.0,0.0,0.0,0.0,0.0,0.0,0.0,0.0,0.0,0.0,0.0,0.0,0.0,0.0,0.0,0.0,0.0,0.0,0.0,0.0,0.0,0.0,0.0,0.0,0.0,0.0,0.0,0.0,0.0,0.0,0.0,0.0,0.0,0.0,0.0,0.0,0.0,0.0,0.0,0.0,0.0,0.0,0.0,0.0,0.0,0.0,0.0,0.0,0.0,0.0,0.0,0.0,0.0,0.0,0.0,0.0,0.0,0.0,0.0,0.0,0.0,0.0,0.0,0.0,0.0,0.0,0.0,0.0,0.0,0.0,0.0,0.0,0.0,0.0,0.0,0.0,0.0,0.0,0.0,0.0,0.0,0.0,0.0,0.0,0.0,0.0,0.0,0.0,0.0,0.0,0.0,0.0,0.0,0.0,0.0,0.0,0.0,0.0,0.0,0.0,0.0,0.0,0.0,0.0,0.0,0.0,0.0,0.0,0.0,0.0,0.0,0.0,0.0,0.0,0.0,0.0,0.0,0.0,0.0,0.0,0.0,0.0,0.0,0.0,0.0,0.0,0.0,0.0,0.0,0.0,0.0,0.0,0.0,0.0,0.0,0.0,0.0,0.0,0.0,0.0,0.0,0.0,0.0,0.0,0.0,0.0,0.0,0.0,0.0,0.0,0.0,0.0,0.0,0.0,0.0,0.0,0.0,0.0,0.0,0.0,0.0,0.0,0.0,0.0,0.0,0.0,0.0,0.0,0.0,0.0,0.0,0.0,0.0,0.0,0.0,0.0,0.0,0.0,0.0,0.0,0.0,0.0,0.0,0.0,0.0,0.0,0.0,0.0,0.0,0.0,0.0,0.0,0.0,0.0,0.0,0.0,0.0,0.0,0.0,0.0,0.0,0.0,0.0,0.0,0.0,0.0,0.0,0.0,0.0,0.0,0.0,0.0,0.0,0.0,0.0,0.0,0.0,0.0,0.0,0.0,0.0,0.0,0.0,0.0,0.0,0.0,0.0,0.0,0.0,0.0,0.0,0.0,0.0,0.0,0.0,0.0,0.0,0.0,0.0,0.0,0.0,0.0,0.0,0.0,0.0,0.0,0.0,0.0,0.0,0.0,0.0,0.0,0.0,0.0,0.0,0.0,0.0,0.0,0.0,0.0,0.0,0.0,0.0,0.0,0.0,0.0,0.0,0.0,0.0,0.0,0.0,0.0,0.0,0.0,0.0,0.0,0.0,0.0,0.0,0.0,0.0,0.0,0.0,0.0,0.0,0.0,0.0,0.0,0.0,0.0,0.0,0.0,0.0,0.0,0.0,0.0,0.0,0.0,0.0,0.0,0.0,0.0,0.0,0.0,0.0,0.0,0.0,0.0,0.0,0.0,0.0,0.0,0.0,0.0,0.0,0.0,0.0,0.0,0.0,0.0,0.0,0.0,0.0,0.0,0.0,0.0,0.0,0.0,0.0,0.0,0.0,0.0,0.0,0.0,0.0,0.0,0.0,0.0,0.0,0.0,0.0,0.0,0.0,0.0,0.0,0.0,0.0,0.0,0.0,0.0,0.0,0.0,0.0,0.0,0.0,0.0,0.0,0.0,0.0,0.0,0.0,0.0,0.0,0.0,0.0,0.0,0.0,0.0,0.0,0.0,0.0,0.0,0.0,0.0,0.0,0.0,0.0,0.0,0.0,0.0,0.0,0.0,0.0,0.0,0.0,0.0,0.0,0.0,0.0,0.0,0.0,0.0,0.0,0.0,0.0,0.0,0.0,0.0,0.0,0.0,0.0,0.0,0.0,0.0,0.0,0.0,0.0,0.0,0.0,0.0,0.0,0.0,0.0,0.0,0.0,0.0,0.0,0.0,0.0,0.0,0.0,0.0,0.0,0.0,0.0,0.0,0.0,0.0,0.0,0.0,0.0,0.0,0.0,0.0,0.0,0.0,0.0,0.0,0.0,0.0,0.0,0.0,0.0,0.0,0.0,0.0,0.0,0.0,0.0,0.0,0.0,0.0,0.0,0.0,0.0,0.0,0.0,0.0,0.0,0.0,0.0,0.0,0.0,0.0,0.0,0.0,0.0,0.0,0.0,0.0,0.0,0.0,0.0,0.0,0.0,0.0,0.0,0.0,0.0,0.0,0.0,0.0,0.0,0.0,0.0,0.0,0.0,0.0,0.0,0.0,0.0,0.0,0.0,0.0,0.0,0.0,0.0,0.0,0.0,0.0,0.0,0.0,0.0,0.0,0.0,0.0,0.0,0.0,0.0,0.0,0.0,0.0,0.0,0.0,0.0,0.0,0.0,0.0,0.0,0.0,0.0,0.0,0.0,0.0,0.0,0.0,0.0,0.0,0.0,0.0,0.0,0.0,0.0,0.0,0.0,0.0,0.0,0.0,0.0,0.0,0.0,0.0,0.0,0.0,0.0,0.0,0.0,0.0,0.0,0.0,0.0,0.0,0.0,0.0,0.0,0.0,0.0,0.0,0.0,0.0,0.0,0.0,0.0,0.0,0.0,0.0,0.0,0.0,0.0,0.0,0.0,0.0,0.0,0.0,0.0,0.0,0.0,0.0,0.0,0.0,0.0,0.0,0.0,0.0,0.0,0.0,0.0,0.0,0.0,0.0,0.0,0.0,0.0,0.0,0.0,0.0,0.0,0.0,0.0,0.0,0.0,0.0,0.0,0.0,0.0,0.0,0.0,0.0,0.0,0.0,0.0,0.0,0.0,0.0,0.0,0.0,0.0,0.0,0.0,0.0,0.0,0.0,0.0,0.0,0.0,0.0,0.0,0.0,0.0,0.0,0.0,0.0,0.0,0.0,0.0,0.0,0.0,0.0,0.0,0.0,0.0,0.0,0.0,0.0,0.0,0.0,0.0,0.0,0.0,0.0,0.0,0.0,0.0,0.0,0.0,0.0,0.0,0.0,0.0,0.0,0.0,0.0,0.0,0.0,0.0,0.0,0.0,0.0,0.0,0.0,0.0,0.0,0.0,0.0,0.0,0.0,0.0,0.0,0.0,0.0,0.0,0.0,0.0,0.0,0.0,0.0,0.0,0.0,0.0,0.0,0.0,0.0,0.0,0.0,0.0,0.0,0.0,0.0,0.0,0.0,0.0,0.0,0.0,0.0,0.0,0.0,0.0,0.0,0.0,0.0,0.0,0.0,0.0,0.0,0.0,0.0,0.0,0.0,0.0,0.0,0.0,0.0,0.0,0.0,0.0,0.0,0.0,0.0,0.0,0.0,0.0,0.0,0.0,0.0,0.0,0.0,0.0,0.0,0.0,0.0,0.0,0.0,0.0,0.0,0.0,0.0,-0.04,0.0,0.0,0.0,0.0,0.0,0.0,0.0,0.0,0.0,0.0,0.0,0.0,0.0,0.0,0.0,0.0,0.0,0.0,0.0,0.0,0.0,0.0,0.0,0.0,-0.1552,-0.1748,-0.2001,-0.2521,-0.2849,-0.2849,0.0,0.0,0.0,0.0,0.0,-0.2604,-0.2534,-0.2534,-0.2604,-0.2759,-0.2916,-0.3017,-0.2824,-0.2432,-0.192,0.0,0.0,0.0,0.0,0.0,0.0,0.0,0.0,0.0,0.0,0.0,0.0,0.0,0.0,0.0,0.0,0.0,0.0,0.0,0.0,0.0,0.0,0.0,0.0,0.0,0.0,0.0,0.0,0.0,0.0,0.0,0.0,0.0,0.0,0.0,0.0,0.0,0.0,0.0,0.0,0.0,0.0,0.0,0.0,0.0,0.0,0.0,0.0,0.0,0.0,0.0,0.0,0.0,0.0,0.0,0.0,0.0,0.0,0.0,0.0,0.0,0.0,0.0,0.0,0.0,0.0,0.0,0.0,0.0,0.0,0.0,-0.1282,0.0,0.0,0.0,0.0,0.0,0.0,0.0,0.0,0.0,0.0,0.0,0.0,0.0,0.0,0.0,0.0,0.0,0.0,0.0,0.0,0.0,-0.1337,-0.1755,-0.196,-0.22,-0.2531,-0.2884,-0.3093,-0.3093,-0.3347,0.0,0.0,0.0,-0.3034,-0.2755,-0.2799,-0.2832,-0.2832,-0.3222,-0.3549,-0.3761,-0.3721,-0.333,-0.2649,-0.2093,0.0,0.0,0.0,0.0,0.0,0.0,0.0,0.0,0.0,0.0,0.0,0.0,0.0,0.0,0.0,0.0,0.0,0.0,0.0,0.0,0.0,0.0,0.0,0.0,0.0,0.0,0.0,0.0,0.0,0.0,0.0,0.0,0.0,0.0,0.0,0.0,0.0,0.0,0.0,0.0,0.0,0.0,0.0,0.0,0.0,0.0,0.0,0.0,0.0,0.0,0.0,0.0,0.0,0.0,0.0,0.0,0.0,0.0,0.0,0.0,0.0,0.0,0.0,-0.3486,-0.3842,-0.4504,-0.4007,-0.378,-0.3753,-0.3248,-0.297,-0.2826,-0.2215,0.0,0.0,0.0,0.0,0.0,0.0,0.0,0.0,0.0,0.0,0.0,0.0,0.0,0.0,0.0,0.0,0.0,0.0,0.0,-0.153,-0.1777,-0.2132,-0.2367,-0.242,-0.2843,-0.3093,-0.3093,-0.3347,0.0,0.0,-0.3446,-0.3433,-0.3393,-0.3603,-0.3724,-0.3724,-0.4407,-0.4758,-0.4785,-0.4557,-0.4205,-0.3726,-0.2564,-0.2002,-0.1795,0.0,0.0,0.0,0.0,0.0,0.0,0.0,0.0,0.0,0.0,0.0,0.0,0.0,0.0,0.0,0.0,0.0,0.0,0.0,0.0,0.0,0.0,0.0,0.0,0.0,0.0,0.0,0.0,0.0,0.0,0.0,0.0,0.0,0.0,0.0,0.0,0.0,0.0,0.0,0.0,0.0,-0.1717,-0.1796,0.0,0.0,0.0,0.0,0.0,0.0,0.0,0.0,0.0,0.0,0.0,0.0,0.0,-0.2672,-0.3337,-0.3344,-0.3422,-0.3622,-0.5518,-0.7007,-0.8049,-0.5509,-0.4398,-0.4395,-0.4312,0.0,-0.3415,-0.2846,0.0,0.0,0.0,0.0,0.0,0.0,0.0,0.0,0.0,0.0,0.0,0.0,0.0,0.0,0.0,0.0,0.0,0.0,0.0,0.0,0.0,-0.2643,-0.2846,-0.3007,-0.3201,-0.332,-0.332,-0.3433,-0.3506,-0.3506,-0.3506,-0.3569,-0.3731,-0.3848,-0.4106,-0.4508,-0.5482,-0.597,-0.5969,-0.5945,-0.5868,-0.5652,-0.4503,-0.3357,-0.2225,-0.1484,0.0,0.0,0.0,0.0,0.0,0.0,0.0,0.0,0.0,0.0,0.0,0.0,0.0,0.0,0.0,0.0,0.0,0.0,0.0,0.0,0.0,0.0,0.0,0.0,0.0,0.0,0.0,0.0,0.0,0.0,0.0,0.0,0.0,0.0,0.0,0.0,0.0,0.0,0.0,-0.2632,-0.3003,-0.3688,-0.2897,-0.218,0.0,0.0,0.0,0.0,0.0,0.0,0.0,0.0,0.0,-0.4654,-0.375,-0.3955,-0.5518,-0.6186,-0.6504,-0.6504,-0.5898,-0.5896,-0.6362,-0.5062,-0.5386,-0.6848,-0.5222,-0.4371,-0.4079,-0.3475,-0.3066,-0.2791,0.0,0.0,0.0,0.0,-0.2702,-0.3188,0.0,0.0,0.0,0.0,0.0,0.0,0.0,0.0,0.0,0.0,0.0,0.0,-0.2899,-0.3096,-0.3293,-0.3486,-0.3506,-0.3506,-0.3506,-0.3569,-0.3605,-0.3605,-0.3668,-0.3786,-0.3986,-0.4195,-0.4746,-0.5693,-0.6553,-0.6954,-0.6943,-0.7219,-0.7149,-0.6753,-0.6169,-0.4848,-0.3046,-0.2321,-0.1353,0.0,0.0,0.0,0.0,0.0,0.0,0.0,0.0,0.0,0.0,0.0,0.0,0.0,0.0,0.0,0.0,0.0,0.0,0.0,0.0,0.0,0.0,0.0,0.0,0.0,0.0,0.0,0.0,0.0,0.0,0.0,0.0,0.0,0.0,0.0,0.0,0.0,0.0,-0.3247,-0.4135,-0.5188,-0.4418,-0.3318,0.0,0.0,0.0,0.0,0.0,0.0,-0.3792,-0.3262,-0.4167,-0.691,-0.5665,-0.5744,-0.7437,-0.7639,-0.8043,-0.8752,-0.6632,-0.5605,-0.5546,-0.4842,-0.566,-0.7557,-0.5441,-0.4519,-0.4484,-0.4038,-0.3852,-0.3808,-0.3355,-0.3083,-0.2946,-0.2946,-0.3331,-0.3852,0.0,0.0,0.0,0.0,0.0,0.0,0.0,0.0,0.0,0.0,0.0,-0.2918,-0.3068,-0.332,-0.3493,-0.3506,-0.3506,-0.3506,-0.3506,-0.3751,-0.389,-0.389,-0.413,-0.4273,-0.4293,-0.4976,-0.6067,-0.7569,-0.7637,-0.7607,-0.758,-0.807,-0.7586,-0.6263,-0.6717,-0.6187,-0.4871,-0.3307,-0.2436,-0.1962,0.0,0.0,0.0,0.0,0.0,0.0,0.0,0.0,0.0,0.0,0.0,0.0,0.0,0.0,0.0,0.0,0.0,0.0,0.0,0.0,0.0,0.0,0.0,0.0,0.0,0.0,0.0,0.0,0.0,0.0,0.0,0.0,0.0,0.0,0.0,0.0,0.0,0.0,0.0,-0.5242,-0.6184,0.0,0.0,0.0,0.0,-0.5128,-0.6145,-0.6743,-0.6803,-0.4728,-0.4621,-0.6937,-0.8026,-0.8613,-0.8717,-0.6072,-0.6091,-0.8804,-0.8646,-0.8593,-0.848,-0.5764,-0.457,-0.468,-0.457,-0.4519,-0.4515,-0.4484,-0.4474,-0.447,-0.444,-0.4079,-0.3534,-0.3534,-0.3959,-0.4474,0.0,0.0,0.0,0.0,0.0,-0.1046,-0.1097,-0.1511,-0.1993,-0.2453,-0.2971,-0.3427,-0.3828,-0.3987,-0.3994,-0.3787,-0.3805,-0.3727,-0.3519,-0.3744,-0.4021,-0.4327,-0.4592,-0.4944,-0.5391,-0.6381,-0.7146,-0.7695,-0.8522,-0.8894,-0.8902,-0.905,-0.8826,-0.8318,-0.778,-0.7202,-0.6479,-0.4993,-0.3869,-0.2952,-0.2015,-0.1337,0.0,0.0,0.0,0.0,0.0,0.0,0.0,0.0,0.0,0.0,0.0,0.0,0.0,0.0,0.0,0.0,0.0,0.0,0.0,0.0,0.0,0.0,0.0,0.0,0.0,0.0,0.0,0.0,0.0,0.0,0.0,0.0,0.0,0.0,0.0,0.0,0.0,-0.6827,-0.6191,0.0,-0.5498,-0.4347,-0.4387,-0.627,-0.6787,-0.7355,-0.813,-0.7369,-0.6463,-0.5397,-0.5832,-0.6036,-0.6036,-0.6848,-0.7771,-0.8804,-0.8804,-0.7824,-0.5982,-0.4952,-0.4519,-0.4519,-0.4519,-0.4519,-0.4519,-0.4519,-0.4519,-0.4519,-0.4519,-0.4388,-0.4199,-0.4199,-0.4333,-0.4519,0.0,0.0,0.0,0.0,-0.1013,-0.1118,-0.1166,-0.1794,-0.2419,-0.2808,-0.3396,-0.3897,-0.4268,-0.4356,-0.429,-0.4058,-0.4014,-0.3933,-0.3787,-0.3931,-0.4211,-0.4614,-0.518,-0.5892,-0.6749,-0.754,-0.8086,-0.8337,-0.9184,-0.9587,-0.9554,-0.9712,-0.9558,-0.9199,-0.8675,-0.8101,-0.7489,-0.6577,-0.5401,-0.4078,-0.3154,-0.2534,-0.2072,0.0,0.0,0.0,0.0,0.0,0.0,0.0,0.0,0.0,0.0,0.0,0.0,0.0,0.0,0.0,0.0,0.0,0.0,0.0,0.0,0.0,0.0,0.0,0.0,0.0,0.0,0.0,0.0,0.0,0.0,0.0,0.0,0.0,0.0,0.0,-0.6159,-0.7424,-0.6588,-0.6204,-0.6917,-0.5269,-0.5104,-0.7445,-0.7622,-0.7525,-0.7357,-0.7337,-0.647,-0.457,-0.4519,-0.4519,-0.4519,-0.6416,-0.7337,-0.7337,-0.7337,-0.6362,-0.4519,-0.4519,-0.4519,-0.4519,-0.4519,-0.4519,-0.457,-0.555,-0.5928,-0.5873,-0.4897,-0.4519,-0.4519,-0.4519,-0.4519,-0.4519,0.0,0.0,0.0,-0.091,-0.1013,-0.1156,-0.128,-0.2164,-0.2853,-0.2991,-0.377,-0.4313,-0.4333,-0.4378,-0.4403,-0.4317,-0.4126,-0.4109,-0.4297,-0.4313,-0.4443,-0.4742,-0.5846,-0.7046,-0.829,-0.8399,-0.8818,-0.9592,-0.9612,-0.9601,-0.9518,-1.004,-0.9765,-0.8773,-0.9297,-0.8943,-0.7983,-0.7942,-0.7041,-0.5466,-0.4127,-0.3382,-0.3007,0.0,0.0,0.0,0.0,0.0,0.0,0.0,0.0,0.0,0.0,0.0,0.0,0.0,0.0,0.0,0.0,0.0,0.0,0.0,0.0,0.0,0.0,0.0,0.0,0.0,0.0,0.0,0.0,0.0,0.0,0.0,0.0,0.0,-0.5524,-0.6041,-0.6666,-0.7014,-0.753,-0.7656,-0.7092,-0.7074,-0.7555,-0.8717,-0.8804,-0.7551,-0.468,-0.4519,-0.4519,-0.4519,-0.4519,-0.4519,-0.4519,-0.4519,-0.4519,-0.4519,-0.4519,-0.4519,-0.4519,-0.4519,-0.4519,-0.4519,-0.4519,-0.4519,-0.4736,-0.7503,-0.8646,-0.8374,-0.5605,-0.4519,-0.4519,-0.4519,-0.4519,-0.4519,0.0,0.0,-0.0932,-0.1024,-0.1156,-0.1291,-0.1427,-0.2305,-0.3053,-0.3321,-0.4087,-0.4666,-0.4853,-0.4937,-0.4884,-0.4601,-0.4584,-0.4507,-0.4317,-0.4486,-0.4987,-0.5888,-0.717,-0.8009,-0.8378,-0.895,-0.9359,-0.9592,-0.9951,-1.0089,-1.0079,-1.0235,-1.0281,-1.0274,-1.0027,-0.998,-0.9935,-0.9015,-0.8239,-0.7545,-0.5902,-0.5018,-0.4538,0.0,0.0,0.0,0.0,0.0,0.0,0.0,0.0,0.0,0.0,0.0,0.0,0.0,0.0,0.0,0.0,0.0,0.0,0.0,0.0,0.0,0.0,0.0,0.0,0.0,0.0,0.0,0.0,0.0,0.0,0.0,0.0,-0.7523,-0.7248,-0.7194,-0.7406,-0.7836,-0.7868,-0.7988,-0.829,-0.8317,-0.845,-0.8784,-0.8804,-0.7551,-0.468,-0.4519,-0.4519,-0.4519,-0.4519,-0.4519,-0.4519,-0.4519,-0.4519,-0.4519,-0.4519,-0.4519,-0.4519,-0.4519,-0.4519,-0.4519,-0.4519,-0.4519,-0.457,-0.5332,-0.566,-0.5605,-0.4791,-0.4519,-0.4519,-0.4519,-0.4519,-0.4519,0.0,-0.094,-0.1002,-0.1086,-0.1254,-0.1465,-0.1674,-0.2567,-0.3318,-0.3637,-0.4365,-0.4932,-0.5088,-0.515,-0.5059,-0.4722,-0.4916,-0.4878,-0.448,-0.4909,-0.5771,-0.7138,-0.796,-0.8642,-0.9154,-0.9633,-0.9902,-0.9902,-1.0156,-1.0283,-1.0283,-1.0459,-1.0674,-1.0877,-1.0799,-1.0749,-1.0749,-1.0013,-0.9316,-0.855,-0.7426,-0.6467,-0.5538,-0.4261,-0.3479,-0.3055,-0.2905,-0.2642,-0.2327,-0.2416,0.0,0.0,0.0,0.0,0.0,0.0,0.0,0.0,0.0,0.0,0.0,0.0,0.0,0.0,0.0,0.0,0.0,0.0,0.0,0.0,0.0,0.0,0.0,0.0,-0.7622,-0.8297,-0.8297,-0.8036,-0.7956,-0.825,-0.829,-0.843,-0.8771,-0.8804,-0.8804,-0.8804,-0.7664,-0.6253,-0.457,-0.4519,-0.4519,-0.4519,-0.4519,-0.4519,-0.4519,-0.4519,-0.4519,-0.4519,-0.4519,-0.4519,-0.4519,-0.4519,-0.4519,-0.4519,-0.4519,-0.4519,-0.4519,-0.4519,-0.4519,0.0,0.0,0.0,0.0,0.0,-0.4519,-0.4519,0.0,-0.1002,-0.1108,-0.1118,-0.1335,-0.1616,-0.197,-0.2865,-0.3597,-0.3904,-0.4622,-0.5108,-0.5146,-0.5177,-0.5071,-0.4782,-0.5183,-0.5283,0.0,-0.5592,-0.6685,-0.8181,-0.8418,-0.9034,-1.0103,-1.0238,-1.0283,-1.0283,-1.0283,-1.0303,-1.0361,-1.0732,-1.0957,-1.1074,-1.1465,-1.143,-1.1021,-1.0931,-1.026,-0.9136,-0.8843,-0.7757,-0.6252,-0.5331,-0.4686,-0.4195,-0.3994,-0.339,-0.2683,-0.2683,0.0,0.0,0.0,0.0,0.0,0.0,0.0,0.0,0.0,0.0,0.0,0.0,0.0,0.0,0.0,0.0,0.0,0.0,0.0,0.0,0.0,0.0,0.0,0.0,-0.8804,-0.8804,-0.8804,-0.8584,-0.8424,-0.8424,-0.8651,-0.8804,-0.8804,-0.8804,-0.8804,-0.8804,-0.6145,-0.4519,-0.4519,0.0,0.0,0.0,0.0,-0.4519,-0.4519,-0.4519,-0.4519,-0.4519,-0.4519,-0.4519,-0.4519,-0.4519,-0.4519,-0.4519,-0.4519,-0.4519,-0.4519,-0.4519,-0.4519,-0.4519,-0.4519,-0.4519,-0.4519,-0.4519,-0.4519,-0.4519,0.0,-0.1002,-0.1134,-0.1247,-0.1394,-0.1649,-0.2093,-0.2922,-0.3676,-0.4152,-0.4743,-0.5185,-0.5387,-0.5244,-0.5096,-0.5039,-0.5447,-0.5831,0.0,0.0,-0.7461,-0.7802,-0.8822,-0.9463,-0.9702,-1.0097,-1.0283,-1.0283,-1.0283,-1.0459,-1.0791,-1.0869,-1.1289,-1.1927,-1.2061,-1.2248,-1.2426,-1.1849,-1.1361,-1.0877,-1.0292,-0.8906,-0.7139,-0.6112,-0.563,-0.5471,-0.4888,-0.4271,-0.3724,-0.3724,-0.3286,-0.2791,-0.3014,0.0,0.0,0.0,0.0,0.0,0.0,0.0,0.0,0.0,0.0,0.0,0.0,0.0,0.0,0.0,0.0,0.0,0.0,0.0,0.0,-0.8731,-0.8804,-0.8804,-0.8804,-0.8758,-0.8724,-0.8724,-0.8778,-0.8804,-0.8804,-0.8804,-0.8804,-0.8804,-0.6145,-0.4519,-0.4519,-0.4519,-0.4519,-0.4519,-0.4519,-0.4519,-0.4519,-0.4519,-0.4519,-0.4519,0.0,0.0,-0.4519,-0.4519,-0.4519,-0.4519,-0.4519,-0.4519,-0.4519,-0.4519,-0.4519,-0.4519,-0.4519,-0.4519,-0.4519,-0.4519,-0.4519,-0.4519,-0.0984,-0.1112,-0.1226,-0.1291,-0.1491,-0.1863,-0.2499,-0.3115,-0.3786,-0.4599,-0.5056,-0.5349,-0.5492,-0.5368,-0.5195,-0.4932,-0.5487,0.0,0.0,-0.7756,-0.8344,-0.835,-0.9411,-0.9983,-0.9951,-1.0166,-1.0283,-1.0283,-1.0283,-1.0498,-1.0918,-1.1133,-1.1592,-1.219,-1.2461,-1.2676,-1.2881,-1.2501,-1.2067,-1.1556,-1.1072,-1.0109,-0.8844,-0.7666,-0.6803,-0.618,-0.5722,-0.5108,-0.4533,-0.4533,-0.4247,-0.3921,-0.4068,-0.3751,-0.337,0.0,0.0,0.0,0.0,0.0,0.0,0.0,0.0,0.0,0.0,0.0,0.0,0.0,0.0,-0.5985,0.0,0.0,-0.8804,-0.8804,-0.8804,-0.8804,-0.8804,-0.8804,-0.8646,-0.8321,-0.8586,-0.8804,-0.8804,-0.7498,-0.6632,-0.6632,-0.5332,-0.4519,-0.4519,-0.4519,-0.4519,-0.4519,-0.4519,-0.4519,-0.4519,-0.4519,-0.4519,-0.4519,-0.4519,-0.4519,-0.4519,-0.4519,-0.4519,-0.4519,-0.4519,-0.4519,-0.4519,-0.4519,-0.4519,-0.4519,-0.4519,-0.4519,-0.4519,-0.4519,-0.4519,-0.4519,-0.1075,-0.1232,-0.1335,-0.1335,-0.1641,-0.2126,-0.2885,-0.3318,-0.3956,-0.5028,-0.5309,-0.5473,-0.5568,-0.5492,-0.5302,-0.5025,0.0,0.0,0.0,-0.8519,-0.9259,-0.9268,-1.0074,-1.0505,-1.0418,-1.0361,-1.0283,-1.0283,-1.0361,-1.0625,-1.1045,-1.1484,-1.1934,-1.2373,-1.2725,-1.2881,-1.2881,-1.2881,-1.2559,-1.2003,-1.1777,-1.1259,-1.055,-0.9366,-0.8128,-0.693,-0.6489,-0.5878,-0.5217,-0.5305,-0.5132,-0.4903,-0.4969,-0.4653,-0.4284,-0.4242,-0.3957,0.0,0.0,0.0,0.0,0.0,0.0,0.0,0.0,0.0,-0.7228,-0.7348,-0.8136,-0.851,-0.7548,-0.8156,-0.8804,-0.8804,-0.8804,-0.8804,-0.8804,-0.8804,-0.8593,-0.799,-0.8427,-0.8804,-0.8804,-0.6199,-0.4519,-0.4519,-0.4519,-0.4519,-0.4519,-0.4519,-0.4519,-0.4519,-0.4519,-0.4519,-0.4519,-0.4519,-0.4519,-0.4519,-0.4519,-0.4519,-0.4519,-0.4519,-0.4519,-0.4519,-0.4519,-0.4519,-0.4519,-0.4519,-0.4519,-0.4519,-0.4519,-0.4519,-0.4519,-0.4519,-0.4519,-0.4519,0.0,-0.1303,-0.148,-0.148,-0.1846,-0.2345,-0.2908,-0.3483,-0.423,-0.5322,-0.5271,-0.5319,-0.58,-0.5434,-0.5393,-0.5982,0.0,0.0,-0.7853,-0.9307,-1.0151,-1.0155,-1.0652,-1.0929,-1.0905,-1.0505,-1.0283,-1.0283,-1.0654,-1.1064,-1.1538,-1.1943,-1.2383,-1.2812,-1.2861,-1.2881,-1.2881,-1.2881,-1.2832,-1.2764,-1.2725,-1.2278,-1.1563,-1.084,-0.9617,-0.8173,-0.7256,-0.634,-0.5665,-0.5977,-0.5542,-0.4948,-0.5176,-0.4947,-0.4516,-0.4419,0.0,-0.4147,-0.4315,-0.4756,-0.5352,-0.6062,-0.6129,-0.6317,0.0,0.0,-0.7928,-0.8504,-0.8711,-0.8764,-0.8631,-0.8717,-0.8804,-0.8804,-0.8804,-0.8804,-0.8804,-0.8804,-0.8752,-0.8699,-0.8752,-0.8804,-0.8804,-0.6199,-0.4519,-0.4519,-0.4519,-0.4519,-0.4519,-0.4519,-0.4519,-0.4519,-0.4519,-0.4519,-0.4519,-0.4519,-0.4519,-0.4519,-0.4519,-0.4519,-0.4519,-0.4519,-0.4519,-0.4519,-0.4519,-0.4519,-0.4519,-0.4519,-0.4519,-0.4519,-0.4519,-0.4519,-0.4519,-0.4519,-0.4519,-0.4519,0.0,-0.1421,-0.156,-0.1761,-0.2015,-0.2448,-0.3173,-0.3632,-0.4284,-0.5353,-0.5406,-0.5425,-0.5633,-0.5463,-0.5449,-0.5763,-0.6847,-0.7554,-0.7581,-0.9446,-1.0454,-1.0316,-1.0716,-1.0955,-1.1008,-1.0544,-1.0283,-1.0283,-1.0703,-1.1133,-1.1616,-1.2021,-1.2461,-1.2881,-1.2881,-1.2881,-1.2881,-1.2881,-1.2881,-1.2881,-1.2881,-1.257,-1.1921,-1.1104,-1.0091,-0.8931,-0.7669,-0.68,0.0,0.0,-0.5968,-0.5659,-0.5782,-0.5554,-0.5245,-0.5182,-0.5267,0.0,-0.5795,-0.6087,-0.6373,0.0,-0.6927,-0.7168,-0.7569,-0.7889,-0.8121,-0.8417,-0.8651,-0.8804,-0.8804,-0.8804,-0.8804,0.0,-0.8804,-0.8804,-0.8804,-0.7337,-0.6902,-0.8586,-0.7337,-0.6308,-0.6308,-0.5222,-0.4519,-0.4519,-0.4519,-0.4519,-0.4519,-0.4519,-0.4519,-0.4519,-0.4519,-0.4519,-0.4519,-0.4519,-0.4519,-0.4519,-0.4519,-0.4519,-0.4519,-0.4519,-0.4519,-0.4536,-0.4893,-0.5047,-0.5047,-0.5047,-0.5047,-0.5047,-0.5047,-0.5047,-0.5006,-0.4649,-0.4519,-0.4519,0.0,-0.1539,-0.1655,-0.1907,-0.2205,-0.2682,-0.3437,-0.381,-0.4373,-0.5365,-0.5492,-0.5492,-0.5492,-0.5435,-0.5444,-0.5595,-0.681,-0.7558,-0.7565,-0.9401,-1.0452,-1.0413,-1.0886,-1.1075,-1.0957,-1.0664,-1.0428,-1.0283,-1.0703,-1.1064,-1.143,-1.1836,-1.2275,-1.2695,-1.2568,-1.2646,-1.2861,-1.2617,-1.2588,-1.2695,-1.2616,-1.2334,-1.1937,-1.1016,-1.0192,-0.9306,-0.7889,-0.7006,0.0,0.0,-0.6068,-0.6055,-0.5974,-0.5825,-0.5725,-0.5812,-0.6099,-0.6473,-0.6807,0.0,0.0,-0.7184,-0.7596,-0.7983,-0.7862,-0.8123,-0.8383,-0.8383,-0.8611,-0.8804,-0.8804,-0.8804,-0.8804,-0.8804,-0.8804,-0.8804,-0.8804,-0.6308,-0.5277,-0.7391,-0.5764,-0.4519,-0.4519,-0.4519,-0.4519,-0.4519,-0.4519,-0.4519,-0.4519,-0.4519,-0.4519,-0.4519,-0.4519,-0.4519,-0.4519,-0.4519,-0.4519,-0.4519,-0.4519,-0.4519,-0.4519,-0.4519,-0.4608,-0.4793,-0.5236,-0.5428,-0.5428,-0.5428,-0.5428,-0.5428,-0.5428,-0.5428,-0.5373,-0.4931,-0.4769,-0.4769,0.0,0.0,-0.1792,-0.1803,-0.2464,-0.3137,-0.3616,-0.4025,-0.4578,-0.5387,-0.5492,-0.5492,-0.5492,-0.5272,-0.5319,-0.5845,-0.6411,-0.7173,-0.8196,-0.9291,-1.0143,-1.0666,-1.1323,-1.1443,-1.0897,-1.0961,-1.0764,-1.0283,-1.0703,-1.0918,-1.0937,-1.142,-1.1816,-1.218,-1.1797,-1.2126,-1.2822,-1.2008,-1.1846,-1.2171,-1.1822,-1.1636,-1.1528,-1.0645,-0.998,-0.9306,-0.7889,0.0,0.0,0.0,-0.5725,-0.5678,-0.5397,-0.5491,0.0,-0.6095,-0.6546,0.0,0.0,0.0,-0.7118,-0.7709,-0.8008,-0.831,-0.8684,-0.8778,-0.8791,-0.8791,-0.8798,-0.8804,-0.8804,-0.8804,-0.8804,-0.8804,-0.8804,-0.8804,-0.8804,-0.6308,-0.4515,-0.4625,-0.4574,-0.4519,0.0,-0.4519,-0.4519,-0.4519,-0.4519,-0.4519,-0.4519,-0.4519,-0.4519,-0.4519,-0.4519,-0.4519,-0.4519,-0.4519,-0.4519,-0.4519,-0.4519,-0.4519,-0.4519,-0.4519,-0.4841,-0.5401,-0.5418,-0.5428,-0.5428,-0.5428,-0.5428,-0.5428,-0.5428,-0.5428,-0.5425,-0.5408,-0.5401,-0.5401,0.0,0.0,0.0,-0.2183,-0.2833,-0.347,-0.3909,-0.43,-0.4726,-0.5166,-0.5233,0.0,0.0,0.0,0.0,0.0,-0.6556,-0.7171,-0.7681,-0.8509,-0.9226,-0.9797,-1.0102,-1.0491,-1.1012,-1.097,-1.0887,-1.0764,-1.1214,-1.1226,-1.0918,-1.14,-1.1685,-1.1777,-1.1675,-1.1773,-1.2028,-1.1734,-1.1694,-1.1768,-1.1665,-1.143,-1.1094,-1.0811,-0.9886,-0.8677,0.0,0.0,0.0,-0.5524,-0.5246,-0.5119,-0.5251,0.0,0.0,-0.6246,-0.672,-0.7088,-0.7395,0.0,-0.7969,-0.8176,-0.8417,-0.8644,-0.8778,-0.8804,-0.8804,-0.8804,-0.8804,-0.8804,-0.8804,-0.8804,-0.8804,-0.8804,-0.8804,-0.8804,-0.8804,-0.6308,-0.4519,-0.4519,-0.4519,0.0,0.0,0.0,0.0,-0.4519,-0.4519,-0.4519,-0.4519,-0.4519,-0.4519,-0.4519,-0.4519,-0.4519,-0.4519,-0.4519,-0.4519,-0.4519,-0.4519,-0.4519,-0.4519,-0.4519,-0.4628,-0.4845,-0.525,-0.5428,-0.5428,-0.5428,-0.5428,-0.5428,-0.5428,-0.5428,-0.5428,-0.5428,-0.5428,-0.5428,0.0,0.0,0.0,0.0,0.0,0.0,0.0,0.0,0.0,0.0,0.0,0.0,0.0,0.0,0.0,0.0,0.0,0.0,-0.7264,-0.7809,-0.8298,-0.8711,-0.9123,-0.9563,-0.999,-1.0201,-1.0332,-1.0379,-1.0542,-1.0549,-1.0456,-1.0597,-1.0773,-1.0869,-1.0753,-1.0861,-1.1126,-1.0812,-1.0732,-1.0859,-1.0744,-1.0391,-0.999,-0.9834,-0.9004,0.0,0.0,0.0,0.0,-0.5192,-0.4991,0.0,0.0,0.0,-0.6012,-0.658,-0.7027,-0.741,-0.7956,-0.8203,-0.8357,-0.849,-0.8671,-0.8804,-0.8804,-0.8804,-0.8804,-0.8804,-0.8804,-0.8804,-0.8804,-0.7937,-0.7283,-0.7283,-0.815,-0.8427,-0.7391,-0.5655,-0.4519,-0.4519,-0.4519,-0.4519,0.0,0.0,0.0,-0.4519,-0.4519,-0.4519,-0.4519,-0.4519,-0.4519,-0.4519,-0.4519,-0.4519,-0.4519,-0.4519,-0.4519,-0.4519,-0.4519,-0.4519,-0.4519,-0.4519,-0.4519,-0.4553,-0.5164,-0.5428,-0.5428,-0.5428,-0.5428,-0.5428,-0.5428,-0.5428,-0.5428,-0.5428,-0.5428,-0.5428,0.0,0.0,0.0,0.0,0.0,0.0,0.0,0.0,0.0,0.0,0.0,0.0,0.0,0.0,0.0,0.0,0.0,0.0,0.0,0.0,0.0,-0.744,-0.8439,-0.867,-0.8001,-0.8748,-0.9186,-0.9273,-0.8879,-0.8962,-0.9493,-0.9104,-0.915,-0.9476,-0.9141,-0.9424,-1.0137,-0.9346,-0.9219,-0.9495,-0.9131,-0.8721,-0.8301,-0.7861,0.0,0.0,0.0,0.0,0.0,0.0,0.0,0.0,0.0,0.0,0.0,-0.7041,-0.743,-0.8016,-0.8297,-0.8317,-0.8343,-0.8717,-0.8804,-0.8804,-0.8804,-0.8798,-0.8791,-0.8804,-0.8784,-0.8771,0.0,0.0,-0.4519,-0.4519,-0.6794,-0.7664,-0.5007,-0.4574,-0.4519,0.0,0.0,0.0,0.0,0.0,0.0,-0.4519,0.0,-0.4519,-0.4519,-0.4519,-0.4519,-0.4519,-0.4519,-0.4519,-0.4519,-0.4519,-0.4519,-0.4519,-0.4519,-0.4519,-0.4519,-0.4549,-0.4563,-0.4597,-0.5178,-0.5428,-0.5428,-0.5428,-0.5428,-0.5428,-0.5428,-0.5428,-0.5428,-0.5428,-0.5428,-0.5428,0.0,0.0,0.0,0.0,0.0,0.0,0.0,0.0,0.0,0.0,0.0,0.0,0.0,0.0,0.0,0.0,0.0,0.0,0.0,0.0,0.0,0.0,0.0,-0.7635,-0.7838,-0.8339,-0.8642,-0.8699,-0.8613,-0.8444,-0.8168,-0.8077,-0.8075,-0.8192,-0.8437,-0.8662,-0.8901,-0.8965,-0.8887,-0.8691,0.0,-0.8281,-0.7851,0.0,0.0,0.0,0.0,0.0,0.0,0.0,0.0,0.0,0.0,0.0,-0.7348,0.0,0.0,-0.8277,-0.835,-0.8517,-0.8684,-0.8784,-0.8804,-0.8804,-0.8804,-0.8644,-0.855,-0.8764,-0.8457,-0.829,0.0,0.0,0.0,-0.4519,-0.5117,0.0,-0.6046,-0.5171,0.0,-0.4519,0.0,-0.4519,-0.4519,-0.4519,0.0,0.0,-0.4519,-0.4519,-0.4519,-0.4519,-0.4519,-0.4519,-0.4519,-0.4519,-0.4519,-0.4519,-0.4519,-0.4519,-0.4519,-0.4519,-0.4532,-0.4989,-0.5195,-0.5205,-0.536,-0.5428,-0.5428,-0.5428,-0.5428,-0.5428,-0.5428,-0.5428,-0.5428,-0.5428,-0.5428,-0.5428,0.0,0.0,0.0,0.0,0.0,0.0,0.0,0.0,0.0,0.0,0.0,0.0,0.0,0.0,0.0,0.0,0.0,0.0,0.0,0.0,0.0,0.0,-0.6181,-0.6413,-0.661,-0.6835,-0.7072,-0.7356,0.0,0.0,-0.7048,-0.7112,-0.7067,-0.6959,-0.7346,-0.751,-0.7539,-0.791,0.0,0.0,0.0,0.0,0.0,0.0,0.0,0.0,0.0,0.0,0.0,0.0,0.0,-0.8024,-0.7939,-0.7968,-0.8095,-0.7916,0.0,-0.8404,-0.853,-0.8684,-0.8804,-0.8804,-0.854,-0.8311,-0.8375,-0.7885,-0.7493,-0.7607,-0.7262,0.0,-0.6234,-0.4894,0.0,0.0,0.0,0.0,-0.5592,-0.5277,-0.4842,0.0,-0.4519,0.0,-0.4519,-0.4519,-0.4519,0.0,-0.4519,-0.4519,-0.4519,-0.4519,-0.4519,-0.4519,-0.4519,-0.4519,-0.4519,-0.4519,-0.4519,-0.4519,-0.4519,-0.4659,-0.4927,-0.5274,-0.5428,-0.5428,-0.5428,-0.5428,-0.5428,-0.5428,-0.5428,-0.5428,-0.5428,-0.5428,-0.5428,-0.5428,-0.5428,-0.5428,0.0,0.0,0.0,0.0,0.0,0.0,0.0,0.0,0.0,0.0,0.0,0.0,0.0,0.0,0.0,0.0,0.0,0.0,0.0,0.0,0.0,0.0,-0.5404,-0.5289,-0.5049,-0.5011,-0.5224,0.0,0.0,0.0,0.0,0.0,0.0,0.0,0.0,0.0,0.0,0.0,0.0,0.0,0.0,0.0,0.0,0.0,0.0,0.0,0.0,0.0,0.0,0.0,-0.9448,-0.9089,-0.8897,-0.8929,-0.8974,-0.8692,-0.8531,-0.8484,-0.8738,-0.8804,-0.8804,-0.8804,-0.8321,-0.7798,-0.7582,-0.6807,-0.607,-0.5962,0.0,-0.4834,-0.3019,-0.2934,-0.3303,-0.3799,0.0,-0.5203,-0.4597,-0.5003,-0.5164,-0.457,-0.4519,-0.4519,-0.4519,-0.4519,-0.4519,-0.4519,-0.4519,-0.4519,-0.4519,-0.4519,-0.4519,-0.4519,-0.4519,-0.4519,-0.4519,-0.4519,-0.4519,-0.4519,-0.4519,-0.4793,-0.5312,-0.5391,-0.5428,-0.5428,-0.5428,-0.5428,-0.5428,-0.5428,-0.5428,-0.5428,-0.5428,-0.5428,-0.5428,-0.5428,-0.5428,-0.5428,0.0,0.0,0.0,0.0,0.0,0.0,0.0,0.0,0.0,0.0,-0.5108,-0.5108,0.0,0.0,0.0,0.0,0.0,0.0,0.0,0.0,0.0,0.0,-0.4962,-0.4824,-0.4765,0.0,0.0,0.0,0.0,0.0,0.0,0.0,0.0,0.0,0.0,0.0,0.0,0.0,0.0,0.0,0.0,0.0,0.0,0.0,0.0,0.0,0.0,0.0,0.0,0.0,-1.0186,-1.0339,-1.0628,-1.0246,-0.9657,-0.9563,-0.9179,-0.8744,-0.8791,-0.8804,-0.8804,-0.8804,-0.8699,-0.8132,-0.6213,-0.5609,0.0,0.0,-0.4534,-0.4003,-0.2888,-0.2995,-0.3388,-0.3812,0.0,0.0,0.0,0.0,-0.4625,0.0,0.0,0.0,0.0,0.0,0.0,0.0,-0.4519,-0.4519,-0.4519,-0.4519,-0.4519,-0.4519,-0.4519,-0.4519,-0.4519,-0.4519,-0.4519,-0.4519,-0.4519,-0.4573,-0.4694,-0.5198,-0.5428,-0.5428,-0.5428,0.0,-0.5428,-0.5428,-0.5428,-0.5428,-0.5428,-0.5428,-0.5428,-0.5428,-0.5428,-0.5428,0.0,0.0,0.0,0.0,0.0,0.0,0.0,0.0,-0.5108,-0.5108,-0.5108,-0.5108,-0.5108,-0.5214,0.0,0.0,0.0,0.0,0.0,0.0,0.0,0.0,0.0,-0.4426,0.0,0.0,0.0,0.0,0.0,0.0,0.0,0.0,0.0,0.0,0.0,0.0,0.0,0.0,0.0,0.0,0.0,0.0,0.0,0.0,0.0,0.0,0.0,0.0,0.0,0.0,-0.9516,-1.0531,-1.1031,-1.1014,-1.0712,-1.0012,-0.9562,-0.9263,-0.891,-0.8804,-0.8804,-0.8804,-0.8332,-0.7476,-0.5711,0.0,0.0,0.0,-0.3386,-0.2995,-0.2659,0.0,0.0,0.0,0.0,0.0,0.0,0.0,0.0,0.0,0.0,0.0,0.0,0.0,-0.4519,-0.4519,-0.4519,-0.4519,-0.4519,-0.4519,-0.4519,-0.4519,-0.4519,-0.4519,-0.4519,-0.4519,-0.4519,-0.4519,-0.4519,-0.4519,-0.4539,-0.515,-0.5428,-0.5428,-0.5428,-0.5428,-0.5428,-0.5428,-0.5428,-0.5428,-0.5428,-0.5428,-0.5428,-0.5428,-0.5226,-0.4958,0.0,0.0,0.0,0.0,0.0,0.0,0.0,-0.4908,-0.5204,-0.5262,-0.5224,-0.5185,-0.5185,-0.5127,-0.5195,0.0,0.0,0.0,0.0,0.0,0.0,0.0,0.0,0.0,0.0,0.0,0.0,0.0,0.0,0.0,0.0,0.0,0.0,0.0,0.0,0.0,0.0,0.0,0.0,0.0,0.0,0.0,0.0,0.0,0.0,0.0,0.0,0.0,0.0,0.0,-0.8428,-0.9537,-1.0446,-1.1094,-1.1336,-1.0187,-0.976,-0.9526,-0.8942,-0.8804,-0.8804,-0.8804,-0.759,-0.6199,-0.538,-0.4029,0.0,0.0,-0.2519,-0.2204,-0.2377,0.0,-0.274,0.0,0.0,0.0,0.0,0.0,0.0,0.0,0.0,0.0,0.0,-0.4519,0.0,-0.4519,-0.4519,-0.4519,-0.4519,-0.4519,-0.4519,-0.4519,-0.4519,-0.4519,-0.4519,-0.4519,-0.4519,-0.4519,-0.4519,-0.4584,-0.4728,-0.5209,-0.5428,-0.5428,-0.5428,-0.5353,-0.5243,-0.5373,-0.5428,-0.5428,-0.5428,-0.5428,-0.5428,-0.5428,-0.5123,-0.466,0.0,0.0,0.0,0.0,0.0,0.0,0.0,-0.5126,-0.5539,-0.5789,-0.5614,-0.5473,-0.5473,-0.5253,-0.5108,0.0,0.0,0.0,0.0,0.0,0.0,0.0,0.0,0.0,0.0,0.0,0.0,0.0,0.0,0.0,0.0,0.0,0.0,0.0,0.0,0.0,0.0,0.0,0.0,0.0,0.0,0.0,0.0,0.0,0.0,0.0,0.0,0.0,0.0,0.0,0.0,-0.6738,-0.8616,-0.9907,-1.0649,-1.0283,0.0,0.0,-0.8888,-0.8804,-0.8804,-0.8804,-0.6519,-0.4386,-0.4689,0.0,0.0,-0.2459,-0.2219,-0.205,-0.2118,-0.2185,0.0,0.0,0.0,-0.3351,0.0,0.0,0.0,0.0,0.0,0.0,0.0,-0.4519,-0.4519,-0.4519,-0.4519,-0.4519,-0.4519,-0.4519,-0.4519,-0.4519,-0.4519,-0.4519,-0.4519,-0.4519,-0.4519,-0.4519,-0.4519,-0.4807,-0.5346,-0.5404,-0.5428,-0.5428,-0.5428,-0.5113,0.0,-0.5198,-0.5428,-0.5428,-0.5428,-0.5428,-0.5428,-0.5428,-0.5391,-0.4882,0.0,0.0,0.0,0.0,0.0,0.0,0.0,-0.4968,-0.5606,-0.5874,-0.58,-0.567,-0.5511,-0.5406,-0.5272,0.0,0.0,0.0,0.0,0.0,0.0,0.0,0.0,0.0,0.0,0.0,0.0,0.0,0.0,0.0,0.0,0.0,0.0,0.0,0.0,0.0,0.0,0.0,0.0,0.0,0.0,0.0,0.0,0.0,0.0,0.0,0.0,0.0,0.0,0.0,0.0,0.0,-0.7471,-0.844,0.0,0.0,-1.0225,-1.0173,-0.9075,-0.8804,-0.8804,-0.8804,-0.6795,-0.4747,-0.4728,0.0,-0.2534,-0.2431,-0.2121,-0.1893,-0.1915,-0.1995,-0.2238,-0.2774,-0.2778,-0.2967,-0.3534,0.0,0.0,0.0,0.0,0.0,0.0,0.0,-0.4519,-0.4519,-0.4519,-0.4519,-0.4519,-0.4519,-0.4519,-0.4519,-0.4519,-0.4519,-0.4519,-0.4519,-0.4519,-0.4519,-0.4519,-0.4646,-0.4893,-0.526,-0.5428,-0.5428,-0.5428,-0.5291,0.0,-0.5329,-0.5428,-0.5428,-0.5428,-0.5202,-0.4924,-0.5291,-0.402,-0.1928,0.0,0.0,0.0,0.0,0.0,-0.3607,-0.389,-0.4827,-0.5606,-0.5874,-0.5837,-0.5708,-0.553,-0.5435,-0.531,-0.5108,0.0,0.0,0.0,0.0,0.0,0.0,0.0,0.0,0.0,0.0,0.0,0.0,0.0,0.0,0.0,0.0,0.0,0.0,0.0,0.0,0.0,0.0,0.0,0.0,0.0,0.0,0.0,0.0,0.0,0.0,0.0,0.0,0.0,0.0,0.0,0.0,0.0,0.0,0.0,0.0,-0.9934,-1.0162,-0.9192,-0.8826,-0.8684,-0.8684,-0.7233,-0.5662,0.0,-0.3885,-0.2819,-0.2417,-0.2047,-0.1805,-0.1809,-0.1908,-0.2143,-0.2579,-0.2592,-0.275,-0.3313,-0.3388,0.0,0.0,0.0,-0.4234,0.0,-0.4491,-0.4519,-0.4519,-0.4519,-0.4519,-0.4519,-0.4519,-0.4519,-0.4519,-0.4519,-0.4519,-0.4519,-0.4519,-0.4519,-0.4519,-0.4519,-0.4519,-0.4532,-0.4961,-0.5157,-0.5167,-0.5349,-0.5325,0.0,-0.5353,-0.5322,-0.5157,-0.5157,-0.4351,-0.3229,-0.366,-0.2214,0.0,0.0,0.0,0.0,0.0,0.0,0.0,0.0,-0.4776,-0.5606,-0.5874,-0.567,-0.5511,-0.5492,-0.5272,-0.5108,-0.5108,0.0,0.0,0.0,0.0,0.0,0.0,0.0,0.0,0.0,0.0,0.0,0.0,0.0,0.0,0.0,0.0,0.0,0.0,0.0,0.0,0.0,0.0,0.0,0.0,0.0,0.0,0.0,0.0,0.0,0.0,0.0,0.0,0.0,0.0,0.0,0.0,0.0,0.0,0.0,0.0,-0.856,-0.8638,-0.9074,-0.8813,-0.8427,-0.8427,-0.7745,-0.6789,0.0,-0.4354,-0.3261,-0.2385,-0.1994,-0.1809,-0.1793,-0.1915,-0.2106,-0.2438,-0.2613,-0.287,-0.3331,-0.3526,0.0,0.0,0.0,-0.4197,-0.4197,-0.4379,-0.4519,-0.4519,-0.4519,0.0,-0.4519,-0.4519,-0.4519,-0.4519,-0.4519,-0.4519,-0.4519,-0.4519,-0.4519,-0.4519,-0.4519,-0.4519,-0.4519,-0.4525,-0.4525,-0.456,-0.5164,-0.5085,0.0,-0.5178,-0.5071,-0.4525,-0.4525,-0.2679,-0.0057,-0.0065,-0.0,0.0,0.0,0.0,0.0,0.0,0.0,0.0,0.0,-0.4532,-0.5276,-0.583,-0.5837,-0.5708,-0.553,-0.5252,-0.5107,-0.5108,0.0,0.0,0.0,0.0,0.0,0.0,0.0,0.0,0.0,0.0,0.0,0.0,0.0,0.0,0.0,0.0,0.0,0.0,0.0,0.0,0.0,0.0,0.0,0.0,0.0,0.0,0.0,0.0,0.0,0.0,0.0,0.0,0.0,0.0,0.0,0.0,0.0,0.0,0.0,0.0,0.0,0.0,-0.7998,-0.8068,-0.8077,-0.7582,-0.6787,-0.5961,-0.5323,-0.4164,-0.301,-0.2291,-0.1964,-0.1798,-0.179,-0.1839,-0.2043,-0.2558,-0.2682,0.0,0.0,0.0,0.0,0.0,0.0,-0.4395,0.0,0.0,-0.4519,-0.4519,-0.4519,-0.4519,-0.4519,-0.4519,-0.4519,-0.4519,-0.4519,-0.4519,-0.4519,-0.4519,-0.4519,-0.4519,-0.4519,-0.4519,-0.4519,-0.4519,-0.4519,-0.4529,-0.4721,-0.4697,-0.4532,-0.4728,-0.4694,-0.4519,-0.4519,-0.2676,0.0,0.0,0.0,0.0,0.0,0.0,0.0,0.0,0.0,0.0,0.0,-0.4054,-0.467,-0.5099,-0.5195,-0.5157,-0.4985,-0.4858,-0.4835,-0.4952,0.0,0.0,0.0,0.0,0.0,0.0,0.0,0.0,0.0,0.0,0.0,0.0,0.0,0.0,0.0,0.0,0.0,0.0,0.0,0.0,0.0,0.0,0.0,0.0,0.0,0.0,0.0,0.0,0.0,0.0,0.0,0.0,0.0,0.0,0.0,0.0,0.0,0.0,0.0,0.0,-0.5242,0.0,0.0,-0.7209,-0.7288,-0.6956,-0.6361,-0.5699,-0.5061,-0.4159,-0.3171,-0.2272,-0.2018,-0.1916,-0.1816,-0.1882,-0.2076,-0.2452,-0.2656,0.0,0.0,0.0,0.0,0.0,0.0,0.0,0.0,-0.4519,-0.4519,-0.4519,-0.4519,-0.4519,-0.4519,-0.4519,-0.4519,-0.4519,-0.4519,-0.4519,-0.4519,-0.4519,-0.4519,-0.4519,-0.4519,-0.4519,-0.4519,-0.4519,-0.4519,-0.4519,-0.4519,-0.4522,0.0,-0.4522,-0.3846,-0.2788,-0.2788,-0.1675,0.0,0.0,0.0,0.0,0.0,0.0,0.0,0.0,0.0,0.0,0.0,0.0,0.0,-0.3882,-0.4028,-0.4105,-0.4078,-0.4217,-0.4398,-0.4631,0.0,0.0,0.0,0.0,0.0,0.0,0.0,0.0,0.0,0.0,0.0,-0.4333,-0.4379,-0.4529,-0.4771,0.0,0.0,0.0,0.0,0.0,0.0,0.0,0.0,0.0,0.0,0.0,0.0,0.0,0.0,0.0,0.0,0.0,0.0,0.0,0.0,0.0,0.0,0.0,0.0,0.0,0.0,0.0,0.0,0.0,0.0,0.0,-0.6188,-0.5773,-0.476,-0.4234,0.0,-0.2408,-0.2196,-0.214,-0.1911,-0.2045,-0.2211,-0.2264,-0.2619,0.0,0.0,0.0,0.0,0.0,-0.421,0.0,-0.4505,-0.4519,-0.4519,-0.4519,-0.4519,-0.4519,-0.4519,-0.4519,-0.4519,-0.4519,-0.4519,-0.4519,-0.4519,-0.4519,-0.4519,-0.4519,-0.4519,-0.4519,-0.4519,-0.4519,-0.4519,0.0,-0.4519,-0.4477,-0.4494,-0.4359,-0.2621,0.0,0.0,0.0,0.0,0.0,0.0,0.0,0.0,0.0,0.0,0.0,0.0,0.0,0.0,0.0,0.0,0.0,-0.4126,-0.4242,-0.3836,-0.4101,-0.4238,0.0,0.0,0.0,0.0,0.0,0.0,0.0,0.0,0.0,0.0,0.0,0.0,-0.4606,-0.5168,-0.5476,-0.5549,-0.5867,0.0,0.0,0.0,0.0,0.0,0.0,0.0,0.0,0.0,0.0,0.0,0.0,0.0,0.0,0.0,-0.4932,0.0,0.0,0.0,0.0,0.0,0.0,0.0,0.0,-0.2417,-0.259,-0.3383,0.0,-0.4141,-0.4228,-0.4382,-0.4398,0.0,-0.3672,-0.3465,0.0,0.0,0.0,-0.2464,-0.2244,-0.2221,0.0,0.0,0.0,0.0,0.0,0.0,-0.4385,-0.4412,-0.4426,-0.4515,-0.4519,-0.4519,-0.4519,-0.4519,-0.4519,-0.4519,-0.4519,-0.4519,-0.4519,-0.4519,-0.4519,-0.4519,-0.4519,-0.4519,-0.4519,-0.4519,-0.4519,-0.4519,-0.4519,-0.4519,-0.4519,-0.4519,-0.4477,-0.4383,-0.3239,-0.1675,0.0,0.0,0.0,0.0,0.0,0.0,0.0,0.0,0.0,0.0,0.0,0.0,0.0,0.0,0.0,0.0,0.0,0.0,0.0,0.0,0.0,0.0,0.0,0.0,0.0,0.0,0.0,0.0,0.0,0.0,0.0,0.0,0.0,0.0,0.0,0.0,-0.5586,0.0,0.0,0.0,0.0,0.0,0.0,0.0,0.0,0.0,0.0,0.0,0.0,0.0,0.0,0.0,0.0,-0.4971,-0.4745,0.0,-0.406,-0.3577,-0.3078,0.0,0.0,0.0,0.0,-0.2022,-0.2064,-0.225,-0.2838,-0.3445,-0.361,-0.3667,-0.3664,-0.3606,0.0,0.0,0.0,0.0,0.0,0.0,0.0,0.0,0.0,-0.3644,0.0,0.0,0.0,0.0,-0.4882,-0.4677,-0.4519,0.0,-0.4519,-0.4519,-0.4519,-0.4519,-0.4519,-0.4519,-0.4519,-0.4519,-0.4519,-0.4519,-0.4519,-0.4519,-0.4519,-0.4519,-0.4519,-0.4519,-0.4519,-0.4519,-0.4519,-0.4519,-0.4519,-0.4519,-0.4477,-0.4383,-0.285,-0.134,0.0,0.0,0.0,0.0,0.0,0.0,0.0,0.0,0.0,0.0,0.0,0.0,0.0,0.0,0.0,0.0,0.0,0.0,0.0,0.0,0.0,0.0,0.0,0.0,0.0,0.0,0.0,0.0,0.0,0.0,0.0,0.0,0.0,0.0,0.0,0.0,0.0,0.0,0.0,-0.5566,0.0,0.0,0.0,0.0,0.0,0.0,0.0,0.0,0.0,0.0,0.0,0.0,0.0,0.0,0.0,0.0,-0.3661,-0.3114,-0.2567,-0.228,0.0,0.0,0.0,0.0,0.0,-0.1919,-0.2557,-0.3231,-0.3466,-0.3381,-0.3294,-0.3564,0.0,0.0,0.0,0.0,0.0,0.0,0.0,0.0,0.0,0.0,0.0,0.0,0.0,-0.4842,-0.5433,-0.4893,0.0,-0.4519,-0.4519,-0.4519,-0.4519,-0.4519,-0.4519,-0.4519,-0.4519,-0.4519,-0.4519,-0.4519,-0.4519,-0.4519,-0.4519,-0.4519,-0.4519,-0.4519,-0.4519,-0.4519,-0.4519,-0.4519,-0.4519,-0.4519,0.0,-0.4383,-0.3072,-0.1563,0.0,0.0,0.0,0.0,0.0,0.0,0.0,0.0,0.0,0.0,0.0,0.0,0.0,0.0,0.0,0.0,0.0,0.0,0.0,0.0,0.0,0.0,0.0,0.0,0.0,0.0,0.0,0.0,0.0,0.0,0.0,0.0,0.0,0.0,0.0,0.0,0.0,-0.6318,-0.6641,-0.6504,0.0,0.0,0.0,0.0,0.0,0.0,0.0,0.0,0.0,0.0,0.0,0.0,0.0,0.0,0.0,0.0,-0.3536,-0.2965,-0.2259,-0.2215,0.0,0.0,0.0,0.0,0.0,-0.2433,-0.2592,-0.2568,-0.2344,-0.2544,-0.2878,-0.3267,0.0,0.0,0.0,0.0,0.0,0.0,0.0,0.0,0.0,0.0,-0.6014,0.0,0.0,-0.5378,-0.5483,0.0,-0.4519,-0.4519,-0.4519,-0.4519,-0.4519,-0.4519,-0.4519,-0.4519,-0.4519,-0.4519,-0.4519,-0.4519,-0.4519,-0.4519,-0.4519,-0.4519,-0.4519,-0.4519,-0.4519,-0.4519,-0.4519,-0.4519,-0.4519,0.0,-0.4477,-0.4494,-0.4249,-0.251,0.0,0.0,0.0,0.0,0.0,0.0,0.0,0.0,0.0,0.0,0.0,0.0,0.0,0.0,0.0,0.0,0.0,0.0,0.0,0.0,0.0,0.0,0.0,0.0,0.0,0.0,0.0,0.0,0.0,0.0,0.0,0.0,0.0,0.0,0.0,0.0,-0.6045,-0.666,-0.6699,-0.6299,-0.5497,0.0,0.0,0.0,0.0,0.0,0.0,0.0,0.0,0.0,0.0,0.0,0.0,0.0,0.0,0.0,0.0,-0.2536,-0.2172,-0.2019,0.0,0.0,0.0,0.0,0.0,-0.2138,-0.2319,-0.2492,-0.2653,-0.301,-0.3411,-0.3886,0.0,0.0,0.0,0.0,0.0,0.0,0.0,0.0,0.0,0.0,-0.6273,-0.6455,-0.5604,-0.5109,0.0,0.0,-0.4519,-0.4519,-0.4519,-0.4519,-0.4519,-0.4519,-0.4519,-0.4519,-0.4519,-0.4519,-0.4519,-0.4519,-0.4519,-0.4519,-0.4519,-0.4519,-0.4519,-0.4519,-0.4519,-0.4519,-0.4519,-0.4519,-0.4519,0.0,-0.4522,-0.4477,-0.4522,-0.2732,0.0,0.0,0.0,0.0,0.0,0.0,0.0224,0.0,0.0,0.0,0.0,0.0,0.0,0.0,0.0,0.0,0.0,0.0,0.0,0.0,0.0,0.0,0.0,0.0,0.0,0.0,0.0,0.0,0.0,0.0,0.0,0.0,0.0,-0.5227,-0.5316,-0.5461,-0.5957,-0.6793,-0.6729,-0.6129,0.0,0.0,0.0,0.0,0.0,0.0,0.0,0.0,0.0,0.0,0.0,0.0,0.0,0.0,0.0,0.0,0.0,0.0,0.0,0.0,0.0,0.0,-0.1803,-0.1803,-0.1854,-0.2046,-0.2275,-0.2668,-0.3462,0.0,-0.3923,-0.4717,0.0,0.0,0.0,0.0,0.0,0.0,0.0,0.0,-0.7363,-0.6903,-0.654,-0.6617,-0.5496,-0.4948,-0.5433,-0.4893,-0.4519,-0.4519,-0.4519,-0.4519,-0.4519,-0.4519,-0.4519,-0.4519,-0.4519,-0.4519,-0.4519,-0.4519,-0.4519,-0.4519,-0.4519,-0.4519,-0.4519,-0.4519,-0.4519,-0.4519,-0.4519,-0.4519,-0.4519,-0.4519,-0.4519,-0.446,-0.3735,-0.2063,0.0,0.0,0.0,0.0,0.0,0.0,0.0448,0.0,0.0,0.0,0.0,0.0,0.0,0.0,0.0,0.0,0.0,0.0,0.0,0.0,0.0,0.0,0.0,0.0,0.0,0.0,0.0,0.0,0.0,0.0,0.0,0.0,-0.5117,-0.5293,-0.5117,-0.623,-0.6641,-0.6455,-0.7228,-0.6713,-0.5049,0.0,0.0,0.0,0.0,0.0,0.0,0.0,0.0,0.0,0.0,0.0,0.0,0.0,0.0,0.0,0.0,0.0,0.0,0.0,0.0,-0.1803,-0.1803,-0.1803,-0.1968,-0.2783,-0.2839,-0.3014,-0.4349,0.0,0.0,-0.5442,-0.5629,0.0,0.0,0.0,0.0,0.0,0.0,-0.7814,-0.7717,-0.7641,-0.7379,-0.6691,0.0,-0.5433,-0.5487,-0.4893,-0.4519,-0.4519,-0.4519,-0.4519,-0.4519,-0.4519,-0.4519,-0.4519,-0.4519,-0.4519,-0.4519,-0.4519,-0.4519,-0.4519,-0.4519,-0.4519,-0.4519,-0.4519,-0.4519,-0.4519,-0.4519,-0.4519,-0.4519,-0.4519,-0.4519,-0.4294,-0.1452,-0.0168,0.0,0.0,0.0,0.0,0.0,0.0,0.0448,0.0,0.0,0.0,0.0,0.0,0.0,0.0,0.0,0.0,0.0,0.0,0.0,0.0,0.0,0.0,0.0,0.0,0.0,0.0,0.0,0.0,0.0,0.0,-0.4507,-0.4932,-0.5123,-0.5317,-0.5537,-0.624,-0.625,-0.5573,-0.5238,0.0,0.0,0.0,0.0,0.0,0.0,0.0,0.0,0.0,0.0,0.0,0.0,0.0,0.0,0.0,0.0,0.0,0.0,-0.1891,-0.1803,-0.1803,-0.1803,-0.1803,-0.1803,-0.1803,-0.1883,-0.2213,-0.274,-0.3389,-0.4112,0.0,0.0,0.0,0.0,0.0,0.0,0.0,0.0,0.0,0.0,-0.7571,-0.7664,-0.6956,-0.6249,-0.5977,-0.5332,-0.4897,-0.4897,-0.468,-0.4519,-0.4519,-0.4519,-0.4519,-0.4519,-0.4519,-0.4519,-0.4519,-0.4519,-0.4519,-0.4519,-0.4519,-0.4519,-0.4519,-0.4519,-0.4519,-0.4519,-0.4519,-0.4519,-0.4519,-0.4519,-0.4522,-0.4473,-0.448,-0.4484,-0.4258,-0.123,0.0,0.0,0.0,0.0,0.0,0.0,0.0,0.0448,0.0,0.0,0.0,0.0,0.0,0.0,0.0,0.0,0.0,0.0,0.0,0.0,0.0,0.0,0.0,0.0,0.0,0.0,0.0,0.0,0.0,0.0,0.0,-0.4345,-0.4971,-0.4971,-0.5173,-0.5576,-0.5859,-0.5508,-0.4567,0.0,0.0,0.0,0.0,0.0,0.0,0.0,0.0,0.0,0.0,0.0,0.0,0.0,0.0,0.0,0.0,0.0,0.0,0.0,-0.1803,-0.1803,-0.1803,-0.1803,-0.1803,-0.1803,-0.1837,-0.1878,-0.1966,-0.2706,-0.3547,0.0,0.0,0.0,0.0,0.0,0.0,0.0,0.0,0.0,0.0,0.0,0.0,0.0,-0.614,-0.5433,-0.5218,-0.4787,-0.4519,-0.4519,-0.4519,-0.4519,-0.4519,-0.4519,-0.4519,-0.4519,-0.4519,-0.4519,-0.4519,-0.4519,-0.4519,-0.4519,-0.4519,-0.4519,-0.4519,-0.4519,-0.4519,-0.4519,-0.4519,-0.4519,-0.4519,-0.4519,-0.4525,-0.4477,-0.3978,-0.4039,-0.4268,-0.1231,0.0,0.0,0.0,0.0,0.0,0.0,0.0,0.0448,0.0,0.0,0.0,0.0,0.0,0.0,0.0,0.0,0.0,0.0,0.0,0.0,0.0,0.0,0.0,0.0,0.0,0.0,0.0,0.0,0.0,0.0,0.0,-0.3868,-0.4686,-0.4686,-0.4834,-0.5088,-0.5088,-0.4547,-0.3506,-0.3506,0.0,0.0,0.0,0.0,0.0,0.0,0.0,0.0,0.0,0.0,0.0,0.0,0.0,0.0,0.0,0.0,0.0,0.0,-0.1803,-0.1803,-0.1803,-0.1803,-0.1803,-0.1803,-0.1889,-0.2057,-0.233,-0.2841,0.0,0.0,0.0,0.0,0.0,0.0,0.0,0.0,0.0,-0.826,-0.7782,0.0,0.0,-0.5675,-0.5487,-0.5273,-0.457,-0.4519,-0.4519,-0.4519,-0.4519,-0.4519,-0.4519,-0.4519,-0.4519,-0.4519,-0.4519,-0.4519,-0.4519,-0.4519,-0.4519,-0.4519,-0.4519,-0.4519,-0.4519,-0.4519,-0.4519,-0.4519,-0.4519,-0.4519,-0.4519,-0.4519,-0.4525,-0.4421,-0.2901,-0.3074,-0.4212,-0.1232,0.0,0.0,0.0,0.0,0.0,0.0,0.0,0.0448,0.0,0.0,0.0,0.0,0.0,0.0,0.0,0.0,0.0,0.0,0.0,0.0,0.0,0.0,0.0,0.0,0.0,0.0,0.0,0.0,0.0,0.0,0.0,0.0,0.0,0.0,-0.4547,-0.4814,-0.4527,-0.4354,0.0,0.0,0.0,-0.3506,0.0,0.0,0.0,0.0,0.0,0.0,0.0,0.0,0.0,0.0,0.0,0.0,0.0,0.0,0.0,0.0,0.0,0.0,-0.1803,-0.1803,-0.1803,-0.1803,-0.1837,-0.1895,-0.2079,0.0,0.0,0.0,0.0,0.0,0.0,0.0,0.0,0.0,0.0,-0.8489,-0.7818,0.0,0.0,-0.5642,-0.5109,-0.4732,-0.4515,-0.4519,-0.4519,-0.4519,-0.4519,-0.4519,-0.4519,-0.4519,-0.4519,-0.4519,-0.4519,-0.4519,-0.4519,-0.4519,-0.4519,-0.4519,-0.4519,-0.4519,-0.4519,-0.4519,-0.4519,-0.4519,-0.4525,-0.4473,-0.4473,-0.4473,-0.4484,-0.4504,-0.3993,-0.286,-0.1287,-0.0392,0.0,0.0,0.0,0.0,0.0,0.0,0.0,0.0448,0.0,0.0,0.0,0.0,0.0,0.0,0.0,0.0,0.0,0.0,0.0,0.0,0.0,0.0,0.0,0.0,0.0,0.0,0.0,0.0,0.0,0.0,0.0,0.0,0.0,-0.415,-0.4232,0.0,0.0,0.0,0.0,0.0,0.0,-0.3506,0.0,-0.3506,0.0,0.0,0.0,0.0,0.0,-0.2848,-0.2481,0.0,0.0,0.0,0.0,0.0,0.0,0.0,0.0,0.0,-0.1803,0.0,-0.1825,-0.1935,-0.2096,-0.227,-0.2477,0.0,0.0,0.0,0.0,0.0,0.0,0.0,0.0,0.0,0.0,-0.848,-0.7456,-0.6912,0.0,-0.5273,-0.4787,-0.4519,-0.4519,-0.4519,-0.4519,-0.4519,-0.4519,-0.4519,-0.4519,-0.4519,-0.4519,-0.4519,-0.4519,-0.4519,-0.4519,-0.4519,-0.4519,-0.4519,-0.4519,-0.4519,-0.4519,-0.4519,-0.4519,-0.4525,-0.4477,-0.4484,-0.4494,-0.386,-0.3925,-0.4455,-0.3261,-0.1682,0.0,0.0,0.0,0.0,0.0,0.0,0.0,0.0,0.0,0.0448,0.0,0.0,0.0,0.0,0.0,0.0,0.0,0.0,0.0,0.0,0.0,0.0,0.0,0.0,0.0,0.0,0.0,0.0,0.0,0.0,0.0,0.0,0.0,0.0,0.0,0.0,0.0,0.0,0.0,0.0,0.0,0.0,-0.3506,-0.3506,0.0,-0.3485,0.0,0.0,0.0,0.0,-0.3025,-0.2697,-0.2224,-0.2307,0.0,0.0,0.0,0.0,0.0,0.0,0.0,0.0,-0.1803,-0.1803,-0.1847,-0.2128,-0.2509,-0.2896,-0.3203,0.0,0.0,0.0,0.0,0.0,0.0,0.0,0.0,0.0,0.0,-0.8262,-0.6858,-0.6534,-0.6041,-0.4736,-0.4519,-0.4519,-0.4519,-0.4519,-0.4519,-0.4519,-0.4519,-0.4519,-0.4519,-0.4519,-0.4519,-0.4519,-0.4519,-0.4519,-0.4519,-0.4519,-0.4519,-0.4519,-0.4519,-0.4519,-0.4519,-0.4519,-0.4525,-0.448,-0.448,-0.4494,-0.4455,-0.3023,-0.3023,-0.3943,-0.1177,0.0,0.0,0.0,0.0,0.0,0.0,0.0,0.0,0.0,0.0,0.0448,0.0,0.0,0.0,0.0,0.0,0.0,0.0,0.0,0.0,0.0,0.0,0.0,0.0,0.0,0.0,0.0,0.0,0.0,0.0,0.0,0.0,0.0,0.0,0.0,0.0,0.0,0.0,0.0,0.0,0.0,0.0,0.0,0.0,-0.3506,0.0,-0.3372,0.0,0.0,0.0,-0.2762,-0.2502,-0.2381,-0.2329,-0.2042,-0.168,0.0,0.0,0.0,0.0,0.0,0.0,0.0,-0.1803,-0.1803,-0.1847,-0.2128,-0.2274,-0.2496,0.0,-0.3923,0.0,0.0,0.0,0.0,0.0,0.0,0.0,-0.8804,-0.8321,-0.767,-0.675,-0.6145,-0.5492,-0.4625,-0.4519,-0.4519,-0.4519,-0.4519,-0.4519,-0.4519,-0.4519,-0.4519,-0.4519,-0.4519,-0.4519,-0.4519,-0.4519,-0.4519,-0.4519,-0.4519,-0.4519,-0.4519,-0.4519,-0.4519,-0.4519,-0.4525,-0.4477,-0.448,-0.4497,-0.4507,-0.4514,-0.4166,-0.2919,-0.0953,-0.028,0.0,0.0,0.0,0.0,0.0,0.0,0.0,0.0,0.0,0.0,0.0448,0.0,0.0,0.0,0.0,0.0,0.0,0.0,0.0,0.0,0.0,0.0,0.0,0.0,0.0,0.0,0.0,0.0,0.0,0.0,0.0,-0.1815,-0.2418,0.0,0.0,0.0,0.0,0.0,0.0,0.0,0.0,0.0,0.0,0.0,-0.3506,0.0,-0.3351,0.0,0.0,0.0,-0.2538,-0.2364,-0.2214,-0.209,-0.189,-0.1547,-0.1252,-0.1661,0.0,0.0,0.0,0.0,0.0,0.0,0.0,-0.1891,-0.2307,-0.2524,-0.2811,0.0,0.0,0.0,0.0,0.0,0.0,0.0,0.0,0.0,-0.8368,-0.7996,-0.745,-0.675,-0.5982,-0.5273,-0.4625,-0.4519,-0.4519,-0.4519,-0.4519,-0.4519,-0.4519,-0.4519,-0.4519,-0.4519,-0.4519,-0.4519,-0.4519,-0.4519,-0.4519,-0.4519,-0.4519,-0.4519,-0.4519,-0.4519,-0.4522,-0.4525,-0.4477,-0.4484,-0.4497,-0.4507,-0.3716,-0.2357,-0.2357,-0.1514,0.0,0.0,0.0,0.0,0.0,0.0,0.0,0.0,0.0,0.0,0.0,0.0895,0.2399,0.0,0.0,0.0,0.0,0.0,0.0,0.0,0.0,0.0,0.0,0.0,0.0,0.0,0.0,0.0,0.0,0.0,0.0,0.0,-0.1203,-0.1764,-0.262,0.0,0.0,0.0,0.0,0.0,0.0,0.0,0.0,0.0,0.0,0.0,-0.3506,0.0,0.0,0.0,0.0,0.0,-0.2289,-0.2289,-0.209,-0.1798,-0.1798,-0.1594,-0.1343,-0.1683,-0.1791,-0.1803,-0.1803,0.0,0.0,0.0,0.0,-0.1913,-0.2459,-0.2808,-0.3219,0.0,0.0,0.0,0.0,0.0,0.0,0.0,0.0,-0.837,-0.7824,-0.7616,-0.7289,-0.6529,-0.5819,-0.5164,-0.457,-0.4519,-0.4519,-0.4519,-0.4519,-0.4519,-0.4519,-0.4519,-0.4519,-0.4519,-0.4519,-0.4519,-0.4519,-0.4519,-0.4519,-0.4519,-0.4519,-0.4519,-0.4522,-0.4522,-0.4525,-0.4484,-0.4484,-0.4494,-0.4514,-0.3999,-0.2413,0.0,0.0,0.0,0.0,0.0,0.0,0.0,0.0,0.0,0.0,0.0,0.0,0.0,0.0,0.1898,0.4519,0.0,0.0,0.0,0.0,0.0,0.0,0.0,0.0,0.0,0.0,0.0,-0.0899,-0.0899,-0.0899,0.0,0.0,0.0,0.0,-0.0899,0.0,0.0,0.0,0.0,0.0,0.0,0.0,0.0,0.0,0.0,0.0,0.0,0.0,0.0,-0.3485,0.0,0.0,0.0,0.0,0.0,-0.189,-0.189,-0.1842,-0.1798,-0.1798,-0.1775,-0.1731,-0.1775,-0.1791,-0.1803,-0.1803,-0.1803,0.0,0.0,0.0,-0.1869,-0.2172,-0.25,-0.2884,0.0,0.0,0.0,0.0,0.0,0.0,0.0,0.0,-0.7562,0.0,-0.7182,-0.6529,-0.576,-0.5113,-0.4625,-0.4519,-0.4519,-0.4519,-0.4519,-0.4519,-0.4519,-0.4519,-0.4519,-0.4519,-0.4519,-0.4519,-0.4519,-0.4519,-0.4519,-0.4519,-0.4519,-0.4519,-0.4522,-0.4477,-0.4477,-0.4484,-0.4494,-0.4504,-0.4511,-0.4458,-0.185,-0.0392,0.0,0.0,0.0,0.0,0.0,0.0,0.0,0.0,0.0,0.0,0.0,0.0,0.0,0.0,0.1898,0.4519,0.0,0.0,0.0,0.0,0.0,0.0,0.0,0.0,0.0,0.0,0.0,-0.0899,-0.0899,-0.0899,0.0,0.0,0.0,0.0,-0.1014,-0.1266,0.0,0.0,0.0,0.0,0.0,0.0,0.0,0.0,0.0,0.0,0.0,-0.4202,-0.4275,0.0,0.0,0.0,0.0,0.0,0.0,-0.1775,-0.1433,-0.1096,-0.0785,-0.0785,-0.0785,-0.0875,-0.1566,-0.1809,-0.1803,-0.1803,-0.1803,-0.1803,-0.1803,0.0,0.0,0.0,0.0,0.0,-0.344,0.0,0.0,0.0,0.0,0.0,0.0,0.0,-0.6596,-0.6294,-0.6053,-0.5801,-0.5525,-0.4948,-0.4519,-0.4519,-0.4519,-0.4519,-0.4519,-0.4519,-0.4519,-0.4519,-0.4519,-0.4519,-0.4519,-0.4519,-0.4519,-0.4519,-0.4519,-0.4519,-0.4519,-0.4525,-0.4473,-0.448,-0.3688,-0.3638,-0.4507,-0.4511,-0.3658,-0.1964,-0.0617,0.0,0.0,0.0,0.0,0.0,0.0,0.0,0.0,0.0,0.0,0.0,0.0,0.0,0.0,0.0,0.1898,0.4519,0.0,0.0,0.0,0.0,0.0,0.0,0.0,0.0,0.0,0.0,0.0,0.0,-0.0953,0.0,0.0,0.0,0.0,0.0,-0.1038,0.0,0.0,0.0,0.0,0.0,0.0,0.0,0.0,0.0,0.0,0.0,-0.3526,-0.4576,-0.477,0.0,-0.3955,0.0,0.0,0.0,0.0,0.0,0.0,0.0,0.0,0.0,0.0,-0.0112,-0.1025,0.0,0.0,0.0,0.0,0.0,0.0,0.0,0.0,0.0,0.0,0.0,0.0,0.0,0.0,0.0,0.0,0.0,0.0,0.0,-0.5638,0.0,-0.5006,-0.4992,-0.5116,-0.4787,-0.4519,-0.4519,-0.4519,-0.4519,-0.4519,-0.4519,-0.4519,-0.4519,-0.4519,-0.4519,-0.4519,-0.4519,-0.4519,-0.4519,-0.4519,-0.4519,-0.4522,-0.4473,-0.4484,-0.4487,-0.3357,-0.2968,-0.3373,-0.3373,-0.2244,0.0,0.0,0.0,0.0,0.0,0.0,0.0,0.0,0.0,0.0,0.0,0.0,0.0,0.0,0.0448,0.1118,0.1118,0.2565,0.4519,0.0,0.0,0.0,0.0,0.0,0.0,0.0,0.0,0.0,0.0,0.0,0.0,0.0,0.0,0.0,0.0,0.0,0.0,0.0,0.0,0.0,0.0,0.0,0.0,0.0,0.0,0.0,0.0,0.0,0.0,-0.3519,-0.4162,-0.4529,-0.4628,-0.3722,-0.319,-0.2871,0.0,0.0,0.0,0.0,0.0,0.0,0.0,0.0,-0.0,0.0,0.0,0.0,0.0,0.0,0.0,0.0,-0.1798,-0.1798,0.0,0.0,0.0,0.0,0.0,0.0,0.0,0.0,0.0,0.0,0.0,0.0,-0.5017,-0.4565,-0.4082,-0.4089,-0.4326,-0.4519,-0.4519,-0.4519,-0.4519,-0.4519,-0.4519,-0.4519,-0.4519,-0.4519,-0.4519,-0.4519,-0.4519,-0.4519,-0.4519,-0.4519,-0.4522,-0.4477,-0.448,-0.449,-0.4511,-0.4399,-0.3033,-0.028,-0.0224,-0.0168,0.0,0.0,0.0,0.0,0.0,0.0,0.0,0.0,0.0,0.0,0.0,0.0,0.0,0.0,0.173,0.4294,0.4294,0.4349,0.4519,0.0,0.0,0.0,0.0,0.0,0.0,0.0,0.0,0.0,0.0,0.0,0.0,0.0,0.0,0.0,0.0,0.0,0.0,0.0,0.0,0.0,0.0,0.0,0.0,0.0,0.0,0.0,0.0,0.0,-0.3506,-0.3519,-0.3977,-0.4122,-0.3924,-0.3799,-0.3577,-0.3257,-0.2707,0.0,0.0,0.0,0.0,0.0,0.0,0.0,0.0,0.0,0.0,0.0,0.0,0.0,0.0,-0.123,-0.123,-0.1296,-0.1683,0.0,0.0,0.0,0.0,0.0,0.0,0.0,0.0,0.0,-0.381,-0.3751,-0.3913,-0.3922,-0.3873,-0.3873,-0.4039,-0.4209,-0.4307,-0.4324,-0.4358,-0.4505,-0.4519,-0.4519,-0.4519,-0.4519,-0.4519,-0.4519,-0.4519,-0.4519,-0.4519,-0.4525,-0.4473,-0.448,-0.4494,-0.4504,-0.4514,-0.2639,-0.1065,-0.0,0.0,0.0,0.0,0.0,0.0,0.0056,0.202,0.2865,0.2807,0.0839,0.0,0.0,0.0,0.0,0.0168,0.212,0.3566,0.4519,0.4519,0.4519,0.4519,0.0,0.0,0.0,0.0,0.0,0.0,0.0,0.0,0.0,0.0,0.0,0.0,0.0,0.0,0.0,0.0,0.0,0.0,0.0,0.0,0.0,0.0,0.0,0.0,0.0,0.0,0.0,0.0,0.0,0.0,0.0,-0.3503,-0.3604,-0.3442,-0.3712,-0.3639,0.0,0.0,0.0,-0.1295,0.0,0.0,0.0,0.0,0.0,-0.0067,0.0,0.0,0.0,0.0,0.0,0.0,0.0,-0.0603,-0.0668,-0.1072,-0.148,0.0,-0.1909,0.0,0.0,0.0,0.0,-0.269,-0.3046,0.0,-0.3129,-0.3276,-0.3507,-0.3659,-0.371,-0.3802,-0.3938,-0.4086,-0.4164,-0.4231,-0.4375,-0.4433,-0.4519,-0.4519,-0.4519,-0.4519,-0.4519,-0.4519,-0.4519,-0.4519,-0.4473,0.0,-0.3744,-0.4216,-0.4054,-0.3033,-0.1065,0.0,0.0,0.0,0.0,0.0,0.0,0.0,0.0112,0.3149,0.4518,0.4402,0.2355,0.0952,0.0,0.0,0.0,0.028,0.3345,0.4519,0.4519,0.4519,0.4519,0.4519,0.0,0.0,0.0,0.0,0.0,0.0,0.0,0.0,0.0,0.0,0.0,0.0,0.0,0.0,0.0,0.0,0.0,0.0,0.0,0.0,0.0,0.0,0.0,0.0,0.0,0.0,0.0,0.0,0.0,0.0,0.0,0.0,-0.3014,-0.3271,-0.3416,-0.3241,-0.2851,0.0,-0.2153,-0.2072,0.0,-0.0067,-0.007,0.0,0.0,0.0,-0.2091,-0.1579,0.0,-0.0084,0.0,0.0,0.0,0.0,0.0,0.0,-0.0825,0.0,0.0,0.0,0.0,0.0,0.0,0.0,-0.3382,0.0,-0.2798,-0.3199,-0.3334,-0.343,-0.3544,-0.3571,-0.3666,-0.3961,-0.4083,-0.4184,-0.4187,-0.4362,-0.4505,-0.4505,-0.4508,-0.4512,-0.4512,-0.4515,-0.4519,-0.4519,-0.4473,-0.3858,-0.2343,-0.3593,-0.3033,-0.0112,0.0,0.0,0.0,0.0,0.0,0.0,0.0,0.0,0.0112,0.3042,0.4416,0.4475,0.4472,0.2813,0.0112,0.0056,0.0056,0.0448,0.3345,0.4519,0.4519,0.4519,0.4519,0.4519,0.0,0.0,0.0,0.0,0.0,0.0,-0.1675,-0.1228,-0.106,0.0,0.0,0.0,0.0,0.0,0.0,0.0,0.0,0.0,-0.1095,-0.0977,-0.0899,-0.0899,-0.1022,0.0,0.0,0.0,0.0,0.0,0.0,0.0,0.0,0.0,0.0,0.0,-0.2746,-0.2653,-0.2347,-0.2584,0.0,0.0,-0.1469,-0.1572,0.0,0.0,0.0,0.0,0.0,-0.239,-0.1937,0.0,-0.1074,0.0,0.0,0.0,0.0,0.0,-0.0245,-0.0624,-0.1205,0.0,0.0,0.0,0.0,0.0,0.0,0.0,-0.2613,-0.2818,-0.2954,-0.311,-0.3323,-0.337,-0.3476,-0.367,-0.3822,-0.3958,-0.4066,-0.4117,-0.4196,-0.4247,-0.4295,-0.4307,-0.4307,-0.4402,-0.4522,0.0,-0.4484,-0.4324,-0.3878,-0.2188,-0.0841,-0.0,0.0,0.0,0.0,0.0,0.0,0.0,0.0,0.0,0.0056,0.084,0.2411,0.4518,0.449,0.4024,0.3067,0.0895,0.1285,0.3345,0.4181,0.4519,0.4519,0.4519,0.4519,0.4519,0.0,0.0,0.0,0.0,0.0,-0.1789,-0.1809,-0.1502,-0.1402,0.0,0.0,0.0,0.0,0.0,0.0,0.0,0.0,0.0,-0.1196,-0.1055,-0.0966,-0.0904,-0.0979,-0.107,0.0,0.0,0.0,0.0,0.0,0.0,0.0,0.0,0.0,0.0,-0.2207,-0.2399,-0.2392,0.0,0.0,0.0,-0.1806,0.0,0.0,-0.2614,-0.2936,0.0,0.0,0.0,-0.3029,-0.2774,-0.1499,0.0,0.0,0.0,0.0,0.0,-0.0366,0.0,0.0,0.0,0.0,0.0,0.0,0.0,-0.2063,-0.2191,0.0,0.0,-0.2751,-0.2903,-0.3159,-0.3212,-0.3262,-0.3459,-0.3554,-0.3683,-0.3894,-0.3978,-0.4019,-0.4122,-0.41,-0.4103,-0.4213,-0.4236,-0.4343,-0.4467,-0.4478,-0.3962,-0.269,-0.0945,0.0,0.0,0.0,0.0,0.0,0.0,0.0,0.0,0.0,0.0673,0.185,0.056,0.1623,0.4504,0.4494,0.448,0.4349,0.2621,0.2899,0.4519,0.4519,0.4519,0.4519,0.4519,0.4519,0.4519,0.0,0.0,-0.1803,-0.1803,-0.1803,-0.1803,-0.1803,-0.1791,-0.1798,0.0,0.0,0.0,0.0,0.0,0.0,0.0,0.0,0.0,-0.134,-0.1176,-0.1027,-0.0904,-0.0869,-0.0963,-0.1201,-0.1239,0.0,0.0,0.0,0.0,0.0,0.0,0.0,0.0,-0.1706,-0.223,-0.2538,0.0,0.0,-0.1803,-0.1803,-0.1844,0.0,0.0,-0.2815,-0.2884,-0.3388,-0.3581,-0.3457,-0.2679,-0.1331,0.0,0.0,0.0,0.0,0.0,-0.0898,0.0,-0.1481,-0.176,0.0,0.0,-0.2107,0.0,-0.2144,-0.2083,-0.2143,0.0,-0.2608,-0.273,-0.2991,-0.3059,-0.3085,-0.3236,-0.3331,-0.3492,-0.3727,-0.3883,-0.3972,-0.3972,-0.3936,-0.3949,-0.4165,-0.3926,-0.3993,-0.4472,-0.4174,-0.2827,-0.0159,0.0,0.0,0.0,0.0,0.0,0.0,0.0,0.0,0.0,0.0,0.1569,0.4399,0.1737,0.1959,0.4497,0.4514,0.4501,0.4519,0.4519,0.4519,0.4519,0.4519,0.4519,0.4519,0.4519,0.4519,0.4519,0.0,0.0,-0.1803,-0.1803,-0.1803,-0.1803,-0.1803,-0.1806,-0.1806,0.0,0.0,0.0,0.0,0.0,0.0,0.0,0.0,0.0,0.0,-0.1126,-0.093,-0.0898,-0.0636,-0.0514,-0.0571,-0.0833,0.0,0.0,0.0,0.0,0.0,0.0,0.0,0.0,-0.1078,-0.1193,-0.1293,0.0,0.0,-0.1803,-0.1803,0.0,-0.2603,-0.3214,-0.3405,-0.3419,-0.3537,-0.3598,-0.3306,-0.1226,-0.0306,0.0,0.0,0.0,0.0,0.0,-0.12,-0.2441,-0.2129,-0.2177,-0.2285,-0.2079,0.0,0.0,-0.1957,-0.202,-0.213,0.0,-0.2114,-0.2287,-0.2558,-0.2716,-0.2815,-0.2971,-0.3155,-0.3412,-0.3595,-0.3646,-0.3666,-0.3666,-0.3822,-0.39,-0.3952,-0.3118,-0.3081,-0.4383,-0.2274,-0.0607,-0.0051,0.0,0.0,0.0,0.0,0.0,0.0,0.0,0.0,0.0,0.0,0.1569,0.4458,0.3878,0.3928,0.4497,0.448,0.4525,0.4519,0.4519,0.4519,0.4519,0.4519,0.4519,0.4519,0.4519,0.4519,0.4519,0.0,-0.1803,-0.1803,-0.1803,-0.1803,-0.1803,-0.1803,-0.1803,-0.1803,0.0,0.0,0.0,0.0,0.0,0.0,0.0,0.0,0.0,0.0,-0.1122,-0.0892,-0.0896,-0.0739,-0.0517,-0.0205,-0.0369,-0.0892,0.0,0.0,0.0,0.0,0.0,0.0,0.0,0.0,0.0,0.0,0.0,-0.1803,-0.1803,-0.1803,0.0,-0.32,-0.3466,-0.3581,-0.3445,-0.2235,-0.1794,-0.16,-0.0406,0.0,0.0,0.0,0.0,0.0,0.0,-0.0962,-0.2054,-0.2355,-0.2445,-0.2434,-0.2376,0.0,0.0,0.0,-0.1807,-0.1597,-0.1762,-0.1872,-0.1942,-0.1902,-0.2214,-0.2524,-0.2778,-0.2917,-0.3129,-0.3534,-0.3598,-0.359,-0.3581,-0.3681,-0.376,-0.3753,-0.321,-0.2723,-0.2297,-0.0875,0.0,0.0,0.0,0.0,0.0,0.0,0.0,0.0,0.0,0.0,0.0,0.0,0.1176,0.3365,0.4157,0.449,0.448,0.4522,0.4519,0.4519,0.4519,0.4519,0.4519,0.4519,0.4519,0.4519,0.4519,0.4519,0.4519,0.0,0.0,-0.1803,-0.1803,-0.1803,-0.1803,-0.1803,-0.1803,0.0,0.0,0.0,0.0,0.0,0.0,0.0,0.0,0.0,0.0,0.0,0.0,-0.0722,-0.0728,-0.0728,-0.0508,-0.0,0.0,-0.047,-0.1446,0.0,0.0,0.0,-0.0899,-0.0899,-0.0926,0.0,0.0,0.0,0.0,0.0,-0.1803,0.0,-0.2534,-0.3581,-0.3581,-0.3581,-0.3265,-0.0851,0.0,0.0,0.0,0.0,0.0,0.0,0.0,0.0,0.0,0.0,0.0,0.0,-0.2691,-0.2598,0.0,0.0,-0.2536,0.0,0.0,0.0,-0.1393,-0.1647,0.0,0.0,0.0,0.0,0.0,0.0,0.0,0.0,-0.3547,0.0,-0.3275,-0.3472,-0.3608,-0.3602,-0.3184,-0.2121,-0.0135,0.0,0.0,0.0,0.0,0.0,0.0,0.0,0.0,0.0,0.0,0.0,0.0,0.0,0.0615,0.1842,0.3644,0.4484,0.4519,0.4519,0.4519,0.4519,0.4519,0.4519,0.4519,0.4519,0.4519,0.4519,0.4519,0.4519,0.4519,-0.1794,-0.1809,0.0,-0.1803,-0.1803,-0.1803,-0.1803,-0.1803,0.0,0.0,0.0,0.0,0.0,0.0,0.0,0.0,0.0,0.0,-0.177,0.0,0.0,-0.0111,-0.011,-0.0066,-0.0,0.0,-0.0067,-0.0202,0.0,0.0,0.0,-0.0899,-0.0899,-0.0926,-0.1535,0.0,0.0,0.0,-0.1803,0.0,-0.1803,-0.2534,0.0,-0.3581,-0.3581,-0.3265,-0.0851,0.0,0.0,0.0,0.0,0.0,0.0,0.0,0.0,0.0,0.0,0.0,0.0,0.0,0.0,0.0,-0.2954,0.0,0.0,0.0,-0.1398,-0.0407,0.0,0.0,0.0,0.0,0.0,0.0,0.0,0.0,-0.2684,-0.3266,-0.3205,-0.2117,-0.295,-0.3614,-0.3612,-0.1677,-0.0289,-0.0,0.0,0.0,0.0,0.0,0.0,0.0,0.0,0.0,0.0,0.0,0.0,0.0,0.0,0.0112,0.0336,0.3193,0.4484,0.4519,0.4519,0.4519,0.4519,0.4519,0.4519,0.4519,0.4519,0.4519,0.4519,0.4519,0.4519,0.4519,-0.1798,-0.1521,0.0,0.0,-0.1803,-0.1803,-0.1803,-0.1803,-0.1895,0.0,0.0,0.0,0.0,0.0,0.0,0.0,0.0,-0.1801,0.0,0.0,0.0,0.0,0.0,0.0,0.0,0.0,0.0,-0.0,-0.0253,0.0,0.0,0.0,-0.1082,-0.1439,-0.1693,0.0,-0.217,0.0,-0.1803,0.0,0.0,0.0,0.0,-0.2836,-0.2115,-0.1387,-0.0359,0.0,0.0,0.0,0.0,0.0,0.0,0.0,0.0,0.0,0.0,0.0,0.0,0.0,0.0,0.0,0.0,0.0,-0.2874,0.0,-0.0609,0.0,0.0,0.0,0.0,0.0,0.0,0.0,-0.0911,0.0,0.0,0.0,-0.2905,0.0,0.0,0.0,-0.1502,-0.0609,0.0,0.0,0.0,0.0,0.0,0.0,0.0,0.0,0.0,0.0,0.0,0.0,0.0,0.0,0.1794,0.1681,0.0112,0.3135,0.4484,0.4519,0.4519,0.4519,0.4519,0.4519,0.4519,0.4519,0.4519,0.4519,0.4519,0.4519,0.4519,0.4519,-0.1798,0.0,0.0,0.0,-0.1806,-0.1803,-0.1803,-0.1803,-0.1923,-0.2259,0.0,0.0,-0.2712,-0.2864,0.0,0.0,-0.2555,-0.223,0.0,0.0,-0.0337,-0.0022,0.0,0.0,0.0,0.0,0.0,0.0,0.0,0.0,0.0,0.0,-0.1061,-0.1803,-0.1803,-0.1895,-0.2043,0.0,-0.1899,-0.2115,-0.2836,-0.329,-0.3453,-0.1891,-0.0776,0.0,0.0,0.0,0.0,0.0,0.0,0.0,0.0,0.0,0.0,0.0,0.0,0.0,0.0,0.0,0.0,0.0,0.0,0.0,0.0,0.0,0.0,0.0,0.0,0.0,0.0,0.0,0.0,0.0,0.0,-0.03,0.0,-0.0469,0.0,0.0,0.0,0.0,0.0,0.0344,0.0283,0.0344,0.015,0.0,0.0,0.0,0.0,0.0,0.0,0.0,0.0,0.0,0.0,0.0056,0.3035,0.3365,0.1281,0.3522,0.4477,0.4519,0.4519,0.4519,0.4519,0.4519,0.4519,0.4519,0.4519,0.4519,0.4519,0.4519,0.4519,0.4519,-0.1798,-0.1775,0.0,0.0,0.0,-0.1803,-0.1803,-0.1803,-0.2228,-0.3371,0.0,0.0,0.0,0.0,0.0,0.0,0.0,-0.3297,-0.2726,0.0,-0.121,-0.0045,0.0,0.0,0.0,0.0,0.0,0.0,0.0,0.0,0.0,0.0,0.0,-0.1803,-0.1803,-0.2132,-0.2647,-0.2053,-0.2146,-0.2637,-0.2084,-0.2557,-0.335,0.0,-0.0044,0.0,0.0,0.0,0.0,0.0,0.0,0.0,0.0,0.0,0.0,0.0,0.0,0.0,0.0,0.0,0.0,-0.2983,0.0,0.0,0.0,0.0,0.0,0.0,0.0,0.0,0.0,0.0,0.0,0.0,0.0,0.0,0.0,0.0,0.0,0.0,0.0,0.0,0.0,0.1204,0.0977,0.0,0.0463,0.0,0.0,0.0,0.0,0.0,0.0,0.0,0.0,0.0,0.0,0.0056,0.3035,0.4438,0.4349,0.4463,0.4519,0.4519,0.4519,0.4519,0.4519,0.4519,0.4519,0.4519,0.4519,0.4519,0.4519,0.4519,0.4519,0.4519,0.0,0.0,0.0,0.0,0.0,-0.1803,-0.1803,-0.2146,-0.2555,0.0,0.0,0.0,0.0,-0.3258,-0.3581,0.0,0.0,-0.3493,-0.329,-0.2717,0.0,-0.1217,-0.0434,0.0,0.0,0.0,0.0,0.0,0.0,0.0,0.0,0.0,0.0,0.0,-0.1803,-0.2143,0.0,0.0,0.0,0.0,0.0,-0.2268,-0.1124,0.0,0.0,0.0,0.0,0.0,0.0,0.0,0.0,0.0,0.0,0.0,0.0314,0.1934,0.2384,0.2203,0.0,0.0,0.1012,0.0166,0.0,0.0,0.0,0.0,0.0,0.0,0.0,0.0,0.0,0.0,0.0,0.0,0.0,0.0,0.0,0.0,0.0,0.0,0.0,0.0,0.0,0.0,0.0,0.1873,0.1826,0.0,0.0076,0.0,0.0,0.0,0.0,0.0,0.0,0.0,0.0,0.0,0.2014,0.3527,0.4484,0.4525,0.4519,0.4519,0.4519,0.4519,0.4519,0.4519,0.4519,0.4519,0.4519,0.4519,0.4519,0.4519,0.4519,0.4519,-0.1804,0.0,0.0,0.0,0.0,-0.1369,-0.2018,-0.2462,0.0,0.0,-0.2905,0.0,-0.3039,0.0,-0.3581,0.0,-0.3581,-0.3581,-0.3581,-0.3215,0.0,-0.2153,-0.077,0.0,0.0,0.0,0.0,0.0,0.0,0.0,0.0,0.0,0.0,0.0,0.0,-0.2122,-0.2723,-0.3096,-0.2919,0.0,0.0,-0.1395,0.0,0.0,0.0,0.0,0.0,0.0539,0.1166,0.0269,0.0,0.0,0.0,0.0,0.0494,0.2876,0.375,0.376,0.2955,0.2692,0.0,0.2576,0.1976,0.0,0.0607,0.0,0.0,0.0,0.0,0.0,0.0,0.0,0.0,0.0,0.0,0.0,0.0,0.1878,0.0,0.0,0.0,0.0,0.0,0.0,0.1953,0.2281,0.2478,0.0,0.0,0.0353,0.0,0.0,0.0,0.0,0.0,0.0,0.0561,0.1625,0.2011,0.3019,0.4497,0.4473,0.4519,0.4519,0.4519,0.4519,0.4519,0.4519,0.4519,0.4519,0.4519,0.4519,0.4519,0.4519,0.4519,0.4519,-0.1806,0.0,0.0,0.0,0.0,0.0,0.0,0.0,-0.2726,0.0,-0.3249,-0.3612,-0.3585,-0.3605,-0.3612,-0.3581,-0.3581,-0.3581,-0.3581,-0.3551,0.0,0.0,-0.0901,0.0,0.0,0.0,0.0,0.0,0.0,0.0,0.0,0.0,0.0,0.0,-0.1198,0.0,-0.2561,-0.2581,-0.1582,0.0,0.0,0.0,0.0,0.0135,0.018,0.018,0.018,0.166,0.3236,0.0942,0.018,0.018,0.018,0.018,0.0628,0.2907,0.4029,0.4476,0.4465,0.4239,0.4022,0.402,0.4026,0.0,0.0,0.0,0.0164,0.0,0.0,0.0,0.0,0.0,0.0,0.0,0.0,0.0,0.0,0.0,0.0,0.0,0.0,0.0,0.0,0.0,0.1998,0.2441,0.2435,0.0,0.0,0.1023,0.004,0.0,0.0,0.0,0.0,0.0,0.1455,0.4284,0.2965,0.3074,0.4497,0.4473,0.4519,0.4519,0.4519,0.4519,0.4519,0.4519,0.4519,0.4519,0.4519,0.4519,0.4519,0.4519,0.4519,0.4519,-0.1808,-0.1808,-0.1418,0.0,0.0,-0.0598,0.0,0.0,0.0,0.0,-0.3914,-0.412,-0.3629,-0.4021,-0.411,-0.3619,-0.3581,0.0,0.0,0.0,0.0,-0.0751,-0.0263,0.0,0.0,0.0,0.0,0.0,0.0,0.0,0.0,0.0,0.0,0.0,0.0,0.0,-0.0682,-0.0691,-0.044,0.0,0.0,0.0,0.018,0.0,0.2695,0.2658,0.2695,0.3054,0.3506,0.2865,0.2682,0.2682,0.2682,0.2682,0.2818,0.3401,0.4028,0.4449,0.4295,0.4219,0.4111,0.4048,0.409,0.4023,0.0,0.0,0.0,0.0,0.0,0.0,0.0,0.0,0.0,0.0,0.0,0.0,0.0,0.0,0.0,0.2093,0.0,0.0,0.0,0.1909,0.2049,0.2248,0.2262,0.0,0.0,0.0,0.0682,0.004,0.0,0.0,0.0,0.0,0.0382,0.1174,0.3021,0.4098,0.4497,0.4473,0.4519,0.4519,0.4519,0.4519,0.4519,0.4519,0.4519,0.4519,0.4519,0.4519,0.4519,0.4519,0.4519,0.4519,-0.102,0.0,0.0,-0.0109,0.0,0.0,-0.2191,-0.2544,0.0,-0.39,-0.4309,0.0,-0.4052,-0.4316,-0.4275,-0.3632,-0.3863,0.0,-0.2111,0.0,0.0,-0.0045,0.0,0.0,0.0,0.0,0.0,0.0,0.0,0.0,0.0,0.0,0.0,0.0,0.0,0.0,0.0063,0.1137,0.0955,0.0045,0.0583,0.1121,0.0,0.2509,0.3146,0.3622,0.3718,0.3691,0.3602,0.3736,0.3705,0.3581,0.3581,0.3581,0.3581,0.3581,0.4048,0.4491,0.4378,0.4347,0.4333,0.4226,0.4257,0.4268,0.4132,0.4059,0.3754,0.0,0.2633,0.254,0.0,0.0,0.0,0.0,0.0,0.0,0.0,0.0,0.0,0.0,0.2411,0.0,0.0,0.1991,0.2047,0.2197,0.2211,0.0,0.0,0.0,0.0913,0.0039,0.0,0.0,0.0,0.0,0.0,0.0056,0.3077,0.449,0.448,0.4522,0.4519,0.4519,0.4519,0.4519,0.4519,0.4519,0.4519,0.4519,0.4519,0.4519,0.4519,0.4519,0.4519,0.4519,0.0,0.0,0.0,0.0,0.0,0.0,0.0,-0.2609,0.0,-0.4165,0.0,-0.434,-0.4498,-0.4519,-0.4309,-0.3787,0.0,-0.281,-0.0187,0.0,0.0,0.0,0.0,0.0,0.0,0.0,0.0,0.0,0.0,0.0,0.0,0.0,0.0,0.0,0.0,0.0,0.0,0.2564,0.2377,0.0538,0.1431,0.2509,0.3475,0.2476,0.271,0.3656,0.3839,0.3787,0.3691,0.3945,0.3839,0.3639,0.3653,0.3673,0.3739,0.3739,0.411,0.4519,0.4519,0.4519,0.4519,0.4519,0.4519,0.445,0.4138,0.4292,0.4411,0.4,0.3802,0.3727,0.3837,0.0,0.0,0.0,0.0,0.0,0.0,0.0,0.0,0.0,0.0,0.0,0.0,0.0,0.0,0.0,0.0,0.0,0.0,0.0,0.0884,0.0039,0.0,0.0,0.0,0.0,0.0216,0.0612,0.3244,0.4484,0.4519,0.4519,0.4519,0.4519,0.4519,0.4519,0.4519,0.4519,0.4519,0.4519,0.4519,0.4519,0.4519,0.4519,0.4519,0.4519,0.0,0.0,0.0,0.0,0.0,-0.3015,-0.3907,-0.4134,-0.3918,-0.3135,-0.3028,-0.3409,-0.4409,-0.4519,-0.4474,-0.4371,-0.2146,0.0,0.0,0.0,0.0,0.0,0.0,0.0,0.0,0.0,0.0,0.0,0.0,0.0,0.0,0.0,0.0,0.0,0.0,0.0,0.0165,0.2592,0.0,0.2918,0.2101,0.2506,0.3612,0.3539,0.3678,0.3842,0.3934,0.3949,0.395,0.4,0.3975,0.3906,0.3933,0.412,0.4361,0.4361,0.4436,0.4519,0.4519,0.4519,0.4519,0.4519,0.4519,0.4505,0.445,0.4443,0.4456,0.4202,0.4131,0.3999,0.3725,0.0,0.0,0.0,0.0,0.0,0.0,0.0,0.0,0.0,0.0,0.3666,0.0,0.0,0.0,0.0,0.0,0.0,0.0,0.0,0.0688,0.0,0.0,0.0,0.0,0.0,0.1244,0.3697,0.4268,0.4484,0.4519,0.4519,0.4519,0.4519,0.4519,0.4519,0.4519,0.4519,0.4519,0.4519,0.4519,0.4519,0.4519,0.4519,0.4519,0.4519,0.0,0.0,0.0,0.0,0.0,0.0,0.0,-0.4519,-0.4309,-0.3725,-0.365,-0.387,-0.4453,-0.4519,-0.3846,-0.2287,-0.0839,0.0,0.0,0.0,0.0,0.0,0.0,0.0,0.0,0.0,0.0,0.0,0.0,0.0,0.0936,0.0,0.0,0.0,0.0,0.0,0.0,0.0,0.0,0.3994,0.3222,0.3298,0.3931,0.3945,0.3973,0.4049,0.409,0.4151,0.426,0.4117,0.4117,0.4121,0.4214,0.4382,0.4519,0.4519,0.4519,0.4519,0.4519,0.4519,0.4519,0.4519,0.4519,0.4519,0.4519,0.4519,0.4498,0.4372,0.4247,0.406,0.3663,0.3331,0.0,0.0,0.0,0.0,0.0,0.0,0.0,0.0,0.0,0.0,0.0,0.0,0.0,0.0,0.0,0.211,0.2369,0.0,0.0754,0.0,0.0,0.0,0.0,0.0,0.1488,0.4497,0.4504,0.449,0.4519,0.4519,0.4519,0.4519,0.4519,0.4519,0.4519,0.4519,0.4519,0.4519,0.4519,0.4519,0.468,0.6199,0.674,0.6524,0.0,0.0,0.0,0.0,-0.3598,-0.3927,-0.4402,-0.4477,-0.4473,-0.4519,-0.4519,-0.4519,-0.4519,-0.3901,-0.2565,-0.0224,0.0,0.0,0.0,0.0,0.0,0.0,0.0,0.0,0.0,0.0,0.0252,0.0,0.0,0.0,0.0,0.0,0.0,0.0,0.0,0.0,0.0,0.0,0.3863,0.4277,0.4059,0.4041,0.4167,0.407,0.4127,0.4205,0.4243,0.435,0.446,0.4297,0.4263,0.4306,0.4467,0.4519,0.4519,0.4519,0.4519,0.4519,0.4519,0.4519,0.4519,0.4519,0.4519,0.4519,0.4519,0.4519,0.4519,0.4519,0.4321,0.4023,0.3656,0.3381,0.0,0.0,0.0,0.0,0.0,0.0,0.0,0.0,0.0,0.0,0.3674,0.0,0.0,0.0,0.0,0.1991,0.2087,0.1721,0.1026,0.0038,0.0,0.0,0.0,0.0,0.2001,0.4039,0.433,0.449,0.4519,0.4519,0.4519,0.4519,0.4519,0.4519,0.4519,0.4519,0.4519,0.4519,0.4519,0.4897,0.5714,0.799,0.8427,0.7664,0.0,0.0,0.0,0.0,0.0,-0.4412,-0.4511,-0.4524,-0.4511,-0.4522,-0.4519,-0.4519,-0.4519,-0.2065,-0.028,-0.0,0.0,0.0,0.0,0.0,0.0,0.0,0.0,0.0,0.0,0.0,0.1066,0.0,0.0,0.2345,0.1803,0.1803,0.0,0.0,0.0,0.0,0.0,0.3484,0.3612,0.3733,0.4045,0.4192,0.4209,0.4206,0.4174,0.4246,0.4392,0.4498,0.4498,0.4498,0.4494,0.4491,0.4512,0.4519,0.4519,0.4519,0.4519,0.4519,0.4519,0.4519,0.4519,0.4519,0.4519,0.4519,0.4519,0.4519,0.4519,0.4519,0.4236,0.3944,0.3636,0.3558,0.3446,0.0,0.0,0.0,0.0,0.0,0.4782,0.5493,0.0,0.0,0.0,0.3453,0.0,0.0,0.2123,0.1906,0.2081,0.2103,0.1461,0.0037,0.0,0.0,0.0,0.2724,0.3517,0.2456,0.3858,0.4477,0.4519,0.4519,0.4519,0.4519,0.4519,0.4519,0.4519,0.4519,0.4519,0.4519,0.4519,0.6091,0.8421,0.8699,0.7122,0.5222,0.0,0.0,0.0,0.0,0.0,0.0,0.0,-0.1797,-0.1794,-0.1786,-0.1786,-0.1786,-0.1786,-0.0727,0.0,0.0,0.0,0.0,0.0,0.0,0.0,0.0,0.0,0.0,0.0,0.0,0.1183,0.0,0.0,0.348,0.3867,0.283,0.2349,0.0,0.0,0.3354,0.3602,0.4007,0.4161,0.4175,0.4333,0.4395,0.4398,0.4368,0.4375,0.4385,0.4494,0.4519,0.4519,0.4519,0.4519,0.4519,0.4519,0.4519,0.4519,0.4519,0.4519,0.4519,0.4519,0.4519,0.4519,0.4519,0.4519,0.4519,0.4519,0.4519,0.4519,0.4519,0.4226,0.3958,0.3794,0.3697,0.3563,0.3402,0.0,0.0,0.0,0.0,0.0,0.5884,0.0,0.5086,0.0,0.0,0.0,0.0,0.0,0.1876,0.2037,0.2138,0.1749,0.0794,0.0,0.1846,0.0,0.1178,0.2376,0.3583,0.4206,0.448,0.4519,0.4519,0.4519,0.4519,0.4519,0.4519,0.4519,0.4519,0.4519,0.4519,0.4519,0.6253,0.8804,0.8804,0.8043,0.723,0.0,0.0,0.0,0.0,-0.1741,-0.2475,-0.0336,0.0,0.0,0.0,0.0,0.0,0.0,0.0,0.0,0.0,0.0,0.0,0.0,0.0,0.0,0.0,0.0,0.0,0.0,0.0894,0.2183,0.3887,0.4378,0.5025,0.5757,0.4545,0.3975,0.0,0.3877,0.3887,0.3914,0.434,0.4519,0.4519,0.4519,0.4519,0.4519,0.4519,0.4519,0.4519,0.4519,0.4519,0.4519,0.4519,0.4519,0.4519,0.4519,0.4519,0.4519,0.4732,0.4787,0.4787,0.4889,0.4889,0.4944,0.5062,0.4831,0.4494,0.4501,0.4501,0.4481,0.4502,0.4466,0.4338,0.3883,0.3676,0.3683,0.3878,0.0,0.0,0.0,0.5002,0.0,0.0,0.5591,0.5104,0.4953,0.4164,0.0,0.0,0.0,0.0,0.2198,0.2253,0.0,0.0,0.0,0.0,0.1335,0.0459,0.1505,0.449,0.4487,0.4477,0.4519,0.4519,0.4519,0.4519,0.4519,0.4519,0.4519,0.4519,0.5007,0.5769,0.5769,0.7015,0.8804,0.8804,0.8804,0.8804,0.0,0.0,0.0,0.0,-0.0056,-0.0056,-0.0,0.0,0.0,0.0,0.0,0.0,0.0,0.0,0.0,0.0,0.0,0.0,0.0,0.0,0.0,0.0,0.0,0.0,0.0,0.2899,0.4457,0.4508,0.0,0.6972,0.6959,0.6959,0.6959,0.6878,0.52,0.4508,0.4508,0.4515,0.4519,0.4519,0.4519,0.4519,0.4519,0.4519,0.4519,0.4519,0.4519,0.4519,0.4519,0.4519,0.4519,0.4519,0.4519,0.4519,0.4625,0.5269,0.5483,0.5538,0.5792,0.5896,0.6013,0.6475,0.5554,0.4494,0.4515,0.4522,0.4495,0.4515,0.5082,0.5182,0.3865,0.3601,0.3824,0.4573,0.0,0.0,0.0,0.5529,0.0,0.6115,0.5377,0.4927,0.5244,0.4508,0.0,0.0,0.0,0.0,0.0,0.0,0.0,0.3078,0.1106,0.0,0.4412,0.1476,0.1501,0.448,0.4522,0.4519,0.4519,0.4519,0.4519,0.4519,0.4519,0.4519,0.4519,0.4519,0.6199,0.8752,0.8752,0.8752,0.8804,0.8804,0.8804,0.8804,0.0,0.0,0.0,0.0,0.0,0.0,0.0,0.0,0.0,0.0,0.0,0.0,0.0,0.0,0.0,0.0,0.0,0.0,0.0,0.0,0.0,0.0,0.0,0.095,0.301,0.4015,0.5441,0.7444,0.0,0.0,0.8237,0.8237,0.8237,0.8207,0.7675,0.7444,0.7283,0.5332,0.4519,0.4519,0.4519,0.4519,0.4519,0.4519,0.4897,0.5437,0.5437,0.5328,0.5273,0.5769,0.5605,0.5273,0.5769,0.5605,0.5328,0.6036,0.6253,0.6253,0.6357,0.6357,0.6529,0.6998,0.682,0.6647,0.7301,0.6663,0.6236,0.7223,0.695,0.6347,0.5682,0.5365,0.5158,0.5117,0.5038,0.0,0.5705,0.0,0.5455,0.5808,0.5431,0.5177,0.5302,0.4852,0.0,0.0,0.0,0.0,0.0,0.0,0.0,0.0,0.2752,0.0,0.4492,0.3553,0.3526,0.448,0.4522,0.4519,0.4519,0.4519,0.4519,0.4519,0.4519,0.5601,0.7444,0.7444,0.799,0.8804,0.8804,0.8804,0.8804,0.8804,0.8804,0.8804,0.0,0.0,0.0336,0.1507,0.1675,0.1675,0.1675,0.1675,0.1675,0.1675,0.1675,0.1675,0.1675,0.1675,0.0,0.1675,0.1675,0.1675,0.1675,0.1675,0.1675,0.1675,0.1675,0.2565,0.446,0.4519,0.0,0.7176,0.8262,0.8804,0.8804,0.8804,0.8804,0.8804,0.8804,0.8804,0.8699,0.6902,0.6091,0.6036,0.4952,0.4519,0.4519,0.4519,0.4842,0.5492,0.6195,0.6357,0.6249,0.6529,0.6312,0.6036,0.6799,0.6686,0.6416,0.6853,0.702,0.7074,0.7348,0.745,0.7509,0.7866,0.7925,0.8104,0.8676,0.8081,0.7706,0.8591,0.8101,0.7307,0.6762,0.6278,0.5927,0.5947,0.5782,0.5741,0.5987,0.0,0.5719,0.0,0.0,0.0,0.0,0.5463,0.5339,0.0,0.0,0.0,0.0,0.0,0.3079,0.3162,0.3706,0.4165,0.4499,0.4516,0.4522,0.4473,0.4522,0.4519,0.4519,0.4519,0.4519,0.457,0.566,0.7122,0.8804,0.8804,0.8804,0.8804,0.8804,0.8804,0.8804,0.8804,0.8804,0.8804,0.0336,0.0336,0.1174,0.4015,0.4519,0.4519,0.4519,0.4519,0.4519,0.4519,0.4519,0.4519,0.4519,0.4519,0.4519,0.4519,0.0,0.0,0.4519,0.4519,0.4519,0.4519,0.4519,0.4519,0.4519,0.4519,0.457,0.4787,0.7503,0.8804,0.8804,0.8804,0.8804,0.8804,0.8804,0.8804,0.8804,0.8804,0.8804,0.8586,0.5873,0.4787,0.4787,0.4787,0.4787,0.5062,0.6858,0.7509,0.7402,0.6912,0.6696,0.6804,0.7557,0.7777,0.7777,0.7777,0.7777,0.7937,0.8593,0.8804,0.8804,0.8804,0.8804,0.8824,0.8778,0.8791,0.8778,0.8796,0.8497,0.7977,0.7199,0.6475,0.6221,0.6894,0.6562,0.6343,0.6554,0.6398,0.6216,0.0,0.0,0.0,0.6169,0.6209,0.633,0.0,0.0,0.0,0.0,0.0,0.3448,0.3889,0.3989,0.4148,0.4481,0.4508,0.4519,0.4519,0.4519,0.4574,0.4625,0.4574,0.4625,0.4952,0.761,0.8804,0.8804,0.8804,0.8804,0.8804,0.8804,0.8804,0.8804,0.8804,0.8804,0.8804,0.0,0.0,0.3677,0.4349,0.4519,0.4519,0.4519,0.4519,0.4519,0.4519,0.4519,0.4519,0.4519,0.4519,0.4519,0.4519,0.4519,0.4519,0.4519,0.4519,0.4519,0.4519,0.4519,0.4519,0.4519,0.4519,0.5601,0.7771,0.848,0.8804,0.8804,0.8804,0.8804,0.8804,0.8804,0.8804,0.8804,0.8804,0.8804,0.8752,0.8043,0.7771,0.7771,0.7771,0.7771,0.783,0.8315,0.848,0.8427,0.8321,0.7883,0.7563,0.8315,0.8533,0.8533,0.8533,0.8533,0.8586,0.8752,0.8804,0.8804,0.8804,0.8804,0.8811,0.8824,0.8778,0.8811,0.8803,0.8541,0.8232,0.7768,0.7374,0.7106,0.7018,0.6894,0.6754,0.6633,0.6533,0.6445,0.0,0.6129,0.6115,0.6189,0.6398,0.6465,0.0,0.0,0.5528,0.5173,0.4626,0.4241,0.4112,0.4151,0.4247,0.4522,0.4501,0.4519,0.4519,0.4519,0.5069,0.6059,0.5014,0.571,0.7824,0.848,0.8804,0.8804,0.8804,0.8804,0.8804,0.8804,0.8804,0.8804,0.8804,0.8804,0.8804,0.4519,0.4519,0.4519,0.4519,0.4519,0.4519,0.4519,0.4519,0.4519,0.4519,0.4519,0.4519,0.4519,0.4519,0.4519,0.4519,0.4519,0.4519,0.4519,0.4519,0.4519,0.4519,0.4519,0.4519,0.4519,0.4519,0.5928,0.8804,0.8804,0.8804,0.8804,0.8804,0.8804,0.8804,0.8804,0.8804,0.8804,0.8804,0.8804,0.8804,0.8804,0.8804,0.8804,0.8804,0.8804,0.8804,0.8804,0.8804,0.8804,0.8804,0.8533,0.8262,0.8699,0.8804,0.8804,0.8804,0.8804,0.8804,0.8804,0.8804,0.8804,0.8804,0.8804,0.8804,0.8804,0.8804,0.8804,0.8804,0.8577,0.838,0.833,0.7869,0.7459,0.7298,0.7114,0.6921,0.6627,0.6587,0.6533,0.6411,0.6391,0.6445,0.654,0.6693,0.672,0.6567,0.6369,0.0,0.5814,0.5254,0.4729,0.4226,0.427,0.4385,0.4519,0.4519,0.4519,0.4519,0.4956,0.5563,0.6277,0.5719,0.6312,0.783,0.848,0.8804,0.8804,0.8804,0.8804,0.8804,0.8804,0.8804,0.8804,0.8804,0.8804,0.8804,0.4519,0.4519,0.4519,0.4519,0.4519,0.4519,0.4519,0.4519,0.4519,0.4519,0.4519,0.4519,0.4519,0.4519,0.4519,0.4519,0.4519,0.4519,0.4519,0.4519,0.4519,0.4519,0.4519,0.4519,0.4519,0.4952,0.6362,0.8804,0.8804,0.8804,0.8804,0.8804,0.8804,0.8804,0.8804,0.8804,0.8804,0.8804,0.8804,0.8804,0.8804,0.8804,0.8804,0.8804,0.8804,0.8804,0.8804,0.8804,0.8804,0.8804,0.8804,0.8804,0.8804,0.8804,0.8804,0.8804,0.8804,0.8804,0.8804,0.8804,0.8804,0.8804,0.8804,0.8804,0.8804,0.8804,0.8804,0.8804,0.8611,0.8531,0.8719,0.8166,0.7657,0.7616,0.7351,0.7024,0.6687,0.0,0.6673,0.672,0.672,0.6834,0.7134,0.7118,0.7118,0.7118,0.6944,0.678,0.6724,0.6002,0.5293,0.4594,0.4508,0.4519,0.4519,0.4519,0.4629,0.4849,0.5391,0.5937,0.6332,0.6534,0.6745,0.702,0.8262,0.8804,0.8804,0.8804,0.8804,0.8804,0.8804,0.8804,0.8804,0.8804,0.8804,0.8804,0.4519,0.4519,0.4519,0.4519,0.4519,0.4519,0.4519,0.4519,0.4519,0.4519,0.4519,0.4519,0.4519,0.4519,0.4519,0.4519,0.4519,0.4519,0.4519,0.4519,0.4519,0.4519,0.4519,0.4519,0.4519,0.6902,0.8368,0.8804,0.8804,0.8804,0.8804,0.8804,0.8804,0.8804,0.8804,0.8804,0.8804,0.8804,0.8804,0.8804,0.8804,0.8804,0.8804,0.8804,0.8804,0.8804,0.8804,0.8804,0.8804,0.8804,0.8804,0.8804,0.8804,0.8804,0.8804,0.8804,0.8804,0.8804,0.8804,0.8804,0.8804,0.8804,0.8804,0.8804,0.8804,0.8804,0.8804,0.8804,0.8771,0.8671,0.8481,0.8469,0.8304,0.7643,0.7652,0.7558,0.7002,0.0,0.7047,0.7345,0.7372,0.7455,0.7716,0.7742,0.7742,0.7742,0.7742,0.7532,0.7212,0.7042,0.6764,0.626,0.5105,0.4519,0.4519,0.4519,0.5073,0.6246,0.5202,0.5968,0.8284,0.7117,0.7261,0.848,0.8699,0.8804,0.8804,0.8804,0.8804,0.8804,0.8804,0.8804,0.8804,0.8804,0.8804,0.8804,0.4519,0.4519,0.4519,0.4519,0.4519,0.4519,0.4519,0.4519,0.4519,0.4519,0.4519,0.4519,0.4519,0.4519,0.4519,0.4519,0.4519,0.4519,0.4519,0.4519,0.4519,0.4519,0.4519,0.5222,0.6794,0.8096,0.8804,0.8804,0.8804,0.8804,0.8804,0.8804,0.8804,0.8804,0.8804,0.8804,0.8804,0.8804,0.8804,0.8804,0.8804,0.8804,0.8804,0.8804,0.8804,0.8804,0.8804,0.8804,0.8804,0.8804,0.8804,0.8804,0.8804,0.8804,0.8804,0.8804,0.8804,0.8804,0.8804,0.8804,0.8804,0.8804,0.8804,0.8804,0.8804,0.8804,0.8804,0.8804,0.8804,0.8869,0.9125,0.9138,0.9051,0.9074,0.8579,0.8192,0.8047,0.7575,0.7375,0.7682,0.7715,0.7776,0.7868,0.7882,0.7882,0.7882,0.8076,0.8075,0.7898,0.7632,0.7442,0.7176,0.542,0.4498,0.4519,0.5011,0.5732,0.6584,0.6362,0.7128,0.8791,0.8109,0.8137,0.8804,0.8804,0.8804,0.8804,0.8804,0.8804,0.8804,0.8804,0.8804,0.8804,0.8804,0.8804,0.8804,0.4519,0.4519,0.4519,0.4519,0.4519,0.4519,0.4519,0.4519,0.4519,0.4519,0.4519,0.4519,0.4519,0.4519,0.4519,0.4519,0.4519,0.4519,0.4519,0.4519,0.4519,0.4519,0.5117,0.6524,0.8752,0.8804,0.8804,0.8804,0.8804,0.8804,0.8804,0.8804,0.8804,0.8804,0.8804,0.8804,0.8804,0.8804,0.8804,0.8804,0.8804,0.8804,0.8804,0.8804,0.8804,0.8804,0.8804,0.8804,0.8804,0.8804,0.8804,0.8804,0.8804,0.8804,0.8804,0.8804,0.8804,0.8804,0.8804,0.8804,0.8857,0.9061,0.8956,0.8857,0.9008,0.891,0.8804,0.8804,0.8804,0.9008,0.9666,0.9695,0.976,1.0333,0.0,0.9036,0.9121,0.839,0.7951,0.8228,0.8126,0.8056,0.8081,0.8088,0.8088,0.8088,0.8343,0.8477,0.8477,0.8149,0.7883,0.7723,0.595,0.498,0.5007,0.5719,0.6332,0.6841,0.7408,0.8014,0.8771,0.8778,0.8804,0.8804,0.8804,0.8804,0.8804,0.8804,0.8804,0.8804,0.8804,0.8804,0.8804,0.8804,0.8804,0.8804,0.4519,0.4519,0.4519,0.4519,0.4519,0.4519,0.4519,0.4519,0.4519,0.4519,0.4519,0.4519,0.4519,0.4519,0.4519,0.4519,0.4519,0.4519,0.4519,0.4519,0.4519,0.4519,0.7069,0.8593,0.8804,0.8804,0.8804,0.8804,0.8804,0.8804,0.8804,0.8804,0.8804,0.8804,0.8804,0.8804,0.8804,0.8804,0.8804,0.8804,0.8804,0.8804,0.8804,0.8804,0.8804,0.8804,0.8804,0.8804,0.8804,0.8804,0.8804,0.8804,0.8804,0.8804,0.8804,0.8804,0.8804,0.8804,0.8804,0.8804,0.9008,0.9865,0.9465,0.8956,0.9562,0.9263,0.8804,0.8804,0.8804,0.9008,0.9666,0.9987,1.0188,1.0381,0.0,0.0,0.9914,0.922,0.8924,0.9253,0.8721,0.8444,0.8717,0.8744,0.8744,0.8744,0.8764,0.8778,0.8778,0.8738,0.8427,0.7723,0.6907,0.6421,0.6426,0.6534,0.6912,0.7622,0.7492,0.7925,0.8811,0.8811,0.8804,0.8804,0.8804,0.8804,0.8804,0.8804,0.8804,0.8804,0.8804,0.8804,0.8804,0.8804,0.8804,0.8804,0.4519,0.4519,0.4519,0.4519,0.4519,0.4519,0.4519,0.4519,0.4519,0.4519,0.4519,0.4519,0.4519,0.4519,0.4519,0.4519,0.4519,0.4519,0.4519,0.4519,0.5277,0.7069,0.8209,0.8804,0.8804,0.8804,0.8804,0.8804,0.8804,0.8804,0.8804,0.8804,0.8804,0.8804,0.8804,0.8804,0.8804,0.8804,0.8804,0.8804,0.8804,0.8804,0.8804,0.8804,0.8804,0.8804,0.8804,0.8804,0.8804,0.8804,0.8804,0.8804,0.8804,0.8804,0.9113,1.0838,1.0131,0.8804,0.8804,0.8804,0.9166,1.0626,1.0728,1.0474,1.0415,0.9917,0.9413,0.9413,0.9113,0.9106,1.0218,1.0505,1.0863,1.1819,0.0,1.1139,1.1089,1.0362,0.9923,1.0226,0.9678,0.9336,0.9399,0.9061,0.8804,0.8804,0.8804,0.8804,0.8804,0.8804,0.8646,0.8374,0.8103,0.7509,0.6588,0.7074,0.7402,0.7723,0.8096,0.8474,0.8804,0.8804,0.8804,0.8804,0.8804,0.8804,0.8804,0.8804,0.8804,0.8804,0.8804,0.8804,0.8804,0.8804,0.8804,0.8804,0.4519,0.4519,0.4519,0.4519,0.4519,0.4519,0.4519,0.4519,0.4519,0.4519,0.4519,0.4519,0.4519,0.4519,0.4519,0.4519,0.4519,0.4897,0.5764,0.5873,0.674,0.8699,0.8804,0.8804,0.8804,0.8804,0.8804,0.8804,0.8804,0.8804,0.8804,0.8804,0.8804,0.8804,0.8804,0.8804,0.8804,0.8804,0.8804,0.8857,0.9725,1.0079,1.0079,1.0079,1.0079,0.9984,0.9113,0.9368,1.0079,1.0079,1.0079,1.0079,1.0079,1.0079,1.0438,1.2372,1.1551,1.0079,1.0079,1.0079,1.0387,1.1642,1.1742,1.1434,1.1166,1.0618,1.0115,1.0115,0.9762,0.9762,1.0914,1.1116,1.1525,1.2725,1.232,1.192,1.2101,1.1394,1.0934,1.1082,1.0517,1.0012,0.9814,0.9361,0.9008,0.8804,0.8804,0.8804,0.8804,0.8804,0.8804,0.8804,0.8804,0.8315,0.7289,0.7777,0.8049,0.8049,0.854,0.8804,0.8804,0.8804,0.8804,0.8804,0.8804,0.8804,0.8804,0.8804,0.8804,0.8804,0.8804,0.8804,0.8804,0.8804,0.8804,0.8804,0.4519,0.4519,0.4519,0.4519,0.4519,0.4519,0.4519,0.4519,0.4515,0.4515,0.4519,0.4519,0.4515,0.4519,0.4519,0.4515,0.4515,0.5764,0.8593,0.8804,0.8804,0.8804,0.8804,0.8804,0.8804,0.8804,0.8804,0.8804,0.8804,0.8804,0.8804,0.8804,0.8804,0.8804,0.8804,0.8804,0.8804,0.8804,0.8804,0.9061,1.1819,1.29,1.29,1.29,1.29,1.2539,0.9844,1.0608,1.29,1.29,1.29,1.29,1.2881,1.2881,1.2881,1.2881,1.2881,1.2881,1.2881,1.2881,1.2881,1.2881,1.2206,1.1584,1.1765,1.1266,1.0813,1.0813,1.0813,1.1015,1.1665,1.1814,1.203,1.2774,1.2881,1.2881,1.2881,1.2295,1.1814,1.1814,1.1216,1.0517,0.9865,0.9814,0.951,0.8857,0.8804,0.8804,0.8804,0.8804,0.8804,0.8804,0.8804,0.8804,0.8804,0.8804,0.8804,0.8804,0.8804,0.8804,0.8804,0.8804,0.8804,0.8804,0.8804,0.8804,0.8804,0.8804,0.8804,0.8804,0.8804,0.8804,0.8804,0.8804,0.8804,0.8804,0.4519,0.4519,0.4519,0.4519,0.4519,0.4519,0.4519,0.6199,0.7503,0.7503,0.5764,0.5277,0.7283,0.571,0.5332,0.7337,0.7503,0.7877,0.8752,0.8804,0.8804,0.8804,0.8804,0.8804,0.8804,0.8804,0.8804,0.8804,0.8804,0.8804,0.8804,0.8804,0.8804,0.891,1.0795,1.0592,0.8804,0.8804,0.9925,1.1849,1.3838,1.4658,1.4658,1.4658,1.4658,1.4547,1.3727,1.3961,1.4658,1.4658,1.4658,1.4453,1.3252,1.2881,1.2881,1.2881,1.2881,1.2881,1.2881,1.2881,1.2881,1.2881,1.2676,1.251,1.2559,1.203,1.1516,1.1516,1.1116,1.1015,1.1665,1.1814,1.203,1.2774,1.2881,1.2881,1.2881,1.2715,1.2559,1.2559,1.1931,1.1266,1.0568,1.0064,0.951,0.8857,0.8804,0.8804,0.8804,0.8804,0.8804,0.8804,0.8804,0.8804,0.8804,0.8804,0.8804,0.8804,0.8804,0.8804,0.8804,0.8804,0.8804,0.8804,0.8804,0.8804,0.8804,0.8804,0.8804,0.8804,0.8804,0.8804,0.8804,0.8804,0.8804,0.8804,0.4519,0.4519,0.4519,0.4519,0.5441,0.6199,0.6199,0.7664,0.8804,0.8804,0.7283,0.6853,0.8593,0.723,0.6907,0.8646,0.8804,0.9005,0.9472,0.9499,0.9499,0.9499,0.9499,0.9285,0.8818,0.8804,0.8804,0.8804,0.8804,0.8804,0.8804,0.9925,1.0438,1.0482,1.2166,1.1968,1.047,1.1126,1.2394,1.3975,1.5,1.541,1.541,1.541,1.541,1.541,1.541,1.541,1.541,1.541,1.541,1.5234,1.4209,1.3418,1.2881,1.2881,1.2881,1.2881,1.2881,1.2881,1.2881,1.2881,1.2881,1.2881,1.2881,1.2559,1.2236,1.2236,1.1882,1.1733,1.2138,1.2236,1.2393,1.2832,1.2881,1.2881,1.2881,1.2881,1.2881,1.2881,1.2236,1.1566,1.0864,1.021,0.951,0.8857,0.8804,0.8804,0.8804,0.8804,0.8804,0.8804,0.8804,0.8804,0.8804,0.8804,0.8804,0.8804,0.8804,0.8804,0.8804,0.8804,0.8804,0.8804,0.8804,0.8804,0.8804,0.8804,0.8804,0.8804,0.8804,0.8804,0.8804,0.8804,0.8804,0.8804,0.4519,0.4519,0.457,0.4842,0.7069,0.8804,0.8804,0.8804,0.8804,0.8804,0.8804,0.8804,0.8804,0.8905,0.8965,0.8965,0.8965,0.9419,1.0557,1.0624,1.0624,1.0624,1.0624,1.006,0.8985,0.8965,0.8965,0.8965,0.8965,0.9119,0.9432,1.1966,1.3105,1.3105,1.3105,1.3105,1.3203,1.4756,1.541,1.541,1.541,1.541,1.541,1.541,1.541,1.541,1.541,1.541,1.541,1.541,1.541,1.541,1.541,1.4355,1.3105,1.3105,1.2998,1.2881,1.2881,1.2881,1.2881,1.2881,1.2881,1.2881,1.2881,1.2881,1.2881,1.2881,1.2881,1.2881,1.2881,1.2881,1.2881,1.2881,1.2881,1.2881,1.2881,1.2881,1.2881,1.2881,1.2295,1.1616,1.0864,1.0167,0.9465,0.8857,0.8804,0.8804,0.8804,0.8804,0.8804,0.8804,0.8804,0.8804,0.8804,0.8804,0.8804,0.8804,0.8804,0.8804,0.8804,0.8804,0.891,0.9166,0.9166,0.9166,0.9166,0.9166,0.9166,0.9166,0.9166,0.9166,0.9166,0.9166,0.9166,0.9166,0.4519,0.4519,0.5226,0.7498,0.8374,0.8804,0.8804,0.8804,0.8804,0.8804,0.8804,0.8804,0.8804,0.9626,1.018,1.018,1.018,1.0287,1.0604,1.0624,1.0624,1.0624,1.0624,1.0504,1.0248,1.018,1.018,1.018,1.018,1.1533,1.3976,1.4572,1.4863,1.4863,1.4863,1.4863,1.4883,1.5254,1.541,1.541,1.541,1.541,1.541,1.541,1.541,1.541,1.541,1.541,1.541,1.541,1.541,1.541,1.541,1.5156,1.4863,1.4863,1.3926,1.2881,1.2881,1.2881,1.2881,1.2881,1.2881,1.2881,1.2881,1.2881,1.2881,1.2881,1.2881,1.2881,1.2881,1.2881,1.2881,1.2881,1.2881,1.2881,1.2881,1.2881,1.2881,1.2881,1.2774,1.2147,1.0922,0.971,0.8956,0.8804,0.8804,0.8804,0.8804,0.8804,0.8804,0.8804,0.8804,0.8804,0.8804,0.8804,0.8804,0.8804,0.8804,0.8804,0.8804,0.8804,0.9984,1.2008,1.2008,1.2008,1.2008,1.2008,1.2008,1.2008,1.2008,1.2008,1.2008,1.2008,1.2008,1.2008,0.6308,0.6524,0.7009,0.8533,0.8804,0.8804,0.8804,0.8804,0.8804,0.8804,0.9299,0.9646,0.9646,1.0194,1.0624,1.0624,1.0624,1.0624,1.0624,1.0624,1.0624,1.0624,1.0624,1.0624,1.0624,1.0624,1.1351,1.287,1.287,1.3777,1.541,1.541,1.541,1.541,1.541,1.541,1.541,1.541,1.541,1.541,1.541,1.541,1.541,1.541,1.541,1.541,1.541,1.541,1.541,1.541,1.541,1.541,1.541,1.541,1.541,1.541,1.4785,1.3916,1.3105,1.2881,1.2881,1.2881,1.2881,1.2881,1.2881,1.2881,1.2881,1.2881,1.2881,1.2881,1.2881,1.2881,1.2881,1.2881,1.2881,1.2881,1.2881,1.2881,1.2881,1.2881,1.2608,1.1832,1.0466,0.9413,0.8804,0.8804,0.8804,0.8804,0.8804,0.8804,0.8804,0.8804,0.8804,0.8804,0.8804,0.8804,0.9472,1.0744,1.0744,1.0744,1.0744,1.0744,1.1551,1.2881,1.2881,1.2881,1.2881,1.2881,1.2881,1.2881,1.2881,1.2881,1.2881,1.2881,1.2881,1.2881,0.8315,0.8804,0.8804,0.8804,0.8804,0.8804,0.8804,0.8978,0.9105,0.9105,0.9953,1.0624,1.0624,1.0624,1.0624,1.0624,1.0624,1.0624,1.0624,1.0624,1.0624,1.0624,1.0624,1.0624,1.0624,1.1108,1.2749,1.541,1.541,1.541,1.541,1.541,1.541,1.541,1.541,1.541,1.541,1.541,1.541,1.541,1.541,1.541,1.541,1.541,1.541,1.541,1.541,1.541,1.541,1.541,1.541,1.541,1.541,1.541,1.541,1.541,1.541,1.5107,1.3691,1.3311,1.3281,1.3135,1.2988,1.29,1.2969,1.293,1.2881,1.2881,1.2881,1.2881,1.2881,1.2881,1.2881,1.2881,1.2881,1.2881,1.2881,1.2881,1.2881,1.2881,1.2236,1.1316,1.0064,0.9465,0.9106,0.8956,0.9061,0.9106,0.9061,0.9061,0.8962,0.8811,0.8804,0.8804,0.8804,0.9263,1.0643,1.2881,1.2881,1.2881,1.2881,1.2881,1.2881,1.2881,1.2881,1.2881,1.2881,1.2881,1.2881,1.2881,1.2881,1.2881,1.2881,1.2881,1.2881,1.2881,0.8699,0.8804,0.8804,0.8804,0.8804,0.8804,0.8804,0.9666,1.0383,1.0383,1.0524,1.0624,1.0624,1.0624,1.0624,1.0624,1.0624,1.0624,1.0624,1.0624,1.0624,1.0624,1.0624,1.0624,1.0624,1.3347,1.4982,1.541,1.541,1.541,1.541,1.541,1.541,1.541,1.541,1.541,1.541,1.541,1.541,1.541,1.541,1.541,1.541,1.541,1.541,1.541,1.541,1.541,1.541,1.541,1.541,1.541,1.541,1.541,1.541,1.541,1.541,1.5361,1.5127,1.5068,1.4893,1.415,1.3418,1.2978,1.334,1.3145,1.2881,1.2881,1.2881,1.2881,1.2881,1.2881,1.2881,1.2881,1.2881,1.2881,1.2881,1.2881,1.2881,1.2881,1.2236,1.1516,1.0762,1.0568,1.0269,0.9718,1.0218,1.0364,1.0012,1.0012,0.9666,0.8804,0.8804,0.8804,0.8804,1.115,1.252,1.2881,1.2881,1.2881,1.2881,1.2881,1.2881,1.2881,1.2881,1.2881,1.2881,1.2881,1.2881,1.2881,1.2881,1.2881,1.2881,1.2881,1.2881,1.2881,0.8804,0.8804,0.8804,0.8804,0.9352,0.9786,0.9786,1.0288,1.0624,1.0624,1.0624,1.0624,1.0624,1.0624,1.0624,1.0624,1.0624,1.0624,1.0624,1.0624,1.0624,1.0624,1.232,1.3295,1.3295,1.4688,1.541,1.541,1.541,1.541,1.541,1.541,1.541,1.541,1.541,1.541,1.541,1.541,1.541,1.541,1.541,1.541,1.541,1.541,1.541,1.541,1.541,1.541,1.541,1.541,1.541,1.541,1.541,1.541,1.541,1.541,1.541,1.541,1.541,1.541,1.5322,1.4941,1.4326,1.3753,1.3262,1.3193,1.3164,1.293,1.2881,1.2881,1.2881,1.2881,1.2881,1.2881,1.2881,1.2881,1.2881,1.2881,1.2881,1.2881,1.2236,1.1665,1.1366,1.1015,1.0661,1.0364,1.0872,1.1124,1.0922,1.1434,1.1493,1.1099,1.1099,1.1099,1.1099,1.2264,1.2881,1.2881,1.2881,1.2881,1.2881,1.2881,1.2881,1.2881,1.2881,1.2881,1.2881,1.2881,1.2881,1.2881,1.2881,1.2881,1.2881,1.2881,1.2881,1.2881]}]]